[[{"header":{"parameterUnit":"m.s-1","parameterCategory":1,"la1":30.6,"la2":29.2853,"lo1":-89.7004,"lo2":-87.6739,"dy":0.0162,"dx":0.0183,"nx":112,"ny":82,"refTime":"2023-11-03T18:00:00:Z","depth":0,"parameterNumber":2,"parameterNumberName":"U-component_of_WINDS"},"data":[0.0,0.0,0.0,0.0,0.0,0.0,0.0,0.0,0.0,0.0,0.0,0.0,0.0,0.0,0.0,0.0,0.0,0.0,0.0,0.0,0.0,0.0,0.0,0.0,0.0,0.0,0.0,0.0,0.0,0.0,0.0,0.0,0.0,0.0,0.0,0.0,0.0,0.0,0.0,0.0,0.0,0.0,0.0,0.0,0.0,0.0,0.0,0.0,0.0,0.0,0.0,0.0,0.0,0.0,0.0,0.0,0.0,0.0,0.0,0.0,0.0,0.0,0.0,0.0,0.0,0.0,0.0,0.0,0.0,0.0,0.0,0.0,0.0,0.0,0.0,0.0,0.0,0.0,0.0,0.0,0.0,0.0,0.0,0.0,0.0,0.0,0.0,0.0,0.0,0.0,-1.9285,-1.9301,-1.9453,-1.9609,-1.9732,-1.9806,-1.9463,-1.8584,0.0,0.0,0.0,0.0,0.0,0.0,0.0,0.0,0.0,0.0,0.0,0.0,0.0,0.0,0.0,0.0,0.0,0.0,0.0,0.0,0.0,0.0,0.0,0.0,0.0,0.0,0.0,0.0,0.0,0.0,0.0,0.0,0.0,0.0,0.0,0.0,0.0,0.0,0.0,0.0,0.0,0.0,0.0,0.0,0.0,0.0,0.0,0.0,0.0,0.0,0.0,0.0,0.0,0.0,0.0,0.0,0.0,0.0,0.0,0.0,0.0,0.0,0.0,0.0,0.0,0.0,0.0,0.0,0.0,0.0,0.0,0.0,0.0,0.0,0.0,0.0,0.0,0.0,0.0,0.0,0.0,0.0,0.0,0.0,0.0,0.0,0.0,0.0,0.0,0.0,0.0,0.0,0.0,0.0,0.0,0.0,0.0,0.0,0.0,0.0,0.0,0.0,0.0,0.0,-1.917,-1.9293,-1.9331,-1.9376,-1.9459,-1.9518,-1.9453,-1.9184,0.0,0.0,0.0,0.0,0.0,0.0,0.0,0.0,0.0,0.0,0.0,0.0,0.0,0.0,0.0,0.0,0.0,0.0,0.0,0.0,0.0,0.0,0.0,0.0,0.0,0.0,0.0,0.0,0.0,0.0,0.0,0.0,0.0,0.0,0.0,0.0,0.0,0.0,0.0,0.0,0.0,0.0,0.0,0.0,0.0,0.0,0.0,0.0,0.0,0.0,0.0,0.0,0.0,0.0,0.0,0.0,0.0,0.0,0.0,0.0,0.0,0.0,0.0,0.0,0.0,0.0,0.0,0.0,0.0,0.0,0.0,0.0,0.0,0.0,0.0,0.0,0.0,0.0,0.0,0.0,0.0,0.0,0.0,0.0,0.0,0.0,0.0,0.0,0.0,0.0,0.0,0.0,0.0,0.0,0.0,0.0,0.0,0.0,0.0,0.0,0.0,0.0,0.0,-1.9095,-1.9112,-1.9196,-1.9256,-1.9315,-1.9339,-1.9405,-1.9398,-1.9315,-1.9011,0.0,0.0,0.0,0.0,0.0,0.0,0.0,0.0,0.0,0.0,0.0,0.0,0.0,0.0,0.0,0.0,0.0,0.0,0.0,0.0,0.0,0.0,0.0,0.0,0.0,0.0,0.0,0.0,0.0,0.0,0.0,0.0,0.0,0.0,0.0,0.0,0.0,0.0,0.0,0.0,0.0,0.0,0.0,0.0,0.0,0.0,0.0,0.0,0.0,0.0,0.0,0.0,0.0,0.0,0.0,0.0,0.0,0.0,0.0,0.0,0.0,0.0,0.0,0.0,0.0,0.0,0.0,0.0,0.0,0.0,0.0,0.0,0.0,0.0,0.0,0.0,0.0,0.0,0.0,0.0,0.0,0.0,0.0,0.0,0.0,0.0,0.0,0.0,0.0,0.0,0.0,0.0,0.0,0.0,0.0,0.0,0.0,0.0,0.0,0.0,0.0,0.0,-1.9095,-1.9095,-1.9095,-1.9186,-1.9248,-1.9259,-1.9297,-1.9305,-1.9266,-1.9216,0.0,0.0,0.0,0.0,0.0,0.0,0.0,0.0,0.0,0.0,0.0,0.0,0.0,0.0,0.0,0.0,0.0,0.0,0.0,0.0,0.0,0.0,0.0,0.0,0.0,0.0,0.0,0.0,0.0,0.0,0.0,0.0,0.0,0.0,0.0,0.0,0.0,0.0,0.0,0.0,0.0,0.0,0.0,0.0,0.0,0.0,0.0,0.0,0.0,0.0,0.0,0.0,0.0,0.0,0.0,0.0,0.0,0.0,0.0,0.0,0.0,0.0,0.0,0.0,0.0,0.0,0.0,0.0,0.0,0.0,0.0,0.0,0.0,0.0,0.0,0.0,0.0,0.0,0.0,0.0,0.0,0.0,0.0,0.0,0.0,0.0,0.0,0.0,0.0,0.0,0.0,0.0,0.0,0.0,0.0,0.0,0.0,0.0,0.0,0.0,0.0,0.0,-1.9095,-1.9095,-1.9095,-1.9104,-1.9112,-1.9112,-1.912,-1.912,-1.9112,-1.8941,0.0,0.0,0.0,0.0,0.0,0.0,0.0,0.0,0.0,0.0,0.0,0.0,0.0,0.0,0.0,0.0,0.0,0.0,0.0,0.0,0.0,0.0,0.0,0.0,0.0,0.0,0.0,0.0,0.0,0.0,0.0,0.0,0.0,0.0,0.0,0.0,0.0,0.0,0.0,0.0,0.0,0.0,0.0,0.0,0.0,0.0,0.0,0.0,0.0,0.0,0.0,0.0,0.0,0.0,0.0,0.0,0.0,0.0,0.0,0.0,0.0,0.0,0.0,0.0,0.0,0.0,0.0,0.0,0.0,0.0,0.0,0.0,0.0,0.0,0.0,0.0,0.0,0.0,0.0,0.0,0.0,0.0,0.0,0.0,0.0,0.0,0.0,0.0,0.0,0.0,0.0,0.0,0.0,0.0,0.0,0.0,0.0,0.0,0.0,0.0,0.0,0.0,-1.9095,-1.9095,-1.9095,-1.9095,-1.9095,-1.9095,-1.9095,-1.9095,-1.9095,0.0,0.0,0.0,0.0,0.0,0.0,0.0,0.0,0.0,0.0,0.0,0.0,0.0,0.0,0.0,0.0,0.0,0.0,0.0,0.0,0.0,0.0,0.0,0.0,0.0,0.0,0.0,0.0,0.0,0.0,0.0,0.0,0.0,0.0,0.0,0.0,0.0,0.0,0.0,0.0,0.0,0.0,0.0,0.0,0.0,0.0,0.0,0.0,0.0,0.0,0.0,0.0,0.0,0.0,0.0,0.0,0.0,0.0,0.0,0.0,0.0,0.0,0.0,0.0,0.0,0.0,0.0,0.0,0.0,0.0,0.0,0.0,0.0,0.0,0.0,0.0,0.0,0.0,0.0,0.0,0.0,0.0,0.0,0.0,0.0,0.0,0.0,0.0,0.0,0.0,0.0,0.0,0.0,0.0,0.0,0.0,0.0,0.0,0.0,0.0,0.0,0.0,-1.8984,-1.9053,-1.9095,-1.9095,-1.9095,-1.9095,-1.9095,-1.9095,-1.9095,-1.9095,0.0,0.0,0.0,0.0,0.0,0.0,0.0,0.0,0.0,0.0,0.0,0.0,0.0,0.0,0.0,0.0,0.0,0.0,0.0,0.0,0.0,0.0,0.0,0.0,0.0,0.0,0.0,0.0,0.0,0.0,0.0,0.0,0.0,0.0,0.0,0.0,0.0,0.0,0.0,0.0,0.0,0.0,0.0,0.0,0.0,0.0,0.0,0.0,0.0,0.0,0.0,0.0,0.0,0.0,0.0,0.0,0.0,0.0,0.0,0.0,0.0,0.0,0.0,0.0,0.0,0.0,0.0,0.0,0.0,0.0,0.0,0.0,0.0,0.0,0.0,0.0,0.0,0.0,0.0,0.0,0.0,0.0,0.0,0.0,0.0,0.0,0.0,0.0,0.0,0.0,0.0,0.0,0.0,0.0,0.0,0.0,0.0,0.0,0.0,0.0,0.0,0.0,-1.8797,-1.8976,-1.9095,-1.9095,-1.9095,-1.9095,-1.9095,-1.9095,-1.9095,0.0,0.0,0.0,0.0,0.0,0.0,0.0,0.0,0.0,0.0,0.0,0.0,0.0,0.0,0.0,0.0,0.0,0.0,0.0,0.0,0.0,0.0,0.0,0.0,0.0,0.0,0.0,0.0,0.0,0.0,0.0,0.0,0.0,0.0,0.0,0.0,0.0,0.0,0.0,0.0,0.0,0.0,0.0,0.0,0.0,0.0,0.0,0.0,0.0,0.0,0.0,0.0,0.0,0.0,0.0,0.0,0.0,0.0,0.0,0.0,0.0,0.0,0.0,0.0,0.0,0.0,0.0,0.0,0.0,0.0,0.0,0.0,0.0,0.0,0.0,0.0,0.0,0.0,0.0,0.0,0.0,0.0,0.0,0.0,0.0,0.0,0.0,0.0,0.0,0.0,0.0,0.0,0.0,0.0,0.0,0.0,0.0,0.0,0.0,0.0,0.0,0.0,0.0,-1.8779,-1.8976,-1.9095,-1.9095,-1.9095,-1.9095,-1.9095,-1.9095,-1.9095,-1.9095,0.0,0.0,0.0,0.0,0.0,0.0,0.0,0.0,0.0,0.0,0.0,0.0,0.0,0.0,0.0,0.0,0.0,0.0,0.0,0.0,0.0,0.0,0.0,0.0,0.0,0.0,0.0,0.0,0.0,0.0,0.0,0.0,0.0,0.0,0.0,0.0,0.0,0.0,0.0,0.0,0.0,0.0,0.0,0.0,0.0,0.0,0.0,0.0,0.0,0.0,0.0,0.0,0.0,0.0,0.0,0.0,0.0,0.0,0.0,0.0,0.0,0.0,0.0,0.0,0.0,0.0,0.0,0.0,0.0,0.0,0.0,0.0,0.0,0.0,0.0,0.0,0.0,0.0,0.0,0.0,0.0,0.0,0.0,0.0,0.0,0.0,0.0,0.0,0.0,0.0,0.0,0.0,0.0,0.0,0.0,0.0,0.0,0.0,0.0,0.0,0.0,0.0,-1.8779,-1.8976,-1.9095,-1.9095,-1.9095,-1.9095,-1.9095,-1.9095,-1.9095,-1.9095,0.0,0.0,0.0,0.0,0.0,0.0,0.0,0.0,0.0,0.0,0.0,0.0,0.0,0.0,0.0,0.0,0.0,0.0,0.0,0.0,0.0,0.0,0.0,0.0,0.0,0.0,0.0,0.0,0.0,0.0,0.0,0.0,0.0,0.0,0.0,0.0,0.0,0.0,0.0,0.0,0.0,0.0,0.0,0.0,0.0,0.0,0.0,0.0,0.0,0.0,0.0,0.0,0.0,0.0,0.0,0.0,0.0,0.0,0.0,0.0,0.0,0.0,0.0,0.0,0.0,0.0,0.0,0.0,0.0,0.0,0.0,0.0,0.0,0.0,0.0,0.0,0.0,0.0,0.0,0.0,0.0,0.0,0.0,0.0,0.0,0.0,0.0,0.0,0.0,0.0,0.0,0.0,0.0,0.0,0.0,0.0,0.0,0.0,0.0,0.0,0.0,0.0,-1.8769,-1.8958,-1.9095,-1.9095,-1.9095,-1.9095,-1.9095,-1.9095,-1.9095,-1.9095,0.0,0.0,0.0,0.0,0.0,0.0,0.0,0.0,0.0,0.0,0.0,0.0,0.0,0.0,0.0,0.0,0.0,0.0,0.0,0.0,0.0,0.0,0.0,0.0,0.0,0.0,0.0,0.0,0.0,0.0,0.0,0.0,0.0,0.0,0.0,0.0,0.0,0.0,0.0,0.0,0.0,0.0,0.0,0.0,0.0,0.0,0.0,0.0,0.0,0.0,0.0,0.0,0.0,0.0,0.0,0.0,0.0,0.0,0.0,0.0,-2.0321,0.0,0.0,0.0,0.0,0.0,0.0,0.0,0.0,0.0,0.0,0.0,0.0,0.0,0.0,0.0,0.0,0.0,0.0,0.0,0.0,0.0,0.0,0.0,0.0,0.0,0.0,0.0,0.0,0.0,0.0,0.0,0.0,0.0,0.0,0.0,0.0,0.0,0.0,0.0,0.0,0.0,-1.8553,-1.8887,-1.9095,-1.9095,-1.9095,-1.9095,-1.9095,-1.9095,-1.9095,-1.9095,-1.8905,0.0,0.0,0.0,0.0,0.0,0.0,0.0,0.0,0.0,0.0,0.0,0.0,0.0,0.0,0.0,0.0,0.0,0.0,0.0,0.0,0.0,0.0,0.0,0.0,0.0,0.0,0.0,0.0,0.0,0.0,0.0,0.0,0.0,0.0,0.0,0.0,0.0,0.0,0.0,0.0,0.0,0.0,0.0,0.0,0.0,0.0,0.0,0.0,0.0,0.0,0.0,0.0,0.0,0.0,0.0,0.0,0.0,0.0,0.0,0.0,-2.0439,0.0,0.0,0.0,0.0,0.0,0.0,0.0,0.0,0.0,0.0,0.0,0.0,0.0,0.0,0.0,0.0,0.0,0.0,0.0,0.0,0.0,0.0,0.0,0.0,0.0,0.0,0.0,0.0,0.0,0.0,0.0,0.0,0.0,0.0,0.0,0.0,0.0,0.0,0.0,0.0,-1.863,-1.8914,-1.9095,-1.9095,-1.9095,-1.9095,-1.9095,-1.901,-1.8993,-1.9087,-1.8824,0.0,0.0,0.0,0.0,0.0,0.0,0.0,0.0,0.0,0.0,0.0,0.0,0.0,0.0,0.0,0.0,0.0,0.0,0.0,0.0,0.0,0.0,0.0,0.0,0.0,0.0,0.0,0.0,0.0,0.0,0.0,0.0,0.0,0.0,0.0,0.0,0.0,0.0,0.0,0.0,0.0,0.0,0.0,0.0,0.0,0.0,0.0,0.0,0.0,0.0,0.0,0.0,0.0,-2.2868,-2.2904,-2.305,-2.3043,-2.2963,-2.2792,-2.2128,-2.1345,-2.059,-2.1306,0.0,0.0,0.0,0.0,0.0,0.0,0.0,0.0,0.0,0.0,0.0,0.0,0.0,0.0,0.0,0.0,0.0,0.0,0.0,0.0,0.0,0.0,0.0,0.0,-2.007,-2.0031,-1.9878,0.0,0.0,0.0,0.0,0.0,0.0,0.0,0.0,0.0,0.0,0.0,-1.8815,-1.8976,-1.9095,-1.9095,-1.9095,-1.9095,-1.9095,-1.8949,-1.8923,-1.9087,-1.8752,-1.8619,0.0,0.0,0.0,0.0,0.0,0.0,0.0,0.0,0.0,0.0,0.0,0.0,0.0,0.0,0.0,0.0,0.0,0.0,0.0,0.0,0.0,0.0,0.0,0.0,0.0,0.0,0.0,0.0,0.0,0.0,0.0,0.0,-2.0259,-2.0947,0.0,0.0,0.0,0.0,0.0,0.0,0.0,0.0,0.0,0.0,0.0,0.0,0.0,-2.3929,-2.4746,-2.4011,-2.4047,-2.4843,-2.4085,-2.4129,-2.4855,-2.4861,-2.444,-2.3722,-2.3613,0.0,-2.2276,-2.239,0.0,0.0,0.0,0.0,0.0,0.0,0.0,0.0,0.0,0.0,0.0,0.0,0.0,0.0,0.0,0.0,0.0,0.0,0.0,0.0,0.0,0.0,-2.0765,-2.0765,-2.1154,-2.1555,0.0,-2.0341,-1.916,-1.9107,-1.9048,0.0,0.0,0.0,0.0,0.0,0.0,0.0,-1.8886,-1.8976,-1.9095,-1.9095,-1.9095,-1.9095,-1.9095,-1.9088,-1.9062,-1.9095,-1.8887,-1.8695,-1.8561,-1.829,0.0,0.0,0.0,0.0,0.0,0.0,0.0,0.0,0.0,0.0,0.0,0.0,0.0,0.0,0.0,0.0,0.0,0.0,0.0,0.0,0.0,0.0,0.0,0.0,0.0,0.0,0.0,0.0,0.0,-2.1267,-2.1406,-2.1714,-2.1673,-2.1929,0.0,0.0,0.0,0.0,0.0,0.0,0.0,0.0,0.0,-2.4468,-2.4511,-2.4739,-2.5144,-2.5239,-2.5461,-2.5873,-2.5982,-2.6249,-2.6619,-2.6619,-2.6402,-2.6033,-2.6033,-2.5829,-2.5352,-2.3919,-2.304,-2.2658,0.0,0.0,0.0,0.0,-2.2601,-2.2601,-2.2601,-2.2601,-2.2601,-2.2601,0.0,0.0,0.0,0.0,0.0,0.0,0.0,-2.1645,0.0,0.0,-2.1627,-2.1575,-2.1753,-2.1927,-2.1948,-2.123,-2.0594,0.0,-2.0461,-2.0373,-2.0131,0.0,0.0,0.0,0.0,-2.0495,-2.0146,-2.029,-2.0445,-2.0445,-2.0445,-2.0264,-1.9811,-1.9669,-1.9462,-1.9123,-1.8815,-1.8648,-1.8676,-1.8293,-1.8037,0.0,0.0,0.0,0.0,0.0,0.0,0.0,0.0,0.0,0.0,0.0,0.0,0.0,0.0,0.0,0.0,0.0,0.0,0.0,0.0,0.0,0.0,0.0,0.0,0.0,0.0,0.0,0.0,-2.226,-2.2342,-2.2489,-2.242,-2.272,0.0,0.0,0.0,0.0,0.0,0.0,-2.5224,-2.5335,-2.5488,-2.5755,-2.5811,-2.5835,-2.5835,-2.6427,-2.6727,-2.6746,-2.7396,-2.7816,-2.8001,-2.8001,-2.8141,-2.8332,-2.8332,-2.8332,-2.816,-2.5829,-2.4492,-2.3976,-2.4626,-2.4339,-2.3575,-2.3575,-2.3441,-2.3275,-2.3275,-2.3275,-2.3275,-2.3275,-2.3275,-2.3231,-2.2969,0.0,0.0,0.0,0.0,-2.2457,-2.2241,-2.2311,-2.2443,-2.2391,-2.2463,-2.2553,-2.2493,-2.2372,-2.2145,0.0,-2.1534,-2.1414,-2.1153,0.0,0.0,0.0,0.0,-2.1434,-2.1237,-2.1373,-2.1514,-2.1514,-2.1514,-2.126,-2.0662,-2.0423,-2.0096,-1.9651,-1.9019,-1.8746,-1.8911,-1.8343,-1.8023,-1.7995,0.0,0.0,0.0,0.0,0.0,0.0,0.0,0.0,0.0,0.0,0.0,0.0,0.0,0.0,0.0,0.0,0.0,0.0,0.0,0.0,0.0,0.0,0.0,0.0,0.0,0.0,0.0,0.0,0.0,-2.3266,-2.3392,0.0,0.0,0.0,0.0,-2.4797,-2.4804,-2.5199,-2.6084,-2.6148,-2.6571,-2.7536,-2.7561,-2.7568,-2.7568,-2.7606,-2.7625,-2.7644,-2.7682,-2.8096,-2.8834,-2.8834,-2.928,-3.007,-3.007,-3.007,-2.9937,-2.8217,-2.7491,-2.7453,-2.7491,-2.6975,-2.6211,-2.6211,-2.572,-2.5077,-2.5077,-2.5077,-2.5077,-2.5077,-2.5077,-2.4881,-2.3936,-2.4169,0.0,0.0,-2.3341,-2.3146,-2.2325,-2.2618,-2.3149,-2.3149,-2.3639,-2.4099,-2.4089,-2.3975,-2.3403,0.0,-2.1507,-2.1414,-2.1153,0.0,-2.2285,-2.133,-2.2,-2.2345,-2.1585,-2.1486,-2.1514,-2.1514,-2.1514,-2.1468,-2.1432,-2.1191,-2.1024,-2.0998,-1.9845,-1.9183,-1.9176,-1.8302,-1.7783,-1.7721,-1.7772,0.0,0.0,0.0,0.0,0.0,0.0,0.0,0.0,0.0,0.0,0.0,0.0,0.0,0.0,0.0,0.0,0.0,0.0,0.0,0.0,0.0,0.0,0.0,0.0,0.0,0.0,0.0,0.0,-2.4289,-2.4318,0.0,-2.4704,-2.5302,-2.5619,-2.5524,-2.6228,-2.6761,-2.6967,-2.7098,-2.7325,-2.7695,-2.8192,-2.8459,-2.8472,-2.9535,-3.0109,-3.0147,-3.0675,-3.1076,-3.1362,-3.1362,-3.1515,-3.1801,-3.1801,-3.1801,-3.1763,-3.1152,-3.0273,-2.9249,-2.8688,-2.8287,-2.7943,-2.7434,-2.7052,-2.6803,-2.6803,-2.6803,-2.6803,-2.6803,-2.6803,-2.6721,-2.6233,-2.5925,-2.5646,-2.5245,-2.4766,-2.4268,-2.3877,-2.397,-2.411,-2.3833,-2.396,-2.4103,-2.4026,-2.3976,-2.3753,-2.3111,-2.2992,-2.2944,-2.2844,-2.3157,-2.3286,-2.2935,-2.3175,-2.3306,-2.3017,-2.298,-2.298,-2.298,-2.2857,-2.2645,-2.2309,-2.1879,-2.1474,-2.111,-2.0382,-1.9969,-1.9969,-1.9488,-1.8971,-1.8481,-1.8493,-1.8198,0.0,0.0,0.0,0.0,0.0,0.0,0.0,0.0,0.0,0.0,0.0,0.0,0.0,0.0,0.0,0.0,0.0,0.0,0.0,0.0,0.0,0.0,0.0,0.0,0.0,0.0,-2.5046,-2.5159,-2.5229,-2.535,-2.5586,-2.6226,-2.6603,-2.6514,-2.7492,-2.8056,-2.7913,-2.8583,-2.8981,-2.8962,-2.9758,-3.0178,-3.0185,-3.1286,-3.1859,-3.1916,-3.2451,-3.2852,-3.3138,-3.3138,-3.3291,-3.354,-3.354,-3.354,-3.354,-3.354,-3.289,-3.1771,-3.0636,-3.0025,-2.972,-2.9147,-2.879,-2.8542,-2.8542,-2.8542,-2.8542,-2.8542,-2.8542,-2.8522,-2.8387,-2.7768,-2.7096,-2.7005,-2.6329,-2.562,-2.5474,-2.5385,-2.5253,-2.4999,-2.4917,-2.4847,-2.4788,-2.4746,-2.4613,-2.4309,-2.3997,-2.3806,-2.3806,-2.3806,-2.3806,-2.3806,-2.3806,-2.3806,-2.3806,-2.3806,-2.3806,-2.3806,-2.3667,-2.3455,-2.3105,-2.2596,-2.2148,-2.1795,-2.1079,-2.0668,-2.0668,-2.0238,-1.9778,-1.9283,-1.927,-1.9034,-1.8549,0.0,0.0,0.0,0.0,0.0,0.0,0.0,0.0,0.0,0.0,0.0,0.0,0.0,0.0,0.0,0.0,0.0,0.0,0.0,0.0,0.0,0.0,0.0,-2.4674,-2.4764,-2.5129,-2.5871,-2.6125,-2.6553,-2.7364,-2.7648,-2.779,-2.781,-2.8548,-2.9025,-2.8999,-3.0617,-3.1503,-3.1439,-3.2298,-3.2737,-3.2737,-3.2776,-3.2776,-3.2776,-3.2776,-3.3215,-3.4052,-3.4052,-3.4464,-3.5209,-3.5209,-3.5209,-3.5209,-3.5209,-3.5209,-3.5037,-3.3387,-3.226,-3.158,-3.1458,-3.0949,-3.028,-3.028,-3.0261,-3.0249,-3.0261,-3.0268,-3.0242,-3.0261,-2.9662,-2.894,-2.8791,-2.7994,-2.7143,-2.7019,-2.6786,-2.6603,-2.6664,-2.6571,-2.6494,-2.656,-2.6465,-2.6139,-2.5321,-2.449,-2.3896,-2.3813,-2.3806,-2.3806,-2.3806,-2.3806,0.0,-2.3806,-2.3806,-2.3806,-2.3806,-2.3785,-2.3785,-2.3795,-2.3353,-2.3084,-2.3096,-2.1928,-2.1224,-2.1224,-2.0487,-2.0052,-2.0035,-2.0002,-1.9989,-1.9984,0.0,0.0,0.0,0.0,0.0,0.0,0.0,0.0,0.0,0.0,0.0,0.0,0.0,0.0,0.0,0.0,0.0,0.0,0.0,0.0,0.0,-2.5362,-2.5816,-2.577,-2.5879,-2.6263,-2.71,-2.7241,-2.7604,-2.8405,-2.9114,-2.9704,-3.0201,-3.1112,-3.1596,-3.1447,-3.2027,-3.2355,-3.2336,-3.3184,-3.3643,-3.3643,-3.4216,-3.4514,-3.4514,-3.4514,-3.4636,-3.4866,-3.4866,-3.4999,-3.5209,-3.5209,-3.5209,-3.5209,-3.5209,-3.5209,-3.5095,-3.4044,-3.3509,-3.3223,-3.2585,-3.2203,-3.2012,-3.2012,-3.1637,-3.1236,-3.1821,-3.1591,-3.1157,-3.1651,-3.1217,-3.0519,-3.0289,-2.9588,-2.8877,-2.8692,-2.8598,-2.8492,-2.8315,-2.8246,-2.82,-2.8111,-2.8064,-2.7779,-2.6934,-2.6566,-2.586,-2.4103,-2.3806,-2.3806,-2.3806,-2.3806,0.0,-2.3806,-2.3806,-2.3806,-2.3806,-2.3502,-2.3376,-2.3565,-2.2935,-2.2605,-2.2799,-2.2296,-2.2006,-2.2006,-2.1789,-2.1431,-2.0873,-2.0302,-1.9883,0.0,0.0,0.0,0.0,0.0,0.0,0.0,0.0,0.0,0.0,0.0,0.0,0.0,0.0,0.0,0.0,0.0,0.0,0.0,0.0,0.0,0.0,-2.6145,-2.6992,-2.7771,-2.735,-2.7396,-2.8599,-2.8752,-2.9211,-3.0388,-3.0942,-3.1409,-3.1792,-3.271,-3.3023,-3.2553,-3.3301,-3.3597,-3.3261,-3.4063,-3.4503,-3.4503,-3.5324,-3.5736,-3.5755,-3.6088,-3.626,-3.626,-3.626,-3.626,-3.626,-3.626,-3.626,-3.626,-3.626,-3.626,0.0,0.0,0.0,0.0,0.0,-3.375,-3.375,-3.375,-3.3444,-3.3127,-3.3597,-3.3406,-3.3066,-3.3454,-3.293,-3.2169,-3.2024,-3.1016,-2.9958,-2.9832,-2.9462,-2.9112,-2.8975,-2.9137,-2.9302,-2.9265,-2.9475,-2.9406,-2.857,-2.8413,0.0,-2.566,-2.4755,-2.4302,-2.4302,-2.4013,-2.3806,-2.3806,-2.3806,-2.3764,-2.3678,-2.3422,-2.3289,-2.3324,-2.2799,0.0,0.0,0.0,-2.2296,-2.2296,-2.2296,0.0,0.0,0.0,-2.0868,-2.0671,-2.0354,0.0,0.0,-1.8561,-1.7935,0.0,0.0,0.0,0.0,0.0,0.0,0.0,0.0,0.0,0.0,0.0,0.0,0.0,0.0,0.0,0.0,-2.7183,-2.8303,-2.9961,-2.9077,-2.8803,-3.0271,-3.0464,-3.1095,-3.2649,-3.2817,-3.289,-3.2986,-3.37,-3.3796,-3.3024,0.0,0.0,0.0,0.0,-3.5477,-3.5477,-3.6252,-3.6634,-3.6634,-3.7368,-3.7693,-3.7693,-3.7693,-3.7693,-3.7693,-3.7693,-3.7693,-3.7693,-3.7693,-3.7693,-3.754,-3.5954,-3.5286,-3.5209,-3.5209,-3.5209,-3.5209,-3.5209,0.0,0.0,-3.5171,-3.5152,-3.5087,-3.5147,-3.4494,-3.3733,-3.3668,-3.2337,-3.0913,-3.088,-3.0162,-2.946,-2.9514,-2.9941,-3.0332,-3.0274,-3.0729,-3.0871,-2.9984,-2.9875,-2.9458,-2.7942,-2.6349,-2.5244,-2.5153,-2.452,-2.4031,-2.3951,-2.3901,-2.3797,-2.3526,0.0,0.0,-2.3084,-2.2812,-2.2646,-2.2646,-2.2432,-2.2296,-2.2296,-2.2296,-2.2296,-2.2296,-2.2296,-2.2296,-2.2296,-2.1634,-2.1326,-2.1278,-1.9992,-1.9364,0.0,0.0,0.0,0.0,0.0,0.0,0.0,0.0,0.0,0.0,0.0,0.0,0.0,0.0,0.0,-2.7103,-2.8593,-2.9801,-3.0147,-3.1076,-3.1787,-3.1956,-3.2118,-3.253,-3.3359,-3.362,-3.4025,-3.4666,-3.4866,-3.4885,-3.4724,-3.5698,-3.6175,-3.6023,-3.6795,-3.7215,-3.7215,-3.7387,-3.7464,-3.7464,0.0,0.0,-3.7693,-3.7693,-3.7693,-3.7693,-3.7693,-3.7693,-3.7693,-3.7693,-3.7693,-3.7597,-3.6634,-3.5812,-3.5209,-3.5209,-3.5209,-3.5209,-3.5209,-3.4789,-3.4331,-3.4999,-3.4751,-3.4326,-3.4801,-3.4803,0.0,-3.4192,-3.3785,-3.3443,-3.322,-3.3007,-3.2845,-3.2792,-3.288,-3.2753,-3.2019,-3.1947,-3.1592,-3.0087,-3.0328,-3.0473,-2.9494,-2.7997,-2.6729,-2.6077,-2.5842,-2.5497,-2.4846,-2.4581,-2.4193,-2.3557,-2.3109,-2.2825,-2.2773,-2.2525,-2.238,-2.238,-2.2338,-2.2296,-2.2296,-2.2296,-2.2296,-2.2296,-2.2296,-2.2296,-2.2296,-2.2175,-2.209,-2.2043,-2.0565,-1.971,0.0,0.0,0.0,0.0,0.0,0.0,0.0,0.0,0.0,0.0,0.0,-2.5926,0.0,0.0,-2.779,-2.8491,-2.976,-3.0915,-3.164,-3.2571,-3.3162,-3.32,-3.3282,-3.3622,-3.434,-3.453,-3.4942,-3.5793,-3.5851,-3.6023,-3.6432,-3.6871,-3.7101,-3.7101,-3.7483,-3.7693,-3.7693,-3.8132,-3.8343,-3.8362,-3.8782,-3.9011,-3.9011,-3.9011,-3.9011,-3.9011,-3.9011,-3.9011,-3.9011,-3.9011,-3.8744,-3.8304,-3.7922,-3.7215,-3.6394,-3.6003,-3.5851,-3.5793,-3.5354,-3.4942,-3.4639,-3.4947,-3.4788,-3.4486,-3.4641,-3.4641,-3.4502,-3.4269,-3.3815,-3.3382,-3.3227,-3.2908,-3.2583,-3.2504,-3.2775,-3.2908,-3.2415,-3.2591,-3.2476,-3.1234,-3.1329,-3.1234,-3.002,-2.9463,-2.8793,-2.7586,-2.7061,-2.65,-2.5697,-2.5485,-2.5028,-2.401,-2.3651,-2.3228,-2.2562,-2.238,-2.2296,-2.2296,-2.2296,-2.2296,-2.2296,-2.2296,-2.2296,-2.2296,-2.2296,-2.2296,-2.2296,-2.2296,-2.2296,-2.2279,-2.1502,-2.1039,0.0,0.0,0.0,0.0,0.0,0.0,0.0,0.0,-2.5607,-2.6134,-2.6372,-2.674,-2.7545,-2.8407,-2.9236,-2.9986,-3.0972,-3.2086,-3.3278,-3.3705,-3.3992,-3.42,-3.4235,-3.4525,-3.5293,-3.5414,-3.5812,-3.6672,-3.6729,-3.7024,-3.7674,-3.7865,-3.7941,-3.7941,-3.8113,-3.8209,-3.8209,-3.8897,-3.926,-3.926,-3.9957,-4.0301,-4.0301,-4.0301,-4.0301,-4.0301,-4.0301,-4.0301,-4.0301,-4.0301,-3.9881,-3.926,-3.926,-3.882,-3.8094,-3.7092,-3.6729,-3.6634,-3.5935,-3.5687,-3.5615,-3.5258,-3.5135,-3.5049,-3.4586,-3.4325,-3.4185,-3.4136,-3.3498,-3.2821,-3.2821,-3.2357,-3.1849,-3.1772,-3.2218,-3.2589,-3.2346,-3.278,-3.2937,-3.214,-3.2089,-3.1727,-3.0273,-3.0708,-3.0695,-2.907,-2.8401,-2.7749,-2.6801,-2.6627,-2.6081,-2.4721,-2.4492,-2.3958,-2.281,-2.2733,-2.2682,-2.2516,-2.2499,-2.2448,-2.2296,-2.2296,-2.2296,-2.2296,-2.2296,-2.2296,-2.2296,-2.2296,-2.2296,-2.2296,-2.2296,-2.2268,-2.5308,-2.5303,-2.5298,-2.5287,-2.5282,-2.5271,0.0,0.0,-2.6356,-2.6371,-2.6995,-2.7771,-2.8592,-2.9438,-3.0297,-3.1092,-3.26,-3.3726,-3.3901,-3.4557,-3.5032,-3.5048,-3.5076,-3.5314,-3.5942,-3.6213,-3.6691,-3.7502,-3.7559,-3.7617,-3.7693,-3.8438,-3.8858,-3.8858,-3.9623,-4.0014,-4.0014,-4.011,-4.0148,-4.0148,-4.0244,-4.0301,-4.0301,-4.0301,-4.0301,-4.0301,-4.0301,-4.0301,-4.0301,-4.0301,-4.0244,-4.0148,-4.0148,-4.0091,-3.9804,-3.8171,-3.7559,-3.754,-3.7445,-3.7426,-3.7266,-3.6283,-3.5969,-3.5748,-3.4591,-3.4221,-3.4148,-3.3908,-3.376,-3.3678,-3.3678,-3.3605,-3.3518,-3.3437,-3.3483,-3.3314,-3.2479,-3.2365,-3.2173,-3.1288,-3.1709,-3.1908,-3.1034,-3.1528,-3.151,-2.9911,-3.0201,-3.0043,-2.8527,-2.8113,-2.7365,-2.58,-2.5203,-2.4741,-2.4284,-2.4254,-2.3966,-2.3325,-2.3274,-2.2987,-2.233,-2.2296,-2.2296,-2.2296,-2.2296,-2.2296,-2.2296,-2.2296,-2.2296,-2.2296,-2.2296,-2.2296,-2.5308,-2.5298,-2.5297,-2.5252,-2.562,-2.5975,-2.5916,-2.6573,-2.7313,-2.7759,-2.8134,-2.8669,-2.9497,-3.0376,-3.118,0.0,-3.2985,-3.389,-3.4245,-3.4708,-3.5199,-3.5674,-3.5867,-3.6054,-3.6319,-3.6858,-3.7559,-3.84,-3.8457,-3.8686,-3.9183,-3.9565,-3.9747,-3.9747,-4.011,-4.0301,-4.0301,-4.0301,-4.0301,-4.029,-4.029,-4.0327,-4.0364,-4.0364,-4.0336,-4.029,-4.029,-4.0291,-4.0301,-4.0301,-4.0301,-4.0301,-4.0301,-4.0301,-4.0148,-3.8916,-3.8457,-3.8381,-3.7884,-3.7693,-3.7609,-3.7034,-3.6861,-3.6704,-3.5905,-3.5299,-3.4847,-3.4567,-3.4174,-3.3807,-3.3807,-3.3807,-3.3793,-3.3712,-3.3698,-3.3579,-3.314,-3.3029,-3.2764,-3.1919,-3.2005,-3.1926,-3.1143,-3.1673,-3.1799,-3.0672,-3.0781,-3.0586,-2.9445,-2.962,-2.9085,-2.7169,-2.5789,-2.4866,-2.4521,-2.4491,-2.4372,-2.4068,-2.4051,-2.3898,-2.3579,-2.3579,-2.3579,-2.3579,-2.3579,-2.3579,-2.3579,-2.3139,-2.2936,-2.2936,-2.2499,-2.2296,-2.5303,-2.5307,-2.5344,-2.5535,-2.605,-2.6558,-2.6713,-2.7427,-2.8224,-2.8784,-2.9089,-2.9509,-3.0395,-3.1255,-3.205,-3.274,-3.352,-3.4196,-3.464,-3.486,-3.5296,-3.6112,-3.6574,-3.692,-3.7169,-3.7712,-3.8419,-3.9298,-3.9355,-3.9642,-4.0263,-4.0301,-4.0301,-4.0301,-4.0301,-4.031,-4.031,-4.0319,-4.0327,-4.0325,-4.0325,-4.0362,-4.0407,-4.0407,-4.0362,-4.0307,-4.0307,-4.0299,-4.0301,-4.0301,-4.0301,-4.0301,-4.0301,-4.0301,-4.0225,-3.9603,-3.9355,-3.9279,-3.8648,-3.8419,-3.8335,-3.7898,-3.7762,-3.7623,-3.6926,-3.626,-3.5701,-3.5432,-3.4931,-3.4431,-3.4192,-3.4137,-3.4069,-3.3794,-3.3726,-3.3712,-3.3629,-3.3577,-3.3356,-3.276,-3.2581,-3.227,-3.1473,-3.1799,-3.1926,-3.1125,-3.1197,-3.0962,-2.9929,-3.0229,-2.9858,-2.8122,-2.6723,-2.5693,-2.5148,-2.5117,-2.5015,-2.4829,-2.4795,-2.4711,-2.4508,-2.4491,-2.4491,-2.4491,-2.4491,-2.4491,-2.4491,-2.3966,-2.3697,-2.3695,-2.3156,-2.2919,-2.5298,-2.5307,-2.5503,-2.6353,-2.6535,-2.6699,-2.7483,-2.8326,-2.8945,-2.8905,-2.9567,-3.0433,-3.1293,-3.2126,-3.2947,-3.3815,-3.4628,-3.5155,-3.5174,-3.5193,-3.5499,-3.6377,-3.7169,-3.7999,0.0,-3.8954,-3.9317,-4.0186,-4.0263,-4.0263,-4.0301,-4.0301,-4.0301,-4.0301,-4.0299,-4.0307,-4.0307,-4.0362,-4.0407,-4.0407,-4.0407,-4.0407,-4.0407,-4.0407,-4.0362,-4.0307,-4.0307,-4.0299,-4.0301,-4.0301,-4.0301,-4.0301,-4.0301,-4.0301,-4.0301,-4.0263,-4.0263,-4.0263,-4.0225,-4.0225,-4.0043,-3.901,-3.8654,-3.8418,-3.7094,-3.6688,-3.6604,-3.6348,-3.6229,-3.6028,-3.5188,-3.4968,-3.4766,-3.399,-3.3807,-3.378,-3.3712,-3.3629,-3.3559,-3.3488,-3.3415,-3.3103,-3.2288,-3.218,-3.1926,-3.1125,-3.1655,-3.1582,-3.0002,-2.9538,-2.9074,-2.8347,-2.8231,-2.7773,-2.6708,-2.6623,-2.6319,-2.5609,-2.5575,-2.5253,-2.4525,-2.4491,-2.4491,-2.4491,-2.4491,-2.4491,-2.4491,-2.4474,-2.4457,-2.4457,-2.444,-2.4423,-2.6712,-2.66,-2.6367,-2.719,-2.7775,-2.8224,-2.8447,-2.9167,-2.9778,-2.9765,-3.0414,-3.1102,-3.1446,-3.263,-3.3662,-3.3956,-3.4674,-3.5209,-3.5209,-3.5698,-3.6366,-3.7196,-3.8056,0.0,0.0,0.0,0.0,-4.0282,-4.0301,-4.0301,-4.0301,-4.0301,-4.0301,-4.0299,-4.0298,-4.0316,-4.037,-4.0379,-4.0424,-4.0477,-4.0471,-4.0468,-4.0468,-4.0468,-4.0444,-4.0432,-4.0379,-4.0344,-4.0299,-4.0301,-4.0301,-4.0301,-4.0301,-4.0301,-4.0301,-4.0301,-4.0301,-4.0301,-4.0301,-4.0301,-4.0234,-3.9872,-3.9649,-3.9386,-3.8751,-3.8064,-3.7445,-3.7176,-3.6707,-3.6229,-3.5936,-3.5862,-3.5789,-3.5514,-3.5018,-3.4601,-3.4573,-3.4054,-3.3591,-3.3577,-3.3481,-3.3302,-3.3049,-3.2995,-3.2723,-3.1908,-3.1564,-3.1327,-3.1092,-3.003,-2.9245,-2.9107,-2.8627,-2.8065,-2.747,-2.7418,-2.7131,-2.6387,-2.6336,-2.6218,-2.598,-2.5963,-2.5963,-2.5963,-2.5963,-2.5963,-2.5963,-2.5456,-2.522,-2.522,-2.4728,-2.4491,-2.7044,-2.7028,-2.6867,-2.7996,-2.8631,-2.906,-2.9307,-2.981,-3.0211,-3.0211,-3.0605,-3.1178,-3.1801,-3.2802,-3.3738,-3.4331,-3.4789,-3.5115,-3.5201,-3.5628,-3.6373,-3.7551,-3.819,-3.9011,0.0,0.0,0.0,-4.0301,-4.0301,-4.0301,-4.0301,-4.0301,-4.031,-4.0307,-4.0325,-4.037,-4.0432,-4.043,-4.0455,-4.0507,-4.05,-4.0496,-4.0496,-4.0496,-4.0495,-4.0458,-4.0424,-4.0353,-4.0299,-4.0301,-4.0301,-4.0301,-4.0301,-4.0301,-4.0301,-4.0301,-4.0301,-4.0301,-4.0301,-4.0244,-4.0157,-4.0157,-3.9975,-3.9705,-3.9439,-3.8878,-3.8266,-3.7989,-3.7551,-3.7092,-3.6813,-3.674,-3.6666,-3.6358,-3.5881,-3.5463,-3.5463,-3.4708,-3.4039,-3.4039,-3.3691,-3.3393,-3.3393,-3.3393,-3.323,-3.2705,-3.1809,-3.1293,-3.1458,-3.0238,-2.9325,-2.9317,-2.887,-2.8339,-2.7841,-2.806,-2.7909,-2.7148,-2.7097,-2.6962,-2.6708,-2.6691,-2.6691,-2.6691,-2.6691,-2.6691,-2.6691,-2.6218,-2.5998,-2.5981,-2.5507,-2.5286,-2.6476,-2.6734,-2.7122,-2.8743,-2.9116,-2.9251,-3.0023,-3.0206,-3.0211,-3.0211,-3.023,-3.0758,0.0,0.0,-3.3291,-3.4885,-3.5008,-3.4992,-3.5166,-3.5075,-3.5666,0.0,0.0,0.0,0.0,0.0,0.0,-4.0301,0.0,-4.0301,-4.0301,-4.0301,-4.0291,-4.0307,-4.037,-4.0432,-4.051,-4.0492,-4.0496,-4.0496,-4.0496,-4.0496,-4.0496,-4.0496,-4.0468,-4.0415,-4.0415,-4.0382,-4.0291,-4.031,-4.031,-4.0301,-4.0301,-4.0301,-4.0301,-4.0301,-4.0301,-4.0272,-4.0301,-4.0118,-3.9903,-3.9903,-3.9717,-3.9439,-3.9183,-3.9087,-3.9036,-3.8765,-3.8707,-3.8524,-3.7768,-3.7566,-3.7364,-3.6597,-3.6376,-3.6358,-3.6358,-3.5579,-3.4856,-3.4805,-3.4036,-3.3393,-3.3393,-3.3393,-3.3393,-3.3393,-3.2421,-3.1531,-3.1142,-3.0109,-2.9316,-2.908,-2.9027,-2.8687,-2.7925,-2.8552,-2.8653,-2.7858,-2.7841,-2.7519,-2.6793,-2.6759,-2.6725,-2.6691,-2.6691,-2.6691,-2.6691,-2.6691,-2.6691,-2.6691,-2.6691,-2.6691,-2.8049,-2.8466,-2.8699,-2.9679,-2.9902,-2.9946,-3.0148,-3.0192,-3.0211,-3.0211,-3.0682,-3.1209,-3.1649,-3.2783,-3.3815,-3.4235,-3.4767,0.0,-3.5201,-3.5721,0.0,-3.7578,0.0,-3.9107,-4.0186,-4.0301,0.0,0.0,-4.0301,-4.0301,-4.0301,-4.0301,-4.0328,-4.037,-4.0379,-4.043,-4.05,-4.0508,-4.0496,-4.0496,-4.0496,-4.0496,-4.0496,-4.0496,-4.0481,-4.0476,-4.0463,-4.0452,-4.0372,-4.0317,-4.03,-4.0301,-4.0301,-4.0301,-4.0301,-4.0301,-4.0176,-4.0027,-4.0234,-4.0118,-3.9903,-3.9903,-3.9568,-3.9178,-3.9129,-3.8964,-3.8795,-3.8723,-3.8707,-3.8652,-3.845,-3.8395,-3.834,-3.8138,-3.7624,-3.7199,-3.7199,-3.6432,-3.5575,-3.4929,-3.4036,-3.3393,-3.3393,-3.3393,-3.3393,-3.3393,-3.2888,-3.2168,-3.1296,-3.0143,-2.9504,-2.979,-2.9331,-2.8925,-2.8704,-2.8891,-2.8653,-2.7858,-2.8366,-2.8332,-2.7553,-2.7519,-2.7249,-2.6708,-2.6691,-2.6691,-2.6691,-2.6691,-2.6691,-2.6691,-2.6691,-2.6691,-2.8065,-2.8526,-2.8802,-2.9921,-3.0188,-3.02,-3.0192,-3.0211,-3.0211,-3.0211,-3.0567,-3.0987,-3.1324,-3.2229,-3.3146,0.0,0.0,0.0,-3.5136,-3.5562,-3.626,0.0,-3.8132,0.0,-4.0186,-4.0301,-4.0301,0.0,-4.0301,-4.0301,-4.0301,-4.031,-4.0336,-4.0407,-4.0432,-4.0455,-4.0496,-4.0496,-4.0496,-4.0496,-4.0496,-4.0496,-4.0496,-4.0496,-4.0508,-4.0503,-4.0474,-4.0424,-4.0353,-4.0308,-4.0291,-4.0301,-4.0301,-4.0301,-4.0301,-4.0301,-4.0196,-4.0087,-4.0108,-3.9954,-3.9728,-3.9728,-3.9363,-3.8921,-3.8921,-3.8807,-3.8707,-3.8707,-3.8707,-3.8707,-3.8707,-3.8707,-3.8707,-3.8707,-3.8358,-3.8028,-3.8028,-3.7323,-3.6409,-3.545,-3.4552,-3.3936,-3.3936,-3.3628,-3.3393,-3.3393,-3.3068,-3.2522,-3.1787,-3.0664,-2.9968,-3.0095,-2.9736,-2.9482,-2.9482,-2.9482,-2.9144,-2.8383,-2.8738,-2.8636,-2.7841,-2.8128,-2.7977,-2.7199,-2.7182,-2.7029,-2.6691,-2.6691,-2.6691,-2.6691,-2.6691,-2.6691,-2.7236,-2.7792,-2.8291,-2.9685,-3.0105,-3.0181,-3.0058,-3.0032,-3.0032,-3.0032,-3.0032,-3.028,-3.1102,-3.1389,-3.2019,-3.3566,0.0,-3.4021,-3.5051,-3.5054,-3.5627,-3.7484,-3.7693,-3.8381,-4.0129,-4.0301,-4.0301,-4.0301,-4.0291,-4.0291,-4.0291,-4.0299,-4.0325,-4.0415,-4.0466,-4.0495,-4.0496,-4.0496,-4.0496,-4.0496,-4.0496,-4.0496,-4.0496,-4.0496,-4.0492,-4.0491,-4.0449,-4.0379,-4.0316,-4.03,-4.032,-4.0301,-4.0301,-4.0301,-4.0301,-4.0301,-4.0291,-4.0206,-3.9986,-3.9705,-3.9452,-3.9452,-3.9115,-3.8707,-3.8707,-3.8707,-3.8707,-3.8707,-3.8707,-3.8707,-3.8707,-3.8707,-3.8707,-3.8707,-3.8707,-3.8707,-3.8707,-3.8004,-3.7125,-3.6243,-3.5356,-3.4733,-3.4609,-3.4027,-3.352,-3.3429,-3.3099,-3.2749,-3.2351,-3.1394,-3.0622,-3.0281,-3.0176,-3.0108,-3.0108,-3.0108,-2.9837,-2.9196,-2.9145,-2.8789,-2.7993,-2.8619,-2.8619,-2.7824,-2.7908,-2.7638,-2.7013,-2.6894,-2.6843,-2.6843,-2.6742,-2.6691,-2.6665,-2.7745,-2.8849,-2.9071,-2.9676,-3.0001,-2.928,-2.9127,0.0,-2.9127,-2.9127,-2.9395,-3.0242,-3.1006,-3.1809,-3.2776,-3.3486,-3.4222,-3.5087,-3.5157,-3.5787,0.0,-3.7693,-3.8381,-4.0129,-4.0301,0.0,0.0,-4.0309,-4.0289,-4.0289,-4.0298,-4.0362,-4.0485,-4.0495,-4.0508,-4.0496,-4.0496,-4.0496,-4.0496,-4.0496,-4.0496,-4.0496,-4.0496,-4.0489,-4.05,-4.0492,0.0,-4.0379,-4.0389,-4.0355,-4.0301,-4.0301,-4.0301,-4.0301,-4.0301,-4.0166,-3.9956,-3.9914,-3.9587,-3.9183,-3.9183,-3.8964,-3.8707,-3.8707,-3.8707,-3.8707,-3.8707,-3.8707,-3.8707,-3.8707,-3.8707,-3.8707,-3.8707,-3.8707,-3.8707,-3.8707,-3.7924,-3.7176,-3.7018,-3.6222,-3.5369,-3.47,-3.448,-3.4172,-3.3502,-3.3349,-3.3037,-3.2385,-3.1846,-3.1375,-3.1043,-3.0463,-3.0108,-3.0108,-3.0108,-3.0057,-2.9922,-2.9922,-2.9567,-2.8824,-2.8925,-2.8619,-2.7824,-2.845,-2.8739,-2.8604,-2.7943,-2.7604,-2.7587,-2.6979,-2.6691,-2.6355,-2.707,-2.7797,-2.8179,-2.8599,-2.879,-2.8363,0.0,0.0,-2.8815,-2.8891,-2.9166,-3.0032,-3.0529,-3.1083,-3.1897,-3.2756,-3.3624,-3.4464,-3.4942,-3.5821,-3.7502,-3.7693,-3.8381,-4.0129,-4.0301,-4.0301,-4.0301,-4.0299,-4.0307,-4.0307,-4.037,-4.043,-4.0495,-4.05,-4.0496,-4.0496,-4.0496,-4.0496,-4.0496,-4.0496,-4.0496,-4.0496,-4.0496,-4.0496,-4.0496,-4.0511,-4.0471,-4.0441,-4.0379,-4.0326,-4.03,-4.0291,-4.0301,-4.0301,-4.0301,-4.0225,-4.0077,-3.9785,-3.9508,-3.9259,-3.8993,-3.8792,-3.8707,-3.8707,-3.8707,-3.8707,-3.8707,-3.8707,-3.8707,-3.8707,-3.8707,-3.8707,-3.8707,-3.8707,-3.8707,-3.8707,-3.8266,-3.7865,-3.7833,-3.7103,-3.6338,-3.5926,-3.515,-3.4464,-3.4081,-3.3665,-3.3132,-3.2402,-3.2144,-3.1787,-3.1269,-3.0886,-3.0666,-3.0666,-3.0328,-3.0108,-3.0108,-3.0108,-2.9939,-2.9583,-2.9567,-2.9211,-2.8433,-2.8399,-2.8383,-2.8383,-2.7993,-2.801,-2.8416,-2.8062,-2.7655,-2.5987,-2.6306,-2.6624,-2.7268,-2.7568,-2.7644,-2.7453,-2.7415,-2.7638,-2.8478,-2.865,-2.8956,-3.0013,-3.0211,-3.0452,0.0,-3.1992,-3.2814,-3.3861,-3.4541,-3.5553,-3.7234,-3.7597,0.0,-3.9862,-4.0186,0.0,-4.0301,-4.0326,-4.0334,-4.0334,-4.0438,-4.0495,-4.0496,-4.0496,-4.0496,-4.0496,-4.0496,-4.0496,-4.0496,-4.0496,-4.0496,-4.0496,-4.0496,-4.0496,-4.0496,-4.0495,-4.0491,-4.0493,-4.0388,-4.0325,-4.0307,-4.03,-4.0291,-4.0301,-4.0301,-4.0301,-4.0225,-3.9682,-3.9514,-3.9414,-3.8881,-3.8707,-3.8707,-3.8707,-3.8707,-3.8707,-3.8707,-3.8707,-3.8707,-3.8707,-3.8707,-3.8707,-3.8707,-3.8707,-3.8707,-3.8707,-3.859,-3.8478,-3.8415,-3.7826,-3.7291,-3.7047,-3.5946,-3.5059,-3.4881,-3.4172,-3.3417,-3.275,-3.2507,-3.2127,-3.1406,-3.1249,-3.119,-3.119,-3.0666,-3.0345,-3.0345,-3.0192,-3.0108,-3.0108,-3.0108,-2.9837,-2.9264,-2.8601,-2.8297,-2.8297,-2.7959,-2.8111,-2.8756,-2.8587,-2.8247,-2.5293,-2.5854,-2.6427,-2.6498,-2.7109,-2.7491,-2.6708,0.0,-2.6765,-2.7625,-2.781,-2.8294,-2.9898,-3.0211,-3.0452,-3.1267,0.0,-3.2172,-3.3765,-3.4071,-3.4732,-3.6405,0.0,0.0,-3.903,-3.9843,-4.0301,-4.0298,-4.0405,-4.0474,-4.0474,-4.0484,-4.0489,-4.0496,-4.0496,-4.0496,-4.0496,-4.0496,-4.0496,-4.0496,-4.0496,-4.0496,-4.0496,-4.0496,-4.0496,-4.0496,-4.0489,-4.0503,0.0,-4.0493,-4.0405,-4.0307,-4.0298,-4.0309,-4.0301,-4.0301,-4.0301,-4.0225,-3.9682,-3.9514,-3.9414,-3.8881,-3.8707,-3.8707,-3.8707,-3.8707,-3.8707,-3.8707,-3.8707,-3.8707,-3.8707,-3.8707,-3.8707,-3.8707,-3.8707,-3.8707,-3.8707,-3.859,-3.8478,-3.8415,-3.8281,-3.7929,-3.7138,-3.6886,-3.6542,-3.5786,-3.4989,-3.4339,-3.39,-3.3208,-3.2485,-3.1732,-3.137,-3.119,-3.119,-3.114,-3.1089,-3.1089,-3.048,-3.0108,-3.0108,-3.0108,-3.0074,-3.0006,-2.9939,-2.9886,-2.9886,-2.8483,-2.7841,-2.7891,-2.7215,-2.7232,-2.5197,-2.544,-2.5682,-2.5682,-2.5931,-2.6103,-2.5759,0.0,-2.6064,-2.7415,-2.7701,-2.8217,-2.9879,-3.0211,-3.03,-3.0624,0.0,0.0,-3.307,-3.3662,-3.4617,-3.629,-3.7215,0.0,0.0,0.0,-4.0319,-4.0362,-4.0449,-4.0499,-4.0503,-4.0508,-4.0496,-4.0496,-4.0496,-4.0496,-4.0496,-4.0496,-4.0496,-4.0496,-4.0496,-4.0496,-4.0496,-4.0496,-4.0496,-4.0496,-4.0496,-4.0508,0.0,-4.0499,-4.0441,-4.0362,-4.0316,-4.029,-4.0301,-4.0301,-4.0301,-4.0225,-3.9682,-3.9514,-3.9414,-3.8881,-3.8707,-3.8707,-3.8707,-3.8707,-3.8707,-3.8707,-3.8707,-3.8707,-3.8707,-3.8707,-3.8707,-3.8707,-3.8707,-3.8707,-3.8707,-3.8658,-3.8593,-3.8478,-3.843,-3.8275,-3.7873,-3.7368,-3.6935,-3.6578,-3.5838,-3.5006,-3.411,-3.3721,-3.315,-3.2179,-3.1731,-3.1428,-3.121,-3.119,-3.119,-3.119,-3.092,-3.0768,-3.0768,-3.0345,-3.0108,-3.0108,-2.9651,-2.9651,-3.0108,-2.9042,-2.8755,-2.9159,-2.8416,-2.7977,-2.5197,-2.5191,-2.5191,-2.5191,-2.5191,-2.5191,-2.5191,0.0,-2.5688,-2.7358,-2.7701,-2.8217,-2.9879,-3.0211,-3.0211,0.0,0.0,-3.1484,-3.2546,-3.3242,-3.4331,-3.6271,0.0,-3.8037,-3.8916,-3.9813,-4.0364,-4.0424,-4.0474,-4.0503,-4.0496,-4.0496,-4.0496,-4.0496,-4.0496,-4.0496,-4.0496,-4.0496,-4.0496,-4.0496,-4.0496,-4.0496,-4.0496,-4.0496,-4.0496,-4.0496,-4.0496,-4.0496,0.0,-4.0495,-4.0466,-4.0407,-4.0353,-4.0327,-4.0301,-4.0301,-4.0244,-4.0127,-3.9658,-3.9452,-3.9311,-3.8851,-3.8707,-3.8707,-3.8707,-3.8707,-3.8707,-3.8707,-3.8707,-3.8707,-3.8707,-3.8707,-3.8707,-3.8707,-3.8707,-3.8707,-3.8707,-3.8707,-3.8658,-3.8525,-3.851,-3.8446,-3.8322,-3.7834,-3.7421,-3.7374,-3.6671,-3.5849,-3.5009,-3.4458,-3.3827,-3.2892,-3.2336,-3.1841,-3.1389,-3.1269,-3.119,-3.119,-3.119,-3.119,-3.119,-3.07,-3.0429,-3.0429,-2.9702,-2.9583,-3.0108,-2.9347,-2.9281,-2.977,-2.9247,-2.8805,-2.5191,-2.5191,-2.5191,-2.5191,-2.5191,-2.5191,-2.5191,-2.5191,-2.5688,-2.7358,-2.7701,-2.8217,-2.9879,-3.0211,-3.0211,-3.0211,-3.0211,0.0,-3.247,-3.2718,-3.3654,0.0,0.0,-3.8037,-3.8916,-3.9856,-4.0424,-4.0502,-4.0503,0.0,-4.0496,-4.0496,-4.0496,-4.0496,-4.0496,-4.0496,-4.0496,-4.0496,-4.0496,-4.0496,-4.0496,-4.0496,-4.0496,-4.0496,-4.0496,-4.0496,-4.0496,-4.0496,0.0,-4.0496,-4.046,-4.0407,-4.0407,-4.0364,-4.0301,-4.0301,-4.0128,-3.987,-3.958,-3.9324,-3.9059,-3.8795,-3.8707,-3.8707,-3.8707,-3.8707,-3.8707,-3.8707,-3.8707,-3.8707,-3.8707,-3.8707,-3.8707,-3.8707,-3.8707,-3.8707,-3.8707,-3.8707,-3.8658,-3.8525,-3.851,-3.8446,-3.8322,-3.8289,-3.8256,-3.8207,-3.7502,-3.6977,-3.6977,-3.5584,-3.4431,-3.404,-3.3277,-3.2484,-3.175,-3.1389,-3.119,-3.119,-3.119,-3.119,-3.119,-3.119,-3.119,-3.119,-3.0463,-3.0089,-3.0108,-2.9347,-2.8993,-2.901,-2.8993,-2.9381,-2.5191,-2.5191,-2.5191,-2.5191,-2.5191,-2.5191,-2.5191,-2.5191,-2.5688,-2.7358,-2.7701,-2.8217,-2.9879,-3.0211,-3.0211,-3.0211,-3.0211,0.0,0.0,0.0,0.0,-3.5373,-3.6897,-3.8329,0.0,0.0,-4.0485,-4.0502,-4.0511,-4.0496,-4.0496,-4.0496,-4.0496,-4.0496,-4.0496,-4.0496,-4.0496,-4.0496,-4.0496,-4.0496,-4.0496,-4.0496,-4.0496,-4.0496,-4.0496,-4.0496,-4.0496,-4.0496,-4.0496,-4.0496,-4.0495,-4.0458,-4.0424,-4.0353,-4.0299,-4.0301,-4.0118,-3.9851,-3.958,-3.9324,-3.9059,-3.8795,-3.8707,-3.8707,-3.8707,-3.8707,-3.8707,-3.8707,-3.8707,-3.8707,-3.8707,-3.8707,-3.8707,-3.8707,-3.8707,-3.8707,-3.8707,-3.8707,-3.8692,-3.864,-3.8643,-3.8578,-3.8401,-3.8368,-3.8338,-3.8225,-3.7991,-3.7629,-3.7067,-3.656,-3.577,-3.454,-3.394,-3.3102,-3.182,-3.1601,-3.143,-3.121,-3.119,-3.119,-3.119,-3.119,-3.119,-3.119,-3.097,-3.0852,-3.0852,-3.0108,-2.9482,-2.8993,-2.8993,-2.9128,-2.5191,-2.5191,-2.5191,-2.5191,-2.5191,0.0,-2.5191,-2.5191,-2.5688,-2.7358,-2.7701,-2.8217,-2.9879,-3.0211,-3.0211,-3.0211,-3.0486,-3.1162,0.0,0.0,0.0,-3.5941,0.0,0.0,0.0,-4.0449,-4.0491,-4.0507,-4.05,-4.0496,-4.0496,-4.0496,-4.0496,-4.0496,-4.0496,-4.0496,-4.0496,-4.0496,-4.0496,-4.0496,-4.0496,-4.0496,-4.0496,-4.0496,-4.0496,-4.0496,-4.0496,-4.0496,0.0,-4.0496,-4.0503,-4.0502,-4.0449,-4.0379,-4.0307,-4.0309,-4.0068,-3.9728,-3.9563,-3.9259,-3.8921,-3.875,-3.8707,-3.8707,-3.8707,-3.8707,-3.8707,-3.8707,-3.8707,-3.8707,-3.8707,-3.8707,-3.8707,-3.8707,-3.8707,-3.8707,-3.8707,-3.8707,-3.8707,-3.8707,-3.8707,-3.8643,-3.8462,-3.8415,-3.8368,-3.8257,-3.8225,-3.8028,-3.752,-3.7194,-3.6506,-3.5204,-3.4564,-3.3636,-3.2249,-3.186,-3.1601,-3.1408,-3.1269,-3.119,-3.119,-3.119,-3.119,-3.119,-3.119,-3.119,-3.119,-3.0734,-3.0277,-2.9839,-2.9839,-2.9839,0.0,-2.5191,-2.5191,-2.5191,-2.5191,-2.5191,-2.5191,-2.5191,0.0,-2.7358,-2.7701,-2.8217,-2.9879,-3.0211,-3.0211,-3.0211,-3.0927,-3.1797,0.0,-3.3539,0.0,0.0,-3.8516,0.0,-4.0397,-4.051,-4.0507,-4.0489,-4.0496,-4.0496,-4.0496,-4.0496,-4.0496,-4.0496,-4.0496,-4.0496,-4.0496,-4.0496,-4.0496,-4.0496,-4.0496,-4.0496,-4.0496,-4.0496,-4.0496,0.0,-4.0496,-4.0496,-4.0496,-4.0496,-4.0511,-4.051,-4.0502,-4.0413,-4.0307,-4.0307,-3.996,-3.9514,-3.9514,-3.9156,-3.8707,-3.8707,-3.8707,-3.8707,-3.8707,-3.8707,-3.8707,-3.8707,-3.8707,-3.8707,-3.8707,-3.8707,-3.8707,-3.8707,-3.8707,-3.8707,-3.8707,-3.8707,-3.8707,-3.8707,-3.8707,-3.8658,-3.8525,-3.8446,-3.8385,-3.8323,-3.8241,-3.8209,-3.8209,-3.7557,-3.6777,-3.5967,-3.5186,-3.4212,-3.3037,-3.2214,-3.1732,-3.1695,-3.1389,-3.119,-3.119,-3.119,-3.119,-3.119,-3.119,-3.119,-3.119,-3.119,-3.119,-3.119,-3.119,-3.119,-2.5195,0.0,-2.5191,-2.5191,-2.5191,-2.5191,0.0,-2.5191,-2.5688,-2.7358,-2.7701,-2.8217,-2.9879,-3.0211,-3.0211,-3.0211,-3.0927,-3.1797,-3.2685,-3.4078,0.0,-3.7658,-3.8054,-3.8796,-4.0348,-4.0495,-4.05,-4.0496,-4.0496,-4.0496,-4.0496,-4.0496,-4.0496,-4.0496,-4.0496,-4.0496,-4.0496,-4.0496,-4.0496,-4.0496,-4.0496,-4.0496,-4.0496,-4.0496,-4.0496,-4.0496,-4.0496,-4.0496,-4.0496,-4.0496,-4.0508,-4.0492,-4.0499,-4.0449,-4.037,-4.0316,-3.996,-3.9514,-3.9514,-3.9156,-3.8707,-3.8707,-3.8707,-3.8707,-3.8707,-3.8707,-3.8707,-3.8707,-3.8707,-3.8707,-3.8707,-3.8707,-3.8707,-3.8707,-3.8707,-3.8707,-3.8707,-3.8707,-3.8707,-3.8707,-3.8707,-3.8658,-3.8525,-3.8446,-3.8385,-3.8323,-3.8241,-3.8209,-3.8209,-3.8028,-3.7611,-3.6814,-3.6001,-3.5139,-3.4246,-3.294,-3.2039,-3.1714,-3.1389,-3.119,-3.119,-3.119,-3.119,-3.119,-3.119,-3.119,-3.119,-3.119,-3.119,-3.119,-3.119,-3.119,-2.5206,-2.5201,-2.5208,-2.5208,-2.5208,-2.5208,-2.5191,-2.5191,-2.5669,-2.7344,-2.7695,-2.8198,-2.99,-3.0206,-3.0206,-3.0192,-3.128,0.0,0.0,0.0,-3.6431,-3.7736,-3.8247,-3.9019,0.0,-4.05,-4.0496,-4.0496,-4.0496,-4.0496,-4.0496,-4.0496,-4.0496,-4.0496,-4.0496,-4.0496,-4.0496,-4.0496,-4.0496,-4.0496,-4.0496,-4.0496,-4.0496,-4.0496,-4.0496,-4.0496,-4.0496,-4.0496,-4.0496,-4.0496,-4.0496,-4.0496,-4.0503,-4.0482,-4.0441,-4.037,-3.9991,-3.9501,-3.9495,-3.9156,-3.8707,-3.8707,-3.8707,-3.8707,-3.8707,-3.8707,-3.8707,-3.8707,-3.8707,-3.8707,-3.8707,-3.8707,-3.8707,-3.8707,-3.8707,-3.8707,-3.8707,-3.8707,-3.8707,-3.8707,-3.8707,-3.8673,-3.8609,-3.8512,-3.843,-3.8401,-3.8305,-3.8259,-3.8259,-3.8225,-3.7901,-3.7085,-3.6272,-3.546,-3.4663,-3.3343,-3.2435,-3.2231,-3.1878,-3.1618,-3.1447,-3.1428,-3.1351,-3.121,-3.119,-3.119,-3.119,-3.119,-3.119,-3.119,-3.119,-3.119,-2.5193,-2.5204,-2.5204,-2.5198,-2.5193,-2.5206,-2.5208,-2.5293,-2.5834,-2.7394,-2.7816,0.0,0.0,-3.0221,0.0,0.0,0.0,0.0,-3.5201,-3.6169,-3.6995,-3.7828,-3.8674,0.0,-4.0419,-4.0496,-4.0496,-4.0496,-4.0496,-4.0496,-4.0496,-4.0496,-4.0496,-4.0496,-4.0496,-4.0496,-4.0496,-4.0496,-4.0496,-4.0496,-4.0496,-4.0496,-4.0496,-4.0496,-4.0496,-4.0496,-4.0496,0.0,-4.0496,-4.0496,-4.0496,-4.0496,-4.0496,-4.0503,-4.0493,-4.0424,-4.0051,-3.9548,-3.9483,-3.9115,-3.8707,-3.8707,-3.8707,-3.8707,-3.8707,-3.8707,-3.8707,-3.8707,-3.8707,-3.8707,-3.8707,-3.8707,-3.8707,-3.8707,-3.8707,-3.8707,-3.8707,-3.8707,-3.8707,-3.8707,-3.8707,-3.8707,-3.8707,-3.8593,-3.851,-3.851,-3.8401,-3.8323,-3.8323,-3.8257,-3.7954,-3.7265,-3.6469,-3.5675,-3.486,-3.373,-3.3017,-3.291,-3.2519,-3.2144,-3.1805,-3.1787,-3.162,-3.1271,-3.1271,-3.1249,-3.119,-3.1249,-3.1271,-3.1271,-3.1271,-3.1271,-2.5201,-2.5241,-2.5271,-2.5212,-2.5209,-2.5198,-2.5195,-2.5773,-2.6584,0.0,0.0,0.0,0.0,-3.0279,-3.0529,0.0,0.0,-3.4274,0.0,0.0,-3.7012,-3.7885,0.0,-3.9604,-4.0419,-4.0496,-4.0496,-4.0496,-4.0496,-4.0496,-4.0496,-4.0496,-4.0496,-4.0496,-4.0496,-4.0496,-4.0496,-4.0496,-4.0496,-4.0496,-4.0496,-4.0496,-4.0496,-4.0496,-4.0496,-4.0496,0.0,-4.0496,-4.0496,-4.0496,-4.0496,-4.0496,-4.0496,-4.0503,-4.0493,-4.0424,-4.0158,-3.9765,-3.9318,-3.8964,-3.8707,-3.8707,-3.8707,-3.8707,-3.8707,-3.8707,-3.8707,-3.8707,-3.8707,-3.8707,-3.8707,-3.8707,-3.8707,-3.8707,-3.8707,-3.8707,-3.8707,-3.8707,-3.8707,-3.8707,-3.8707,-3.8707,-3.8707,-3.8593,-3.851,-3.851,-3.843,-3.8366,-3.8366,-3.8322,-3.8254,-3.8109,-3.7317,-3.649,-3.5677,-3.4832,-3.4024,-3.3355,-3.2685,-3.2283,-3.2214,-3.2214,-3.2021,-3.1638,-3.162,-3.1487,-3.119,-3.1487,-3.162,-3.162,-3.162,-3.162,-2.5206,-2.5252,-2.5292,-2.5253,-2.5252,-2.5236,-2.5212,-2.5872,-2.6759,-2.7612,0.0,0.0,0.0,0.0,-3.1444,-3.2788,0.0,-3.4428,-3.5359,-3.6596,-3.7546,0.0,0.0,-4.0092,-4.0458,-4.0496,-4.0496,-4.0496,-4.0496,-4.0496,-4.0496,-4.0496,-4.0496,-4.0496,-4.0496,-4.0496,-4.0496,-4.0496,-4.0496,-4.0496,-4.0496,-4.0496,-4.0496,-4.0496,-4.0496,-4.0496,0.0,-4.0496,-4.0496,-4.0496,-4.0496,-4.0496,-4.0496,-4.05,-4.046,-4.0251,-3.9972,-3.963,-3.924,-3.8921,-3.8707,-3.8707,-3.8707,-3.8707,-3.8707,-3.8707,-3.8707,-3.8707,-3.8707,-3.8707,-3.8707,-3.8707,-3.8707,-3.8707,-3.8707,-3.8707,-3.8707,-3.8707,-3.8707,-3.8707,-3.8707,-3.8707,-3.8707,-3.8658,-3.8609,-3.8609,-3.8528,-3.8462,-3.8462,-3.8401,-3.8352,-3.8352,-3.7594,-3.678,-3.5934,-3.5118,-3.4304,-3.3447,-3.2878,-3.2568,-3.2568,-3.2402,-3.2196,-3.2039,-3.2003,-3.195,-3.1786,-3.195,-3.2003,-3.2003,-3.2003,-3.2003,-2.5206,-2.5257,-2.5302,-2.5303,-2.5307,-2.5287,-2.5233,-2.6033,-2.7004,-2.7684,0.0,0.0,0.0,-3.1495,0.0,-3.3987,-3.4333,-3.4684,-3.5404,-3.6949,-3.8007,-3.8007,-3.9477,-4.0496,-4.0496,-4.0496,-4.0496,-4.0496,-4.0496,-4.0496,-4.0496,-4.0496,-4.0496,-4.0496,-4.0496,-4.0496,-4.0496,-4.0496,-4.0496,-4.0496,-4.0496,-4.0496,-4.0496,-4.0496,-4.0496,-4.0496,-4.0496,-4.0496,-4.0496,-4.0496,-4.0496,-4.0496,-4.0496,-4.0508,-4.0476,-4.0204,-3.9901,-3.9571,-3.9364,-3.911,-3.8896,-3.8896,-3.8837,-3.8777,-3.8777,-3.875,-3.8707,-3.8707,-3.8707,-3.8707,-3.8707,-3.8707,-3.8707,-3.8707,-3.8707,-3.8707,-3.8707,-3.8707,-3.8707,-3.8707,-3.8707,-3.8707,-3.8707,-3.8707,-3.8707,-3.8707,-3.8609,-3.8559,-3.8559,-3.8462,-3.8415,-3.8415,-3.787,-3.7057,-3.5978,-3.516,-3.4331,-3.3447,-3.3114,-3.2939,-3.2939,-3.2684,-3.2503,-3.2436,-3.2436,-3.2385,-3.23,-3.2385,-3.2436,-3.2436,-3.2436,-3.2436,-2.5217,-2.5248,-2.5303,-2.5308,-2.5307,-2.5297,-2.5298,-2.6537,-2.7742,-2.7865,-2.9173,0.0,0.0,-3.2929,-3.4045,-3.4186,-3.4865,-3.5423,-3.5481,0.0,-3.8007,-3.8007,-3.9477,-4.0496,-4.0496,-4.0496,-4.0496,-4.0496,-4.0496,-4.0496,-4.0496,-4.0496,-4.0496,-4.0496,-4.0496,-4.0496,-4.0496,-4.0496,-4.0496,-4.0496,-4.0496,-4.0496,-4.0496,-4.0496,-4.0496,-4.0496,-4.0496,-4.0496,-4.0496,-4.0496,-4.0496,-4.0496,-4.0496,-4.0511,-4.051,-4.0466,-4.0205,-3.987,-3.9848,-3.9667,-3.9433,-3.9433,-3.9272,-3.9073,-3.9073,-3.891,-3.8707,-3.8707,-3.8707,-3.8707,-3.8707,-3.8707,-3.8707,-3.8707,-3.8707,-3.8707,-3.8707,-3.8707,-3.8707,-3.8707,-3.8707,-3.8707,-3.8707,-3.8707,-3.8707,-3.8707,-3.8692,-3.8692,-3.8692,-3.8575,-3.8476,-3.8476,-3.8376,-3.7674,-3.6033,-3.516,-3.4331,-3.3447,-3.3364,-3.3364,-3.3364,-3.3334,-3.3147,-3.2763,-3.2763,-3.2601,-3.23,-3.2617,-3.2763,-3.2763,-3.2763,-3.2763,-2.5276,-2.5283,-2.5308,-2.5308,-2.5298,-2.5293,-2.5303,-2.6629,-2.7865,-2.789,-2.966,-3.1641,0.0,0.0,-3.4379,-3.493,-3.5269,-3.55,-3.55,-3.6949,-3.8007,-3.8007,-3.9477,-4.0496,-4.0496,-4.0496,-4.0496,-4.0496,-4.0496,-4.0496,-4.0496,-4.0496,-4.0496,-4.0496,-4.0496,-4.0496,-4.0496,-4.0496,-4.0496,-4.0496,-4.0496,-4.0496,-4.0496,-4.0496,-4.0496,-4.0496,-4.0496,-4.0496,-4.0496,-4.0496,-4.0496,-4.0496,-4.0496,-4.0508,-4.0503,-4.0491,-4.027,-3.9972,-3.9912,-3.9724,-3.9458,-3.9311,-3.9178,-3.9101,-3.9101,-3.9017,-3.895,-3.895,-3.895,-3.8906,-3.8735,-3.8707,-3.8707,-3.8707,-3.8707,-3.8707,-3.8707,-3.8707,-3.8707,-3.8707,-3.8707,-3.8707,-3.8707,-3.8707,-3.8707,-3.8707,-3.8707,-3.8707,-3.8707,-3.8658,-3.8624,-3.8624,-3.8123,-3.7296,-3.6073,-3.519,-3.4331,-3.3447,-3.3393,-3.3393,-3.3393,-3.3393,-3.3334,-3.3178,-3.3178,-3.3117,-3.2975,-3.3117,-3.3178,-3.3178,-3.3178,-3.3178,-2.5292,-2.5307,-2.5308,-2.5308,-2.5308,-2.5365,-2.5654,-2.6851,-2.7972,-2.8222,-3.0314,-3.2506,-3.3936,0.0,0.0,0.0,-3.55,-3.55,-3.55,-3.6949,-3.8007,-3.8007,-3.9477,-4.0496,-4.0496,-4.0496,-4.0496,-4.0496,-4.0496,-4.0496,-4.0496,-4.0496,-4.0496,-4.0496,-4.0496,-4.0496,-4.0496,-4.0496,-4.0496,-4.0496,-4.0496,-4.0496,-4.0496,-4.0496,-4.0496,-4.0496,-4.0496,-4.0496,-4.0496,-4.0496,-4.0496,-4.0496,-4.0496,-4.0496,-4.0489,-4.0495,-4.0341,-4.0139,-4.0081,-3.991,-3.9721,-3.9551,-3.9427,-3.935,-3.935,-3.9232,-3.9101,-3.9101,-3.9101,-3.9059,-3.8881,-3.8765,-3.8707,-3.8707,-3.8707,-3.8707,-3.8707,-3.8707,-3.8707,-3.8707,-3.8707,-3.8707,-3.8707,-3.8707,-3.8707,-3.8707,-3.8707,-3.8707,-3.8707,-3.8707,-3.8707,-3.8707,-3.8166,-3.7427,-3.6465,-3.5602,-3.4727,-3.3828,-3.3538,-3.3393,-3.3393,-3.3393,-3.3393,-3.3393,-3.3393,-3.3393,-3.3393,-3.3408,-3.3422,-3.3422,-3.3422,-3.3437,-2.5297,-2.5307,-2.5308,-2.5308,-2.5308,-2.5538,-2.6409,-2.7294,-2.8145,-2.8973,-3.1166,-3.3186,-3.4052,-3.4911,0.0,-3.55,-3.55,-3.55,-3.55,-3.6949,-3.7988,-3.8007,-3.9477,-4.0496,-4.0496,-4.0496,-4.0496,-4.0496,-4.0496,-4.0496,-4.0496,-4.0496,-4.0496,-4.0496,-4.0496,-4.0496,-4.0496,-4.0496,-4.0496,-4.0496,-4.0496,-4.0496,-4.0496,-4.0496,-4.0496,-4.0496,-4.0496,-4.0496,-4.0496,-4.0496,-4.0496,-4.0496,-4.0496,-4.0496,-4.0496,-4.0496,-4.0503,-4.0493,-4.0424,-4.0362,-4.0298,-4.0301,-4.0108,-3.9903,-3.9903,-3.9539,-3.9115,-3.9115,-3.9115,-3.9115,-3.9115,-3.891,-3.8707,-3.8707,-3.8707,-3.8707,-3.8707,-3.8707,-3.8707,-3.8707,-3.8707,-3.8707,-3.8707,-3.8707,-3.8707,-3.8707,-3.8707,-3.8707,-3.8707,-3.8707,-3.8707,-3.8707,-3.8707,-3.8282,-3.7286,-3.6468,-3.5606,-3.4661,-3.3864,-3.3411,-3.3393,-3.3393,-3.3393,-3.3393,-3.3393,-3.3393,-3.3393,-3.3466,-3.3509,-3.3509,-3.3509,-3.3534,-2.5298,-2.5303,-2.5303,-2.5357,-2.537,-2.5777,-2.7307,-2.8227,-2.952,0.0,-3.3427,-3.427,-3.5032,-3.5402,0.0,-3.552,-3.55,-3.55,-3.55,-3.6423,-3.7315,-3.793,-3.8969,-3.9881,-4.0458,-4.0496,-4.0496,-4.0496,-4.0496,-4.0496,-4.0496,-4.0496,-4.0496,-4.0496,-4.0496,-4.0496,-4.0496,-4.0496,-4.0496,-4.0496,-4.0496,-4.0496,-4.0496,-4.0496,-4.0496,-4.0496,-4.0496,-4.0496,-4.0496,-4.0496,-4.0496,-4.0496,-4.0496,-4.0496,-4.0496,-4.0496,-4.0503,-4.0493,-4.0424,-4.0362,-4.028,-4.0089,-3.9956,-3.9903,-3.9903,-3.9785,-3.967,-3.967,-3.967,-3.9623,-3.9439,-3.9324,-3.9259,-3.9259,-3.9259,-3.9259,-3.9259,-3.9259,-3.9259,-3.9259,-3.9259,-3.9259,-3.9259,-3.9259,-3.9192,-3.9021,-3.8979,-3.8906,-3.8719,-3.8707,-3.8707,-3.8707,-3.8707,-3.8331,-3.7415,-3.7122,-3.6583,-3.5642,-3.5369,-3.4673,-3.3447,-3.3393,-3.3393,-3.3393,-3.3452,-3.3466,-3.3466,-3.3534,-3.3577,-3.3577,-3.3577,-3.3577,-2.5308,-2.5308,-2.5313,-2.5386,-2.5666,-2.6564,-2.9045,-2.9919,0.0,0.0,-3.4434,-3.4722,-3.549,-3.5631,0.0,-3.5553,-3.5547,-3.5547,-3.5547,-3.6214,-3.6913,-3.7488,-3.8582,-3.9496,-3.9977,-4.0304,-4.0496,-4.0496,-4.0496,-4.0496,-4.0496,-4.0496,-4.0496,-4.0496,-4.0496,-4.0496,-4.0496,-4.0496,-4.0496,-4.0496,-4.0496,-4.0496,-4.0496,-4.0496,-4.0496,-4.0496,-4.0496,-4.0496,-4.0496,-4.0496,-4.0496,-4.0496,-4.0496,-4.0496,-4.0496,-4.0496,-4.05,-4.0487,-4.0458,-4.0407,-4.0307,-4.0119,-4.0068,-4.0067,-4.0067,-3.9967,-3.9903,-3.9903,-3.9903,-3.9851,-3.9705,-3.9728,-3.9751,-3.9563,-3.9514,-3.9514,-3.9514,-3.9514,-3.9514,-3.9514,-3.9514,-3.9514,-3.9514,-3.9414,-3.9285,-3.911,-3.9021,-3.8881,-3.8723,-3.8707,-3.8707,-3.8707,-3.8707,-3.8475,-3.7885,-3.7555,-3.7141,-3.652,-3.6176,-3.553,-3.4476,-3.4131,-3.3822,-3.3481,-3.352,-3.3534,-3.3534,-3.3619,-3.3629,-3.3629,-3.3629,-3.3643,-2.5308,-2.5308,-2.5313,-2.5398,-2.6122,-2.7732,-3.1132,-3.1978,-3.2522,-3.4268,0.0,-3.4855,-3.5578,-3.5729,-3.5681,-3.562,-3.5604,-3.5604,-3.5604,-3.6196,-3.6685,-3.6891,-3.8182,-3.9107,-3.9188,-3.9842,-4.0265,-4.0265,-4.0265,-4.0265,-4.0265,-4.0265,-4.0265,-4.0265,-4.0265,-4.0304,-4.04,-4.04,-4.0439,-4.0496,-4.0496,-4.0496,-4.0496,-4.0496,-4.0496,-4.0496,-4.0496,-4.0496,-4.0496,-4.0496,-4.0496,-4.0496,-4.0496,-4.0496,-4.0496,-4.0496,-4.0496,-4.0508,-4.0499,-4.0449,-4.0407,-4.0325,-4.029,-4.0291,-4.0301,-4.0118,-3.9935,-3.9935,-3.9935,-3.9935,-3.9935,-4.0108,-4.0176,-3.9682,-3.9556,-3.9556,-3.9556,-3.9556,-3.9556,-3.9556,-3.9556,-3.9556,-3.9556,-3.9376,-3.9192,-3.9137,-3.8896,-3.8707,-3.8707,-3.8707,-3.8707,-3.8707,-3.8707,-3.8658,-3.8525,-3.79,-3.7467,-3.7341,-3.6647,-3.6206,-3.6133,-3.5349,-3.4568,-3.3824,-3.382,-3.3838,-3.3838,-3.389,-3.395,-3.3932,-3.3858,-3.3849,-2.5308,-2.5308,-2.5331,-2.545,-2.6724,-2.8688,-3.1425,-3.2597,-3.3561,-3.5257,-3.5634,-3.5706,-3.5839,-3.5869,-3.5827,-3.5704,-3.5687,-3.5687,-3.5687,-3.5824,-3.6154,-3.6812,-3.7203,-3.7649,-3.8214,-3.843,-3.8546,-3.8546,-3.8546,-3.8546,-3.8546,-3.8546,-3.8546,-3.8546,-3.8546,-3.8873,-3.9554,-3.9554,-3.9881,-4.0496,-4.0496,-4.0496,-4.0496,-4.0496,-4.0496,-4.0496,-4.0496,-4.0496,-4.0496,-4.0496,-4.0496,-4.0496,-4.0496,-4.0496,-4.0496,-4.0496,-4.0496,-4.0508,-4.0499,-4.0493,-4.0458,-4.0334,-4.0298,-4.0299,-4.0301,-4.0253,-4.0206,-4.0206,-4.0206,-4.0206,-4.0206,-4.0253,-4.0263,-4.0157,-4.0137,-4.0137,-4.0137,-4.0137,-4.0137,-4.0137,-4.0137,-4.0137,-4.0137,-4.0077,-3.9911,-3.9489,-3.9007,-3.8707,-3.8707,-3.8707,-3.8707,-3.8707,-3.8707,-3.8692,-3.8658,-3.8511,-3.842,-3.837,-3.8206,-3.7836,-3.7209,-3.6251,-3.5647,-3.5483,-3.5542,-3.5553,-3.5553,-3.5677,-3.5738,-3.5705,-3.5045,-3.4734,-2.5345,-2.5359,-2.5579,-2.6551,0.0,-2.9591,-3.2148,-3.3064,-3.388,-3.5598,-3.598,-3.5988,-3.5949,-3.5945,-3.5909,-3.5807,-3.5797,-3.5797,-3.5797,-3.5745,-3.5872,-3.6354,-3.6736,-3.7107,-3.7472,-3.791,-3.8142,-3.8142,-3.808,-3.8047,-3.8047,-3.8024,-3.8007,-3.8007,-3.8007,-3.8219,-3.8661,-3.8681,-3.8892,-3.9296,-3.9296,-3.9296,-3.9335,-4.0131,-4.0496,-4.0496,-4.0496,-4.0496,-4.0496,-4.0496,-4.0496,-4.0496,-4.0496,-4.0496,-4.0496,-4.0496,-4.0496,-4.0489,-4.0503,-4.0499,-4.0493,-4.0432,-4.0342,-4.0298,-4.029,-4.0301,-4.0301,-4.0301,-4.0301,-4.0301,-4.0301,-4.0301,-4.0301,-4.0301,-4.0301,-4.0301,-4.0301,-4.0301,-4.0301,-4.0301,-4.0301,-4.0301,-4.0301,-4.0186,-3.9975,-3.9563,-3.9259,-3.9031,-3.8925,-3.8896,-3.8837,-3.8704,-3.8707,-3.8707,-3.8707,-3.8707,-3.8707,-3.8707,-3.8707,-3.8505,-3.8083,-3.7567,-3.6936,-3.6168,-3.6194,-3.6208,-3.6208,-3.627,-3.6303,-3.6285,-3.5844,-3.5389,-2.5365,-2.5507,-2.6093,-2.7963,-2.9026,0.0,-3.2636,-3.3299,-3.3845,-3.5446,-3.5895,-3.5992,-3.5992,-3.5992,-3.5983,-3.5929,-3.5924,-3.5924,-3.5924,-3.582,-3.5797,-3.5883,-3.6439,-3.6798,-3.6781,-3.7437,-3.784,-3.784,-3.7746,-3.7678,-3.7678,-3.7596,-3.7565,-3.7565,-3.7565,-3.7642,-3.7777,-3.7777,-3.7853,-3.8007,-3.8007,-3.8007,-3.8046,-3.9438,-4.015,-4.0304,-4.0439,-4.0496,-4.0496,-4.0496,-4.0496,-4.0496,-4.0496,-4.0496,-4.0496,-4.0496,-4.0496,-4.0496,-4.0496,-4.0511,-4.0491,-4.0502,-4.0413,-4.0325,-4.0316,-4.0299,-4.0301,-4.031,-4.0301,-4.0301,-4.0301,-4.0301,-4.0301,-4.0301,-4.0301,-4.0301,-4.0301,-4.0301,-4.0301,-4.0301,-4.0301,-4.0301,-4.0301,-4.0077,-3.9818,-3.9592,-3.9539,-3.9427,-3.9192,-3.9183,-3.9087,-3.8866,-3.881,-3.8765,-3.8765,-3.8738,-3.8707,-3.8707,-3.8707,-3.8707,-3.8707,-3.8707,-3.8083,-3.6743,-3.6707,-3.6707,-3.6707,-3.6707,-3.6707,-3.6707,-3.656,-3.6119,-2.5303,0.0,-2.7057,0.0,-2.9457,-3.0061,0.0,0.0,-3.3689,0.0,-3.5465,-3.5992,-3.5992,-3.5992,-3.5991,-3.5986,-3.5986,-3.5986,-3.5986,-3.5962,-3.5949,-3.5894,-3.5997,-3.6009,-3.5877,-3.5985,-3.6043,-3.6043,-3.5974,-3.5936,-3.5936,-3.5869,-3.5827,-3.5827,-3.5827,-3.6173,-3.6865,-3.6865,-3.7257,-3.8007,-3.8007,-3.8007,-3.8007,-3.8238,-3.8738,-3.9496,-4.0208,-4.0496,-4.0496,-4.0496,-4.0496,-4.0496,-4.0496,-4.0496,-4.0496,-4.0496,-4.0496,-4.0496,-4.0496,-4.0489,-4.05,-4.0499,-4.0493,-4.0449,-4.0334,-4.0298,-4.0308,-4.0301,-4.0301,-4.0301,-4.0301,-4.0301,-4.0301,-4.0301,-4.0301,-4.0301,-4.0301,-4.0301,-4.0301,-4.0301,-4.0301,-4.0301,-4.0301,-4.0077,-3.9892,-3.984,-3.9658,-3.9489,-3.9446,-3.9452,-3.9421,-3.9401,-3.9197,-3.9045,-3.9045,-3.8837,-3.8707,-3.8707,-3.8707,-3.8707,-3.8707,-3.8707,-3.8597,-3.8377,-3.8377,-3.8377,-3.8377,-3.8377,-3.8377,-3.8358,-3.7658,-3.729,-2.599,-2.7184,-2.8469,0.0,-2.9916,-3.0587,-3.1818,-3.2773,-3.365,-3.451,-3.5389,-3.5992,-3.5992,-3.5992,-3.5992,-3.5992,-3.5992,-3.5992,-3.5992,-3.5992,-3.5988,-3.5953,-3.5968,-3.5923,-3.588,-3.5877,-3.5877,-3.5877,-3.582,-3.5776,-3.5776,-3.5629,-3.5565,-3.5565,-3.5521,-3.5673,-3.6019,-3.6038,-3.6212,-3.6596,-3.6596,-3.6596,-3.6615,-3.7065,-3.7757,-3.8584,-3.895,-3.9104,-3.9142,-3.9631,-3.9823,-3.9881,-4.0323,-4.0496,-4.0496,-4.0496,-4.0496,-4.0496,-4.0496,-4.0496,-4.0489,-4.0492,-4.0463,-4.0432,-4.037,-4.0326,-4.03,-4.0291,-4.0301,-4.0301,-4.0301,-4.0301,-4.0301,-4.0301,-4.0301,-4.0301,-4.0301,-4.0301,-4.0301,-4.0301,-4.0301,-4.0301,-4.0301,-4.0196,-4.0118,-4.0118,-4.0017,-3.9892,-3.9739,-3.9728,-3.967,-3.9526,-3.9383,-3.9324,-3.9324,-3.9219,-3.9087,-3.8935,-3.8921,-3.8851,-3.8707,-3.8707,-3.8707,-3.8707,-3.8707,-3.8707,-3.8707,-3.8707,-3.8707,-3.8689,-3.834,-3.7679,-2.6864,0.0,-2.9492,-2.9819,-3.0353,-3.0976,0.0,0.0,-3.3319,0.0,-3.5057,-3.5738,-3.5953,-3.5992,-3.5992,-3.5992,-3.5992,-3.5992,-3.5992,-3.5992,-3.5992,-3.5992,-3.5992,-3.5992,-3.5992,-3.5992,-3.5992,-3.5992,-3.5938,-3.5908,-3.5908,-3.5702,-3.5607,-3.5607,-3.5541,-3.55,-3.55,-3.55,-3.55,-3.55,-3.55,-3.55,-3.5519,-3.6115,-3.675,-3.7392,-3.7815,-3.8007,-3.8046,-3.87,-3.8977,-3.9034,-3.9631,-3.9996,-4.0208,-4.0208,-4.0323,-4.0496,-4.0496,-4.0496,-4.0496,-4.05,-4.0471,-4.0424,-4.0379,-4.0345,-4.0301,-4.031,-4.0301,-4.0301,-4.0301,-4.0301,-4.0301,-4.0301,-4.0301,-4.0301,-4.0301,-4.0301,-4.0301,-4.0301,-4.0301,-4.0301,-4.0301,-4.0301,-4.0301,-4.0301,-4.0301,-4.0234,-4.0027,-4.0007,-3.9943,-3.9717,-3.9647,-3.9592,-3.9592,-3.9551,-3.9408,-3.9205,-3.9192,-3.9115,-3.8906,-3.8892,-3.8892,-3.8892,-3.8837,-3.8765,-3.8707,-3.8707,-3.8707,-3.8707,-3.8707,-3.7955,0.0,-2.8751,0.0,-3.0522,-3.0761,-3.08,0.0,0.0,-3.2402,-3.3299,-3.4159,-3.5018,-3.5856,-3.5992,-3.5992,-3.5992,-3.5992,-3.5992,-3.5992,-3.5992,-3.5992,-3.5992,-3.5992,-3.5992,-3.5992,-3.5992,-3.5992,-3.5992,-3.5938,-3.5908,-3.5908,-3.5702,-3.5607,-3.5607,-3.5541,-3.55,-3.55,-3.55,-3.55,-3.55,-3.55,-3.55,-3.55,-3.5538,-3.5596,-3.5712,-3.7315,-3.8007,-3.8007,-3.8046,-3.8065,-3.8065,-3.8104,-3.8623,-3.9361,-3.9361,-3.9842,-4.0496,-4.0496,-4.0496,-4.0508,-4.0499,-4.0502,-4.0466,-4.0334,-4.0307,-4.0289,-4.0301,-4.0301,-4.0301,-4.0301,-4.0301,-4.0301,-4.0301,-4.0301,-4.0301,-4.0301,-4.0301,-4.0301,-4.0301,-4.0301,-4.0301,-4.0301,-4.0301,-4.0301,-4.0301,-4.0301,-4.0282,-4.0272,-4.0291,-4.0263,-4.0253,-4.0027,-3.9881,-3.9881,-3.9647,-3.9483,-3.9489,-3.9489,-3.9458,-3.9464,-3.9464,-3.9464,-3.9464,-3.9205,-3.895,-3.8707,-3.8707,-3.8707,-3.8707,-3.8707,-3.8248,0.0,0.0,0.0,-3.0717,-3.08,-3.08,-3.08,-3.1465,-3.2187,-3.25,-3.3261,-3.4139,-3.4998,-3.5621,-3.5992,-3.5992,-3.5992,-3.5992,-3.5992,-3.5992,-3.5992,-3.5992,-3.5992,-3.5992,-3.5992,-3.5992,-3.5992,-3.5992,-3.5981,-3.5955,-3.5955,-3.5869,-3.5753,-3.5669,-3.5602,-3.5534,-3.55,-3.55,-3.55,-3.55,-3.55,-3.55,-3.55,-3.55,-3.55,-3.5538,-3.6135,-3.6404,-3.6442,-3.6949,-3.718,-3.7219,-3.7777,-3.818,-3.8469,-3.8469,-3.8988,-3.9727,-3.9727,-4.0073,-4.0496,-4.0492,-4.0507,-4.0474,-4.0388,-4.0325,-4.0298,-4.0301,-4.0301,-4.0301,-4.0301,-4.0301,-4.0301,-4.0301,-4.0301,-4.0301,-4.0301,-4.0301,-4.0301,-4.0301,-4.0301,-4.0301,-4.0301,-4.0301,-4.0301,-4.0301,-4.0301,-4.0301,-4.0301,-4.0301,-4.0301,-4.0301,-4.0206,-4.0157,-4.0157,-4.0067,-3.9943,-3.9762,-3.9751,-3.9682,-3.9514,-3.9514,-3.9514,-3.9514,-3.9414,-3.9219,-3.8964,-3.878,-3.8707,-3.8689,-3.8175,-3.7511,-2.9481,0.0,0.0,-3.0796,-3.08,-3.08,-3.08,-3.125,-3.1758,-3.2032,-3.2558,-3.3222,-3.41,-3.4743,-3.5329,-3.5895,-3.5992,-3.5992,-3.5992,-3.5992,-3.5992,-3.5992,-3.5992,-3.5992,-3.5992,-3.5992,-3.5992,-3.5992,-3.5992,0.0,-3.5992,-3.5936,-3.583,-3.5674,-3.5607,-3.556,-3.55,-3.55,-3.55,-3.55,-3.55,-3.55,-3.55,-3.55,-3.55,-3.55,-3.55,-3.55,-3.5538,-3.6077,-3.6308,-3.6346,-3.693,-3.7334,-3.7565,-3.7565,-3.8123,-3.8854,-3.8854,-3.9419,-4.0085,-4.0069,-4.0257,-4.0493,-4.0424,-4.0362,-4.0298,-4.03,-4.0301,-4.0301,-4.0301,-4.0301,-4.0301,-4.0301,-4.0301,-4.0301,-4.0301,-4.0301,-4.0301,-4.0301,-4.0301,-4.0301,-4.0301,-4.0301,-4.0301,-4.0301,-4.0301,-4.0301,-4.0301,-4.0301,-4.0301,-4.0301,-4.0301,-4.0301,-4.0301,-4.0301,-4.0215,-4.0057,-4.0027,-3.9946,-3.9781,-3.9781,-3.9781,-3.9781,-3.9682,-3.9551,-3.9376,-3.9101,-3.8792,-3.8416,-3.7878,-3.6992,0.0,0.0,0.0,-3.08,-3.08,-3.08,-3.08,-3.08,-3.1036,-3.1895,-3.2052,-3.2324,-3.3201,-3.3357,-3.3923,-3.5641,-3.5934,-3.5973,-3.5992,-3.5992,-3.5992,-3.5992,-3.5992,-3.5992,-3.5992,-3.5992,-3.5992,-3.5992,-3.5992,-3.5992,-3.5992,-3.5936,-3.581,-3.5599,-3.5541,-3.5507,-3.55,-3.55,-3.55,-3.55,-3.55,-3.55,-3.55,-3.55,-3.55,-3.55,-3.55,-3.55,-3.55,-3.55,-3.55,-3.55,-3.55,-3.5981,-3.6654,-3.6654,-3.7219,-3.7969,-3.7969,-3.8527,-3.9258,-3.9184,-3.9753,-4.0455,-4.0386,-4.0342,-4.0307,-4.0307,-4.0309,-4.0301,-4.0301,-4.0301,-4.0301,-4.0301,-4.0301,-4.0301,-4.0301,-4.0301,-4.0301,-4.0301,-4.0301,-4.0301,-4.0301,-4.0301,-4.0301,-4.0301,-4.0301,-4.0301,-4.0301,-4.0301,-4.0301,-4.0301,-4.0301,-4.0301,-4.0301,-4.0301,-4.0301,-4.0301,-4.0301,-4.0301,-4.0301,-4.0301,-4.0301,-4.0301,-4.0038,-3.9895,-3.9876,-3.9597,-3.8927,-3.7907,-3.7851,-3.6813,-3.044,0.0,0.0,0.0,0.0,0.0,-3.08,-3.08,-3.0878,-3.1114,-3.1153,-3.1426,-3.2304,-3.2461,-3.2812,-3.3943,-3.4647,-3.5271,-3.5914,-3.5992,-3.5992,-3.5992,-3.5992,-3.5992,-3.5992,-3.5992,-3.5992,0.0,-3.5992,-3.5992,-3.5992,-3.5936,-3.583,-3.5683,-3.5618,-3.5547,-3.55,-3.55,-3.55,-3.55,-3.55,-3.55,-3.55,-3.55,-3.55,-3.55,-3.55,-3.55,-3.55,-3.55,-3.55,-3.55,-3.55,-3.5635,-3.5827,-3.5827,-3.6346,-3.7065,-3.7065,-3.7623,-3.8354,-3.8339,-3.8916,-3.9619,-3.9553,-3.995,-4.0441,-4.0379,-4.0335,-4.0299,-4.0291,-4.0301,-4.0301,-4.0301,-4.0301,-4.0301,-4.0301,-4.0301,-4.0301,-4.0301,-4.0301,-4.0301,-4.0301,-4.0301,-4.0301,-4.0301,-4.0301,-4.0301,-4.0301,-4.0301,-4.0301,-4.0301,-4.0301,-4.0301,-4.0301,-4.0301,-4.0301,-4.0301,-4.0301,-4.0301,-4.0301,-4.0301,-4.0301,-4.0301,-4.0234,-3.9881,-3.9252,-3.8792,-3.8402,-3.8097,-3.6868,-3.571,0.0,0.0,0.0,-3.08,0.0,0.0,-3.08,-3.08,-3.08,-3.08,-3.08,-3.0956,-3.1465,-3.1563,-3.1836,-3.2714,-3.328,-3.3925,-3.4782,-3.4919,-3.4919,-3.4919,-3.4919,-3.4919,-3.4919,-3.4919,-3.4919,-3.4919,-3.4919,-3.5075,-3.5446,-3.5743,-3.584,-3.5698,-3.5626,-3.5564,-3.55,-3.55,-3.55,-3.55,-3.5501,-3.5309,-3.4968,-3.5328,-3.5309,-3.4988,-3.5346,-3.55,-3.55,-3.55,-3.55,-3.55,-3.55,-3.55,-3.55,-3.55,-3.5808,-3.6192,-3.6192,-3.675,-3.7469,-3.7469,-3.8046,-3.8815,-3.9131,-3.9576,-4.0033,-4.0353,-4.0388,-4.0344,-4.0309,-4.03,-4.0291,-4.031,-4.0301,-4.0301,-4.0301,-4.0301,-4.0301,-4.0301,-4.0301,-4.0301,-4.0301,-4.0301,-4.0301,-4.0301,-4.0301,-4.0301,-4.0301,-4.0301,-4.0301,-4.0301,-4.0301,-4.0301,-4.0301,-4.0301,-4.0301,-4.0301,-4.0301,-4.0301,-4.0301,-4.0301,-4.0301,-4.0301,-3.9938,-3.9155,-3.7952,-3.8343,-3.8107,-3.7291,-3.5855,-3.4947,0.0,0.0,0.0,-3.08,-3.08,0.0,-3.08,-3.08,-3.08,-3.08,-3.08,-3.08,-3.08,-3.08,-3.1055,-3.1836,-3.1953,-3.2285,-3.326,-3.3396,-3.3396,-3.3396,-3.3396,-3.3396,-3.3396,-3.3396,-3.3396,-3.3396,-3.3396,-3.3748,-3.451,-3.5221,-3.5615,-3.5578,-3.5514,-3.5502,-3.5508,-3.5508,-3.5501,-3.5507,-3.5515,-3.5111,-3.4372,-3.5053,-3.4989,-3.4385,-3.5064,-3.5404,-3.55,-3.55,-3.55,-3.55,-3.55,-3.55,-3.55,-3.55,-3.55,-3.55,-3.55,-3.5962,-3.6577,-3.6577,-3.7161,-3.8027,-3.8892,-3.9177,-3.9388,-4.0252,-4.0449,-4.0407,-4.0325,-4.0316,-4.0298,-4.031,-4.0301,-4.0301,-4.0301,-4.032,-4.0291,-4.0291,-4.031,-4.0301,-4.0301,-4.0301,-4.0301,-4.0301,-4.0301,-4.0301,-4.0301,-4.0301,-4.0301,-4.0301,-4.0301,-4.0301,-4.0301,-4.0301,-4.0301,-4.0301,-4.0301,-4.0301,-4.0301,-4.0301,-4.0244,-4.0148,-3.9221,-3.799,-3.65,-3.799,-3.7775,-3.5979,-3.5015,-3.4582,0.0,0.0,0.0,0.0,-3.08,0.0,-3.08,-3.08,-3.08,-3.08,-3.08,-3.08,-3.08,-3.08,-3.0859,-3.1036,-3.1055,-3.1601,-3.3182,-3.3396,-3.3396,-3.3396,-3.3396,-3.3396,-3.3396,-3.3396,-3.3396,-3.3396,-3.3396,-3.3474,-3.363,-3.38,-3.4168,-3.4795,-3.4802,-3.5057,-3.5574,-3.5577,-3.5556,-3.5496,-3.5554,-3.5489,-3.5309,-3.4725,-3.4732,-3.5226,-3.4674,-3.4853,-3.55,-3.55,-3.55,-3.55,-3.55,-3.55,-3.55,-3.55,-3.55,-3.55,-3.55,-3.5596,-3.5731,-3.5731,-3.6288,-3.7123,-3.7988,-3.8731,-3.9454,-4.026,-4.0493,-4.0477,-4.0407,-4.0379,-4.037,-4.0381,-4.0381,-4.0381,-4.0381,-4.0335,-4.0289,-4.0289,-4.0291,-4.0301,-4.0301,-4.0301,-4.0301,-4.0301,-4.0301,-4.0301,-4.0301,-4.0301,-4.0301,-4.0301,-4.0301,-4.0301,-4.0301,-4.0301,-4.0301,-4.0301,-4.0301,-4.0301,-4.0301,-4.0301,-3.9957,-3.9279,-3.7761,-3.6825,-3.65,-3.6825,-3.6426,-3.5361,-3.5155,-3.5062,0.0,0.0,0.0,-3.08,-3.08,0.0,0.0,-3.08,-3.08,-3.08,-3.08,-3.08,-3.08,-3.08,-3.08,-3.08,-3.08,-3.1113,-3.1971,-3.2108,-3.2108,-3.2108,-3.2108,-3.2108,-3.2108,-3.2108,-3.2108,-3.2108,-3.2519,-3.2753,-3.2753,-3.3162,-3.3576,-3.3938,-3.4372,-3.4721,-3.5005,-3.5408,-3.5581,-3.5546,-3.5575,-3.5353,-3.4898,-3.4898,-3.4648,-3.4231,-3.4667,-3.4853,-3.4891,-3.5327,-3.55,-3.55,-3.55,-3.55,-3.55,-3.55,-3.55,-3.55,-3.55,-3.55,-3.55,-3.55,-3.5769,-3.6346,-3.7603,-3.8892,-3.9969,-4.0388,-4.0495,-4.0487,-4.0458,-4.0449,-4.0441,-4.0415,-4.0407,-4.0413,-4.0446,-4.0415,-4.0423,-4.0487,-4.0469,-4.0414,-4.0319,-4.0301,-4.0301,-4.0301,-4.0301,-4.0301,-4.0301,-4.0301,-4.0301,-4.0301,-4.0301,-4.0301,-4.0301,-4.0301,-4.0301,-4.0301,-4.0301,-4.0301,-4.0301,-3.9881,-3.904,-3.778,-3.692,-3.629,-3.5851,-3.5851,-3.5621,-3.5209,-3.5209,-3.5209,0.0,0.0,0.0,0.0,0.0,-3.08,0.0,0.0,0.0,-3.08,-3.08,-3.08,-3.08,0.0,0.0,-3.0587,0.0,0.0,0.0,-3.0703,0.0,-3.08,-3.08,-3.08,-3.08,-3.08,-3.08,-3.08,-3.1446,-3.1856,-3.1856,-3.2519,-3.2955,-3.3076,-3.3752,-3.4143,-3.4192,-3.5006,-3.5396,-3.5379,-3.5537,-3.522,-3.4512,-3.5096,-3.4551,-3.3237,-3.4475,-3.4706,-3.4244,-3.4968,-3.5346,-3.55,-3.55,-3.55,-3.55,-3.55,-3.55,-3.55,-3.55,-3.55,-3.55,-3.55,-3.5596,-3.6,-3.7546,-3.9065,-4.0304,-4.0458,-4.0496,-4.0508,-4.0507,-4.0499,-4.0499,-4.0471,-4.0463,-4.0481,-4.0545,-4.0552,-4.0597,-4.0699,-4.0676,-4.0558,-4.0394,-4.0363,-4.0354,-4.0354,-4.0354,-4.0354,-4.0354,-4.0346,-4.0328,-4.0328,-4.0301,-4.0301,-4.0301,-4.0301,-4.0301,-4.0301,-4.0301,-4.0301,-4.0301,-3.9298,-3.8037,-3.6538,-3.6347,-3.5889,-3.5209,-3.5209,-3.5209,-3.5209,-3.5209,-3.5209,0.0,0.0,0.0,0.0,-3.08,0.0,-3.08,0.0,-3.08,-3.08,0.0,-3.08,-3.08,0.0,0.0,0.0,0.0,0.0,-2.9846,-3.0353,-3.08,-3.08,-3.08,-3.08,-3.08,-3.08,-3.08,-3.08,-3.0898,-3.0956,-3.0956,-3.1034,-3.1443,-3.2203,-3.2325,-3.2723,-3.3422,-3.4276,-3.4645,-3.4559,-3.5318,-3.5631,-3.5519,-3.4781,-3.4347,-3.4119,-3.353,-3.3634,-3.4205,-3.4321,-3.4795,-3.55,-3.55,-3.55,-3.55,-3.55,-3.55,-3.55,-3.55,-3.55,-3.55,-3.55,-3.5981,-3.6731,-3.7719,-3.8661,-3.9573,-4.0304,-4.0496,-4.0496,-4.0508,-4.0508,-4.0519,-4.0636,-4.0662,-4.0681,-4.0742,-4.0766,-4.0775,-4.0791,-4.0726,-4.0657,-4.0585,-4.0575,-4.0571,-4.0571,-4.0571,-4.0571,-4.0571,-4.0454,-4.0381,-4.0381,-4.0345,-4.0301,-4.0301,-4.0301,-4.0301,-4.0301,-4.0301,-4.0301,-4.0301,-3.8725,-3.7426,-3.6519,-3.5736,-3.5305,-3.5209,-3.5209,-3.5209,-3.5209,-3.5209,-3.5209,0.0,0.0,0.0,0.0,0.0,0.0,-3.08,0.0,-3.08,0.0,0.0,0.0,0.0,0.0,0.0,0.0,-3.0587,-3.0683,0.0,0.0,-3.08,-3.08,0.0,0.0,-3.08,-3.08,-3.08,-3.08,-3.08,-3.08,-3.08,-3.0844,-3.1022,-3.1393,-3.1867,-3.2258,-3.26,-3.347,-3.4081,-3.4464,-3.4836,-3.5228,-3.5623,-3.5226,-3.4778,-3.4286,-3.3864,-3.3897,-3.4193,-3.4193,-3.4718,-3.55,-3.55,-3.55,-3.55,-3.55,-3.55,-3.55,-3.55,-3.55,-3.55,-3.55,-3.6038,-3.6865,-3.7738,-3.8604,-3.9477,-4.0265,-4.0496,-4.0496,-4.0496,-4.0564,-4.0622,-4.0681,-4.0734,-4.0791,-4.0886,-4.0922,-4.0929,-4.0974,-4.0958,-4.091,-4.0894,-4.0761,-4.0654,-4.0654,-4.0623,-4.0597,-4.0597,-4.0554,-4.0515,-4.0515,-4.0488,-4.0466,-4.0476,-4.0458,-4.0434,-4.036,-3.9859,-3.9317,-3.882,-3.7636,-3.6615,-3.5755,-3.5392,-3.5209,-3.5209,-3.5209,-3.5209,-3.5209,-3.5209,-3.5209,-3.08,0.0,0.0,0.0,0.0,0.0,0.0,0.0,0.0,0.0,0.0,0.0,0.0,0.0,0.0,0.0,0.0,-3.0722,0.0,-3.047,0.0,-3.0761,0.0,0.0,0.0,-3.08,-3.08,-3.08,-3.08,-3.0801,-3.0823,-3.0866,-3.0908,-3.091,-3.1462,-3.1776,-3.1776,-3.2648,-3.3332,-3.3855,-3.4299,-3.4775,-3.5308,-3.5532,-3.5137,-3.4297,-3.4254,-3.4095,-3.3884,-3.4116,-3.4578,-3.5173,-3.5404,-3.55,-3.55,-3.55,-3.55,-3.55,-3.55,-3.55,-3.55,-3.55,-3.5904,-3.6577,-3.768,-3.843,-3.9169,-4.0208,-4.0496,-4.0504,-4.0549,-4.0622,-4.0712,-4.0762,-4.0815,-4.089,-4.1006,-4.1037,-4.103,-4.1085,-4.1097,-4.1105,-4.1105,-4.0917,-4.0777,-4.0777,-4.0742,-4.0715,-4.0715,-4.0697,-4.0674,-4.0674,-4.0654,-4.0623,-4.0636,-4.0597,-4.0455,-4.0115,-3.9462,-3.8588,-3.7496,-3.6862,-3.6138,-3.5277,-3.5226,-3.5209,-3.5209,-3.5209,-3.5209,-3.5209,-3.5209,-3.5209,0.0,0.0,0.0,-3.08,0.0,0.0,0.0,0.0,-3.08,0.0,0.0,0.0,0.0,0.0,0.0,0.0,0.0,0.0,0.0,-2.9631,-2.9924,-3.0703,-3.08,0.0,0.0,-3.08,-3.08,-3.08,-3.08,-3.0823,-3.0888,-3.0907,-3.089,-3.0894,-3.0935,-3.0936,-3.0936,-3.1796,-3.2223,-3.2199,-3.376,-3.452,-3.457,-3.534,-3.5184,-3.4306,-3.4306,-3.3809,-3.31,-3.3884,-3.4212,-3.434,-3.5173,-3.55,-3.55,-3.55,-3.55,-3.55,-3.55,-3.55,-3.55,-3.55,-3.5519,-3.5846,-3.7507,-3.8027,-3.8392,-4.0035,-4.0496,-4.0534,-4.0655,-4.0694,-4.0759,-4.0933,-4.0987,-4.1006,-4.108,-4.1108,-4.1108,-4.1109,-4.1108,-4.1108,-4.1108,-4.103,-4.0987,-4.0987,-4.0984,-4.0984,-4.0984,-4.0937,-4.0881,-4.0881,-4.0776,-4.0704,-4.0704,-4.0633,-4.0237,-3.9378,-3.9313,-3.8542,-3.6903,-3.6673,-3.6231,-3.5417,-3.5266,-3.5209,-3.5209,-3.5209,-3.5209,-3.5209,-3.5209,-3.5209,0.0,0.0,-3.08,-3.08,0.0,0.0,0.0,0.0,0.0,0.0,0.0,0.0,0.0,0.0,0.0,0.0,0.0,0.0,0.0,-2.9944,-2.9495,-2.9181,-2.9141,-2.9141,0.0,0.0,-3.0001,-3.0001,-3.0509,-3.0823,-3.0907,-3.0891,-3.0894,-3.0896,-3.0898,-3.0898,-3.0898,-3.1191,-3.1598,-3.2103,-3.2658,-3.3466,-3.45,-3.4772,-3.502,-3.519,-3.4563,-3.4463,-3.4692,-3.434,-3.4539,-3.5084,-3.5385,-3.55,-3.55,-3.55,-3.55,-3.55,-3.55,-3.55,-3.55,-3.55,-3.55,-3.5712,-3.6808,-3.7546,-3.8238,-3.9381,-4.0147,-4.0636,-4.0687,-4.0795,-4.0929,-4.0981,-4.1025,-4.1074,-4.1106,-4.1109,-4.1109,-4.1109,-4.1109,-4.1109,-4.1109,-4.1078,-4.1068,-4.1068,-4.1074,-4.1061,-4.1061,-4.101,-4.0967,-4.0967,-4.097,-4.0944,-4.0898,-4.0791,-4.0355,-3.9495,-3.8858,-3.7996,-3.6852,-3.619,-3.5734,-3.5464,-3.5431,-3.5369,-3.5327,-3.5327,-3.5289,-3.5209,-3.5209,-3.5209,-3.0823,-3.0843,0.0,-3.0846,-3.0847,0.0,-3.0844,0.0,-3.0843,0.0,0.0,0.0,0.0,0.0,0.0,0.0,0.0,0.0,0.0,-2.9455,-2.8693,-2.7522,-2.7913,-2.842,-2.8732,-2.8986,-2.9377,-2.9982,-3.0235,-3.0532,-3.0871,-3.0893,-3.0896,-3.0898,-3.0898,-3.0898,-3.0898,-3.0898,-3.1151,-3.1688,-3.1952,-3.2787,-3.4086,-3.4365,-3.4935,-3.5664,-3.5062,-3.4925,-3.5108,-3.4827,-3.4828,-3.5078,-3.5372,-3.55,-3.55,-3.55,-3.55,-3.55,-3.55,-3.55,-3.55,-3.55,-3.55,-3.5654,-3.6462,-3.7315,-3.8111,-3.87,-3.9753,-4.066,-4.0416,-4.0664,-4.1016,-4.102,-4.107,-4.1109,-4.1109,-4.1109,-4.1109,-4.1109,-4.1109,-4.1109,-4.1109,-4.1109,-4.1109,-4.1109,-4.1097,-4.1107,-4.1107,-4.1054,-4.1044,-4.1044,-4.1079,-4.1079,-4.1031,-4.0676,-4.0064,-3.9205,-3.8262,-3.7359,-3.6524,-3.588,-3.5703,-3.5999,-3.5674,-3.5637,-3.5892,-3.5584,-3.5374,-3.5273,-3.5273,-3.525]},{"header":{"parameterUnit":"m.s-1","parameterCategory":1,"la1":30.6,"la2":29.2853,"lo1":-89.7004,"lo2":-87.6739,"dy":0.0162,"dx":0.0183,"nx":112,"ny":82,"refTime":"2023-11-03T18:00:00:Z","depth":0,"parameterNumber":3,"parameterNumberName":"V-component_of_WINDS"},"data":[0.0,0.0,0.0,0.0,0.0,0.0,0.0,0.0,0.0,0.0,0.0,0.0,0.0,0.0,0.0,0.0,0.0,0.0,0.0,0.0,0.0,0.0,0.0,0.0,0.0,0.0,0.0,0.0,0.0,0.0,0.0,0.0,0.0,0.0,0.0,0.0,0.0,0.0,0.0,0.0,0.0,0.0,0.0,0.0,0.0,0.0,0.0,0.0,0.0,0.0,0.0,0.0,0.0,0.0,0.0,0.0,0.0,0.0,0.0,0.0,0.0,0.0,0.0,0.0,0.0,0.0,0.0,0.0,0.0,0.0,0.0,0.0,0.0,0.0,0.0,0.0,0.0,0.0,0.0,0.0,0.0,0.0,0.0,0.0,0.0,0.0,0.0,0.0,0.0,0.0,-0.7258,-0.7216,-0.6675,-0.6136,-0.5728,-0.5539,-0.5535,-0.5748,0.0,0.0,0.0,0.0,0.0,0.0,0.0,0.0,0.0,0.0,0.0,0.0,0.0,0.0,0.0,0.0,0.0,0.0,0.0,0.0,0.0,0.0,0.0,0.0,0.0,0.0,0.0,0.0,0.0,0.0,0.0,0.0,0.0,0.0,0.0,0.0,0.0,0.0,0.0,0.0,0.0,0.0,0.0,0.0,0.0,0.0,0.0,0.0,0.0,0.0,0.0,0.0,0.0,0.0,0.0,0.0,0.0,0.0,0.0,0.0,0.0,0.0,0.0,0.0,0.0,0.0,0.0,0.0,0.0,0.0,0.0,0.0,0.0,0.0,0.0,0.0,0.0,0.0,0.0,0.0,0.0,0.0,0.0,0.0,0.0,0.0,0.0,0.0,0.0,0.0,0.0,0.0,0.0,0.0,0.0,0.0,0.0,0.0,0.0,0.0,0.0,0.0,0.0,0.0,-0.7503,-0.7237,-0.6964,-0.6719,-0.6535,-0.6295,-0.6368,-0.6911,0.0,0.0,0.0,0.0,0.0,0.0,0.0,0.0,0.0,0.0,0.0,0.0,0.0,0.0,0.0,0.0,0.0,0.0,0.0,0.0,0.0,0.0,0.0,0.0,0.0,0.0,0.0,0.0,0.0,0.0,0.0,0.0,0.0,0.0,0.0,0.0,0.0,0.0,0.0,0.0,0.0,0.0,0.0,0.0,0.0,0.0,0.0,0.0,0.0,0.0,0.0,0.0,0.0,0.0,0.0,0.0,0.0,0.0,0.0,0.0,0.0,0.0,0.0,0.0,0.0,0.0,0.0,0.0,0.0,0.0,0.0,0.0,0.0,0.0,0.0,0.0,0.0,0.0,0.0,0.0,0.0,0.0,0.0,0.0,0.0,0.0,0.0,0.0,0.0,0.0,0.0,0.0,0.0,0.0,0.0,0.0,0.0,0.0,0.0,0.0,0.0,0.0,0.0,-0.7691,-0.7649,-0.7489,-0.7223,-0.7006,-0.6825,-0.6634,-0.6656,-0.7006,-0.6756,0.0,0.0,0.0,0.0,0.0,0.0,0.0,0.0,0.0,0.0,0.0,0.0,0.0,0.0,0.0,0.0,0.0,0.0,0.0,0.0,0.0,0.0,0.0,0.0,0.0,0.0,0.0,0.0,0.0,0.0,0.0,0.0,0.0,0.0,0.0,0.0,0.0,0.0,0.0,0.0,0.0,0.0,0.0,0.0,0.0,0.0,0.0,0.0,0.0,0.0,0.0,0.0,0.0,0.0,0.0,0.0,0.0,0.0,0.0,0.0,0.0,0.0,0.0,0.0,0.0,0.0,0.0,0.0,0.0,0.0,0.0,0.0,0.0,0.0,0.0,0.0,0.0,0.0,0.0,0.0,0.0,0.0,0.0,0.0,0.0,0.0,0.0,0.0,0.0,0.0,0.0,0.0,0.0,0.0,0.0,0.0,0.0,0.0,0.0,0.0,0.0,0.0,-0.7691,-0.7691,-0.7691,-0.7461,-0.7245,-0.7105,-0.7,-0.6979,-0.7084,-0.7328,0.0,0.0,0.0,0.0,0.0,0.0,0.0,0.0,0.0,0.0,0.0,0.0,0.0,0.0,0.0,0.0,0.0,0.0,0.0,0.0,0.0,0.0,0.0,0.0,0.0,0.0,0.0,0.0,0.0,0.0,0.0,0.0,0.0,0.0,0.0,0.0,0.0,0.0,0.0,0.0,0.0,0.0,0.0,0.0,0.0,0.0,0.0,0.0,0.0,0.0,0.0,0.0,0.0,0.0,0.0,0.0,0.0,0.0,0.0,0.0,0.0,0.0,0.0,0.0,0.0,0.0,0.0,0.0,0.0,0.0,0.0,0.0,0.0,0.0,0.0,0.0,0.0,0.0,0.0,0.0,0.0,0.0,0.0,0.0,0.0,0.0,0.0,0.0,0.0,0.0,0.0,0.0,0.0,0.0,0.0,0.0,0.0,0.0,0.0,0.0,0.0,0.0,-0.7691,-0.7691,-0.7691,-0.767,-0.7649,-0.7649,-0.7628,-0.7628,-0.7649,-0.8064,0.0,0.0,0.0,0.0,0.0,0.0,0.0,0.0,0.0,0.0,0.0,0.0,0.0,0.0,0.0,0.0,0.0,0.0,0.0,0.0,0.0,0.0,0.0,0.0,0.0,0.0,0.0,0.0,0.0,0.0,0.0,0.0,0.0,0.0,0.0,0.0,0.0,0.0,0.0,0.0,0.0,0.0,0.0,0.0,0.0,0.0,0.0,0.0,0.0,0.0,0.0,0.0,0.0,0.0,0.0,0.0,0.0,0.0,0.0,0.0,0.0,0.0,0.0,0.0,0.0,0.0,0.0,0.0,0.0,0.0,0.0,0.0,0.0,0.0,0.0,0.0,0.0,0.0,0.0,0.0,0.0,0.0,0.0,0.0,0.0,0.0,0.0,0.0,0.0,0.0,0.0,0.0,0.0,0.0,0.0,0.0,0.0,0.0,0.0,0.0,0.0,0.0,-0.7691,-0.7691,-0.7691,-0.7691,-0.7691,-0.7691,-0.7691,-0.7691,-0.7691,0.0,0.0,0.0,0.0,0.0,0.0,0.0,0.0,0.0,0.0,0.0,0.0,0.0,0.0,0.0,0.0,0.0,0.0,0.0,0.0,0.0,0.0,0.0,0.0,0.0,0.0,0.0,0.0,0.0,0.0,0.0,0.0,0.0,0.0,0.0,0.0,0.0,0.0,0.0,0.0,0.0,0.0,0.0,0.0,0.0,0.0,0.0,0.0,0.0,0.0,0.0,0.0,0.0,0.0,0.0,0.0,0.0,0.0,0.0,0.0,0.0,0.0,0.0,0.0,0.0,0.0,0.0,0.0,0.0,0.0,0.0,0.0,0.0,0.0,0.0,0.0,0.0,0.0,0.0,0.0,0.0,0.0,0.0,0.0,0.0,0.0,0.0,0.0,0.0,0.0,0.0,0.0,0.0,0.0,0.0,0.0,0.0,0.0,0.0,0.0,0.0,0.0,-0.7961,-0.7795,-0.7691,-0.7691,-0.7691,-0.7691,-0.7691,-0.7691,-0.7691,-0.7691,0.0,0.0,0.0,0.0,0.0,0.0,0.0,0.0,0.0,0.0,0.0,0.0,0.0,0.0,0.0,0.0,0.0,0.0,0.0,0.0,0.0,0.0,0.0,0.0,0.0,0.0,0.0,0.0,0.0,0.0,0.0,0.0,0.0,0.0,0.0,0.0,0.0,0.0,0.0,0.0,0.0,0.0,0.0,0.0,0.0,0.0,0.0,0.0,0.0,0.0,0.0,0.0,0.0,0.0,0.0,0.0,0.0,0.0,0.0,0.0,0.0,0.0,0.0,0.0,0.0,0.0,0.0,0.0,0.0,0.0,0.0,0.0,0.0,0.0,0.0,0.0,0.0,0.0,0.0,0.0,0.0,0.0,0.0,0.0,0.0,0.0,0.0,0.0,0.0,0.0,0.0,0.0,0.0,0.0,0.0,0.0,0.0,0.0,0.0,0.0,0.0,0.0,-0.8394,-0.7981,-0.7691,-0.7691,-0.7691,-0.7691,-0.7691,-0.7691,-0.7691,0.0,0.0,0.0,0.0,0.0,0.0,0.0,0.0,0.0,0.0,0.0,0.0,0.0,0.0,0.0,0.0,0.0,0.0,0.0,0.0,0.0,0.0,0.0,0.0,0.0,0.0,0.0,0.0,0.0,0.0,0.0,0.0,0.0,0.0,0.0,0.0,0.0,0.0,0.0,0.0,0.0,0.0,0.0,0.0,0.0,0.0,0.0,0.0,0.0,0.0,0.0,0.0,0.0,0.0,0.0,0.0,0.0,0.0,0.0,0.0,0.0,0.0,0.0,0.0,0.0,0.0,0.0,0.0,0.0,0.0,0.0,0.0,0.0,0.0,0.0,0.0,0.0,0.0,0.0,0.0,0.0,0.0,0.0,0.0,0.0,0.0,0.0,0.0,0.0,0.0,0.0,0.0,0.0,0.0,0.0,0.0,0.0,0.0,0.0,0.0,0.0,0.0,0.0,-0.8435,-0.7981,-0.7691,-0.7691,-0.7691,-0.7691,-0.7691,-0.7691,-0.7691,-0.7691,0.0,0.0,0.0,0.0,0.0,0.0,0.0,0.0,0.0,0.0,0.0,0.0,0.0,0.0,0.0,0.0,0.0,0.0,0.0,0.0,0.0,0.0,0.0,0.0,0.0,0.0,0.0,0.0,0.0,0.0,0.0,0.0,0.0,0.0,0.0,0.0,0.0,0.0,0.0,0.0,0.0,0.0,0.0,0.0,0.0,0.0,0.0,0.0,0.0,0.0,0.0,0.0,0.0,0.0,0.0,0.0,0.0,0.0,0.0,0.0,0.0,0.0,0.0,0.0,0.0,0.0,0.0,0.0,0.0,0.0,0.0,0.0,0.0,0.0,0.0,0.0,0.0,0.0,0.0,0.0,0.0,0.0,0.0,0.0,0.0,0.0,0.0,0.0,0.0,0.0,0.0,0.0,0.0,0.0,0.0,0.0,0.0,0.0,0.0,0.0,0.0,0.0,-0.8435,-0.7981,-0.7691,-0.7691,-0.7691,-0.7691,-0.7691,-0.7691,-0.7691,-0.7691,0.0,0.0,0.0,0.0,0.0,0.0,0.0,0.0,0.0,0.0,0.0,0.0,0.0,0.0,0.0,0.0,0.0,0.0,0.0,0.0,0.0,0.0,0.0,0.0,0.0,0.0,0.0,0.0,0.0,0.0,0.0,0.0,0.0,0.0,0.0,0.0,0.0,0.0,0.0,0.0,0.0,0.0,0.0,0.0,0.0,0.0,0.0,0.0,0.0,0.0,0.0,0.0,0.0,0.0,0.0,0.0,0.0,0.0,0.0,0.0,0.0,0.0,0.0,0.0,0.0,0.0,0.0,0.0,0.0,0.0,0.0,0.0,0.0,0.0,0.0,0.0,0.0,0.0,0.0,0.0,0.0,0.0,0.0,0.0,0.0,0.0,0.0,0.0,0.0,0.0,0.0,0.0,0.0,0.0,0.0,0.0,0.0,0.0,0.0,0.0,0.0,0.0,-0.8455,-0.8023,-0.7691,-0.7691,-0.7691,-0.7691,-0.7691,-0.7691,-0.7691,-0.7691,0.0,0.0,0.0,0.0,0.0,0.0,0.0,0.0,0.0,0.0,0.0,0.0,0.0,0.0,0.0,0.0,0.0,0.0,0.0,0.0,0.0,0.0,0.0,0.0,0.0,0.0,0.0,0.0,0.0,0.0,0.0,0.0,0.0,0.0,0.0,0.0,0.0,0.0,0.0,0.0,0.0,0.0,0.0,0.0,0.0,0.0,0.0,0.0,0.0,0.0,0.0,0.0,0.0,0.0,0.0,0.0,0.0,0.0,0.0,0.0,-0.4879,0.0,0.0,0.0,0.0,0.0,0.0,0.0,0.0,0.0,0.0,0.0,0.0,0.0,0.0,0.0,0.0,0.0,0.0,0.0,0.0,0.0,0.0,0.0,0.0,0.0,0.0,0.0,0.0,0.0,0.0,0.0,0.0,0.0,0.0,0.0,0.0,0.0,0.0,0.0,0.0,0.0,-0.8874,-0.8188,-0.7691,-0.7691,-0.7691,-0.7691,-0.7691,-0.7691,-0.7691,-0.7691,-0.8147,0.0,0.0,0.0,0.0,0.0,0.0,0.0,0.0,0.0,0.0,0.0,0.0,0.0,0.0,0.0,0.0,0.0,0.0,0.0,0.0,0.0,0.0,0.0,0.0,0.0,0.0,0.0,0.0,0.0,0.0,0.0,0.0,0.0,0.0,0.0,0.0,0.0,0.0,0.0,0.0,0.0,0.0,0.0,0.0,0.0,0.0,0.0,0.0,0.0,0.0,0.0,0.0,0.0,0.0,0.0,0.0,0.0,0.0,0.0,0.0,-0.4719,0.0,0.0,0.0,0.0,0.0,0.0,0.0,0.0,0.0,0.0,0.0,0.0,0.0,0.0,0.0,0.0,0.0,0.0,0.0,0.0,0.0,0.0,0.0,0.0,0.0,0.0,0.0,0.0,0.0,0.0,0.0,0.0,0.0,0.0,0.0,0.0,0.0,0.0,0.0,0.0,-0.8712,-0.8126,-0.7691,-0.7691,-0.7691,-0.7691,-0.7691,-0.7899,-0.794,-0.7712,-0.8332,0.0,0.0,0.0,0.0,0.0,0.0,0.0,0.0,0.0,0.0,0.0,0.0,0.0,0.0,0.0,0.0,0.0,0.0,0.0,0.0,0.0,0.0,0.0,0.0,0.0,0.0,0.0,0.0,0.0,0.0,0.0,0.0,0.0,0.0,0.0,0.0,0.0,0.0,0.0,0.0,0.0,0.0,0.0,0.0,0.0,0.0,0.0,0.0,0.0,0.0,0.0,0.0,0.0,-0.5044,-0.4973,-0.5216,-0.4977,-0.4881,-0.4844,-0.4678,-0.4513,-0.44,-0.4505,0.0,0.0,0.0,0.0,0.0,0.0,0.0,0.0,0.0,0.0,0.0,0.0,0.0,0.0,0.0,0.0,0.0,0.0,0.0,0.0,0.0,0.0,0.0,0.0,-0.5684,-0.6292,-0.6699,0.0,0.0,0.0,0.0,0.0,0.0,0.0,0.0,0.0,0.0,0.0,-0.8402,-0.7981,-0.7691,-0.7691,-0.7691,-0.7691,-0.7691,-0.8044,-0.8106,-0.7712,-0.8447,-0.8781,0.0,0.0,0.0,0.0,0.0,0.0,0.0,0.0,0.0,0.0,0.0,0.0,0.0,0.0,0.0,0.0,0.0,0.0,0.0,0.0,0.0,0.0,0.0,0.0,0.0,0.0,0.0,0.0,0.0,0.0,0.0,0.0,-0.5051,-0.5198,0.0,0.0,0.0,0.0,0.0,0.0,0.0,0.0,0.0,0.0,0.0,0.0,0.0,-0.5828,-0.577,-0.5571,-0.5414,-0.5337,-0.5147,-0.5129,-0.5283,-0.5256,-0.5167,-0.5069,-0.5019,0.0,-0.4735,-0.4759,0.0,0.0,0.0,0.0,0.0,0.0,0.0,0.0,0.0,0.0,0.0,0.0,0.0,0.0,0.0,0.0,0.0,0.0,0.0,0.0,0.0,0.0,-0.5954,-0.5954,-0.6822,-0.7527,0.0,-0.7328,-0.7475,-0.7502,-0.7599,0.0,0.0,0.0,0.0,0.0,0.0,0.0,-0.8433,-0.7981,-0.7691,-0.7691,-0.7691,-0.7691,-0.7691,-0.7761,-0.7774,-0.7691,-0.8188,-0.8618,-0.8903,-0.9319,0.0,0.0,0.0,0.0,0.0,0.0,0.0,0.0,0.0,0.0,0.0,0.0,0.0,0.0,0.0,0.0,0.0,0.0,0.0,0.0,0.0,0.0,0.0,0.0,0.0,0.0,0.0,0.0,0.0,-0.5599,-0.5611,-0.5895,-0.6189,-0.6496,0.0,0.0,0.0,0.0,0.0,0.0,0.0,0.0,0.0,-0.5846,-0.5659,-0.5541,-0.5517,-0.5538,-0.5528,-0.547,-0.5523,-0.5579,-0.5628,-0.5628,-0.5612,-0.5563,-0.5563,-0.549,-0.5389,-0.5084,-0.4897,-0.4816,0.0,0.0,0.0,0.0,-0.4804,-0.4804,-0.4804,-0.4804,-0.4804,-0.4804,0.0,0.0,0.0,0.0,0.0,0.0,0.0,-0.585,0.0,0.0,-0.6278,-0.6314,-0.6937,-0.747,-0.7344,-0.757,-0.7828,0.0,-0.8008,-0.8231,-0.8805,0.0,0.0,0.0,0.0,-0.9045,-0.8917,-0.8534,-0.826,-0.826,-0.826,-0.8187,-0.8004,-0.8197,-0.8136,-0.7726,-0.8353,-0.872,-0.8659,-0.927,-0.9717,0.0,0.0,0.0,0.0,0.0,0.0,0.0,0.0,0.0,0.0,0.0,0.0,0.0,0.0,0.0,0.0,0.0,0.0,0.0,0.0,0.0,0.0,0.0,0.0,0.0,0.0,0.0,0.0,-0.6121,-0.6117,-0.6528,-0.6694,-0.6919,0.0,0.0,0.0,0.0,0.0,0.0,-0.6289,-0.6082,-0.5943,-0.5828,-0.5575,-0.5462,-0.5462,-0.5587,-0.5681,-0.5685,-0.5823,-0.5912,-0.5984,-0.5984,-0.5982,-0.6022,-0.6022,-0.6022,-0.5986,-0.549,-0.5206,-0.5096,-0.5234,-0.5173,-0.5011,-0.5011,-0.4983,-0.4921,-0.4921,-0.4921,-0.4921,-0.4921,-0.4921,-0.4938,-0.504,0.0,0.0,0.0,0.0,-0.636,-0.6404,-0.6582,-0.6755,-0.6792,-0.7217,-0.7628,-0.7745,-0.8088,-0.8363,0.0,-0.8428,-0.8679,-0.9198,0.0,0.0,0.0,0.0,-0.9237,-0.9152,-0.888,-0.8692,-0.8692,-0.8692,-0.859,-0.8348,-0.8722,-0.8738,-0.819,-0.8894,-0.9194,-0.8894,-0.9473,-0.9785,-0.9796,0.0,0.0,0.0,0.0,0.0,0.0,0.0,0.0,0.0,0.0,0.0,0.0,0.0,0.0,0.0,0.0,0.0,0.0,0.0,0.0,0.0,0.0,0.0,0.0,0.0,0.0,0.0,0.0,0.0,-0.6726,-0.657,0.0,0.0,0.0,0.0,-0.6615,-0.6588,-0.6546,-0.6473,-0.6459,-0.6287,-0.5916,-0.589,-0.586,-0.586,-0.5868,-0.5872,-0.5876,-0.5884,-0.6004,-0.6195,-0.6195,-0.6257,-0.6392,-0.6392,-0.6392,-0.6363,-0.5998,-0.5843,-0.5835,-0.5843,-0.5734,-0.5571,-0.5571,-0.5438,-0.5273,-0.5273,-0.5273,-0.5273,-0.5273,-0.5273,-0.5345,-0.5719,-0.5998,0.0,0.0,-0.6748,-0.6719,-0.6534,-0.705,-0.7633,-0.7633,-0.8197,-0.8712,-0.8738,-0.8934,-0.9013,0.0,-0.8499,-0.8679,-0.9198,0.0,-0.9231,-0.933,-0.9254,-0.9085,-0.8776,-0.8708,-0.8692,-0.8692,-0.8692,-0.8701,-0.8686,-0.9159,-0.9443,-0.9404,-0.9922,-1.0226,-1.0196,-1.025,-1.0293,-1.036,-1.0312,0.0,0.0,0.0,0.0,0.0,0.0,0.0,0.0,0.0,0.0,0.0,0.0,0.0,0.0,0.0,0.0,0.0,0.0,0.0,0.0,0.0,0.0,0.0,0.0,0.0,0.0,0.0,0.0,-0.6622,-0.6516,0.0,-0.688,-0.6691,-0.6715,-0.7139,-0.6539,-0.6332,-0.6724,-0.635,-0.6058,-0.5918,-0.6024,-0.6082,-0.6019,-0.6278,-0.64,-0.6408,-0.6555,-0.6641,-0.6702,-0.6702,-0.6735,-0.6796,-0.6796,-0.6796,-0.6788,-0.6657,-0.6469,-0.6217,-0.6131,-0.6045,-0.5971,-0.5831,-0.575,-0.5697,-0.5697,-0.5697,-0.5697,-0.5697,-0.5697,-0.5802,-0.6358,-0.6464,-0.6454,-0.6676,-0.6578,-0.6474,-0.679,-0.71,-0.7515,-0.8352,-0.875,-0.8982,-0.9133,-0.9263,-0.9297,-0.922,-0.9202,-0.927,-0.9462,-0.9474,-0.9467,-0.95,-0.9481,-0.9416,-0.9299,-0.9285,-0.9285,-0.9285,-0.9585,-0.9583,-0.907,-0.9827,-1.0099,-0.9537,-1.0246,-1.0702,-1.0702,-1.097,-1.1008,-1.0724,-1.0704,-1.0666,0.0,0.0,0.0,0.0,0.0,0.0,0.0,0.0,0.0,0.0,0.0,0.0,0.0,0.0,0.0,0.0,0.0,0.0,0.0,0.0,0.0,0.0,0.0,0.0,0.0,0.0,-0.6274,-0.6771,-0.6584,-0.6585,-0.6916,-0.663,-0.6571,-0.6919,-0.6379,-0.6188,-0.6637,-0.6337,-0.616,-0.6156,-0.6359,-0.6449,-0.6416,-0.6686,-0.6808,-0.682,-0.6935,-0.702,-0.7082,-0.7082,-0.7114,-0.7167,-0.7167,-0.7167,-0.7167,-0.7167,-0.7029,-0.6753,-0.6547,-0.6416,-0.6351,-0.6229,-0.612,-0.6067,-0.6067,-0.6067,-0.6067,-0.6067,-0.6067,-0.616,-0.6586,-0.6571,-0.6443,-0.6733,-0.6778,-0.6865,-0.7455,-0.7822,-0.8236,-0.9037,-0.9316,-0.9445,-0.9546,-0.9654,-0.9726,-0.9698,-0.9635,-0.9588,-0.9588,-0.9588,-0.9588,-0.9588,-0.9588,-0.9588,-0.9588,-0.9588,-0.9588,-0.9588,-0.9925,-0.9926,-0.9394,-1.0327,-1.0683,-1.0105,-1.0857,-1.1339,-1.1339,-1.1508,-1.1447,-1.1133,-1.1154,-1.1017,-1.0763,0.0,0.0,0.0,0.0,0.0,0.0,0.0,0.0,0.0,0.0,0.0,0.0,0.0,0.0,0.0,0.0,0.0,0.0,0.0,0.0,0.0,0.0,0.0,-0.7338,-0.6955,-0.6733,-0.7205,-0.6787,-0.6528,-0.6664,-0.6224,-0.5939,-0.5943,-0.6133,-0.6236,-0.6263,-0.6543,-0.6696,-0.6718,-0.6902,-0.6996,-0.6996,-0.7004,-0.7004,-0.7004,-0.7004,-0.7098,-0.7199,-0.7199,-0.7326,-0.7484,-0.7484,-0.7484,-0.7484,-0.7484,-0.7484,-0.7447,-0.7135,-0.6894,-0.6712,-0.6722,-0.6578,-0.6436,-0.6436,-0.6432,-0.6395,-0.6432,-0.6399,-0.6428,-0.6432,-0.6339,-0.635,-0.6912,-0.7436,-0.7944,-0.8487,-0.9256,-0.988,-0.9771,-0.9967,-1.017,-0.9996,-1.0192,-1.0329,-1.0006,-0.9771,-0.9624,-0.9621,-0.9588,-0.9588,-0.9588,-0.9588,0.0,-0.9588,-0.9588,-0.9588,-0.9588,-0.964,-0.964,-0.9614,-1.0643,-1.1259,-1.1234,-1.1844,-1.2223,-1.2223,-1.1858,-1.1636,-1.1626,-1.1606,-1.1628,-1.1713,0.0,0.0,0.0,0.0,0.0,0.0,0.0,0.0,0.0,0.0,0.0,0.0,0.0,0.0,0.0,0.0,0.0,0.0,0.0,0.0,0.0,-0.6618,-0.6497,-0.6755,-0.6243,-0.5973,-0.6256,-0.6164,-0.6151,-0.633,-0.6288,-0.6517,-0.7146,-0.6933,-0.7005,-0.7477,-0.7137,-0.6914,-0.691,-0.7054,-0.7151,-0.7151,-0.7273,-0.7375,-0.7375,-0.7375,-0.7362,-0.7411,-0.7411,-0.7439,-0.7484,-0.7484,-0.7484,-0.7484,-0.7484,-0.7484,-0.746,-0.7236,-0.7123,-0.7062,-0.6963,-0.6882,-0.6841,-0.6841,-0.6725,-0.6639,-0.68,-0.6751,-0.6729,-0.738,-0.7351,-0.7327,-0.8151,-0.8345,-0.8485,-0.9219,-0.9569,-0.988,-1.0376,-1.0561,-1.0684,-1.0861,-1.0984,-1.1013,-1.0814,-1.0733,-1.0448,-0.9738,-0.9588,-0.9588,-0.9588,-0.9588,0.0,-0.9588,-0.9588,-0.9588,-0.9588,-1.031,-1.0592,-1.0216,-1.156,-1.2274,-1.1868,-1.2391,-1.2705,-1.2705,-1.2612,-1.2373,-1.2051,-1.1751,-1.177,0.0,0.0,0.0,0.0,0.0,0.0,0.0,0.0,0.0,0.0,0.0,0.0,0.0,0.0,0.0,0.0,0.0,0.0,0.0,0.0,0.0,0.0,-0.6549,-0.6542,-0.6475,-0.6032,-0.5823,-0.6079,-0.6111,-0.6209,-0.6494,-0.6612,-0.6855,-0.7376,-0.7214,-0.7245,-0.7553,-0.7345,-0.718,-0.707,-0.724,-0.7334,-0.7334,-0.7508,-0.7637,-0.7641,-0.7671,-0.7707,-0.7707,-0.7707,-0.7707,-0.7707,-0.7707,-0.7707,-0.7707,-0.7707,-0.7707,0.0,0.0,0.0,0.0,0.0,-0.7212,-0.7212,-0.7212,-0.7147,-0.7041,-0.718,-0.7139,-0.7141,-0.7647,-0.783,-0.7983,-0.8543,-0.8894,-0.9231,-0.9693,-1.0001,-1.0238,-1.0618,-1.0967,-1.1248,-1.1344,-1.1611,-1.1732,-1.1507,-1.148,0.0,-1.0368,-1.0002,-0.9819,-0.9819,-0.9702,-0.9588,-0.9588,-0.9588,-0.9692,-0.9899,-1.049,-1.0829,-1.0753,-1.1868,0.0,0.0,0.0,-1.2905,-1.2905,-1.2905,0.0,0.0,0.0,-1.2292,-1.2544,-1.2351,0.0,0.0,-1.1796,-1.204,0.0,0.0,0.0,0.0,0.0,0.0,0.0,0.0,0.0,0.0,0.0,0.0,0.0,0.0,0.0,0.0,-0.6244,-0.6599,-0.6437,-0.618,-0.6155,-0.6573,-0.651,-0.6645,-0.7126,-0.7088,-0.7029,-0.7049,-0.7163,-0.7183,-0.7057,0.0,0.0,0.0,0.0,-0.7541,-0.7541,-0.7747,-0.7829,-0.7829,-0.7943,-0.8012,-0.8012,-0.8012,-0.8012,-0.8012,-0.8012,-0.8012,-0.8012,-0.8012,-0.8012,-0.7979,-0.7642,-0.75,-0.7484,-0.7484,-0.7484,-0.7484,-0.7484,0.0,0.0,-0.7476,-0.7472,-0.7498,-0.7591,-0.8003,-0.8489,-0.8668,-0.9387,-1.0156,-1.0257,-1.0607,-1.0941,-1.0852,-1.1381,-1.1834,-1.1659,-1.2105,-1.2434,-1.2076,-1.2032,-1.1865,-1.1289,-1.0646,-1.0199,-1.0163,-0.9907,-0.9709,-0.9646,-0.9717,-0.9918,-1.0352,0.0,0.0,-1.1259,-1.1843,-1.22,-1.22,-1.2627,-1.2905,-1.2905,-1.2905,-1.2905,-1.2905,-1.2905,-1.2905,-1.2905,-1.249,-1.2281,-1.2285,-1.2492,-1.2605,0.0,0.0,0.0,0.0,0.0,0.0,0.0,0.0,0.0,0.0,0.0,0.0,0.0,0.0,0.0,-0.6413,-0.647,-0.6436,-0.6408,-0.6641,-0.7047,-0.7783,-0.7267,-0.7212,-0.8047,-0.753,-0.7232,-0.7408,-0.7411,-0.7415,-0.742,-0.7629,-0.7731,-0.7698,-0.7821,-0.791,-0.791,-0.7947,-0.7963,-0.7963,0.0,0.0,-0.8012,-0.8012,-0.8012,-0.8012,-0.8012,-0.8012,-0.8012,-0.8012,-0.8012,-0.7992,-0.7829,-0.7653,-0.7484,-0.7484,-0.7484,-0.7484,-0.7484,-0.7395,-0.7297,-0.7439,-0.7387,-0.7414,-0.8235,-0.8557,0.0,-1.0209,-1.0733,-1.1028,-1.1682,-1.1932,-1.2036,-1.2179,-1.2334,-1.245,-1.2452,-1.2584,-1.2524,-1.208,-1.2215,-1.2273,-1.1879,-1.1311,-1.0799,-1.0536,-1.0441,-1.0302,-1.0038,-1.0371,-1.0582,-1.0427,-1.1209,-1.1819,-1.1918,-1.2421,-1.2759,-1.2759,-1.2832,-1.2905,-1.2905,-1.2905,-1.2905,-1.2905,-1.2905,-1.2905,-1.2905,-1.2803,-1.2754,-1.2758,-1.2113,-1.2019,0.0,0.0,0.0,0.0,0.0,0.0,0.0,0.0,0.0,0.0,0.0,-0.6045,0.0,0.0,-0.648,-0.7071,-0.7145,-0.7351,-0.7925,-0.7819,-0.7694,-0.7703,-0.734,-0.7339,-0.7889,-0.7576,-0.7427,-0.7649,-0.7661,-0.7698,-0.7744,-0.7837,-0.7886,-0.7886,-0.7967,-0.8012,-0.8012,-0.8105,-0.815,-0.8154,-0.8243,-0.8292,-0.8292,-0.8292,-0.8292,-0.8292,-0.8292,-0.8292,-0.8292,-0.8292,-0.8235,-0.8142,-0.8061,-0.791,-0.7736,-0.7694,-0.7661,-0.7649,-0.7555,-0.7427,-0.7442,-0.7948,-0.8031,-0.812,-0.9039,-0.9566,-1.0056,-1.0887,-1.1273,-1.1576,-1.2012,-1.1977,-1.1899,-1.2112,-1.2336,-1.2591,-1.2728,-1.292,-1.2998,-1.258,-1.2658,-1.258,-1.2091,-1.1904,-1.1633,-1.118,-1.0968,-1.074,-1.0382,-1.0589,-1.0818,-1.1037,-1.1567,-1.2059,-1.2474,-1.2759,-1.2905,-1.2905,-1.2905,-1.2905,-1.2905,-1.2905,-1.2905,-1.2905,-1.2905,-1.2905,-1.2905,-1.2905,-1.2905,-1.2895,-1.2445,-1.2424,0.0,0.0,0.0,0.0,0.0,0.0,0.0,0.0,-0.5501,-0.6184,-0.6362,-0.642,-0.6581,-0.6754,-0.6985,-0.7372,-0.7615,-0.8074,-0.8995,-0.8599,-0.8004,-0.7347,-0.7277,-0.7417,-0.7744,-0.7649,-0.7653,-0.7837,-0.7849,-0.787,-0.8008,-0.8048,-0.8065,-0.8065,-0.8101,-0.8122,-0.8122,-0.8268,-0.8345,-0.8345,-0.8539,-0.8612,-0.8612,-0.8612,-0.8612,-0.8612,-0.8612,-0.8612,-0.8612,-0.8612,-0.8522,-0.8345,-0.8345,-0.8251,-0.8097,-0.7926,-0.7849,-0.7829,-0.7638,-0.7586,-0.7733,-0.8505,-0.876,-0.8942,-0.9836,-1.0576,-1.1149,-1.1298,-1.1657,-1.1986,-1.1986,-1.1777,-1.1631,-1.184,-1.2206,-1.255,-1.2742,-1.3078,-1.3266,-1.2944,-1.2965,-1.2819,-1.2193,-1.2368,-1.2401,-1.1782,-1.1511,-1.1246,-1.0828,-1.0894,-1.1138,-1.1593,-1.1847,-1.2306,-1.307,-1.3125,-1.3096,-1.3032,-1.3023,-1.2993,-1.2905,-1.2905,-1.2905,-1.2905,-1.2905,-1.2905,-1.2905,-1.2905,-1.2905,-1.2905,-1.2905,-1.2954,-0.4491,-0.4519,-0.4546,-0.4715,-0.4743,-0.4798,0.0,0.0,-0.5452,-0.5665,-0.583,-0.603,-0.6208,-0.6358,-0.6544,-0.6751,-0.7078,-0.7323,-0.7438,-0.7543,-0.7566,-0.749,-0.7456,-0.7829,-0.8753,-0.8194,-0.7841,-0.7971,-0.7983,-0.7996,-0.8012,-0.817,-0.826,-0.826,-0.8422,-0.8551,-0.8551,-0.8571,-0.858,-0.858,-0.86,-0.8612,-0.8612,-0.8612,-0.8612,-0.8612,-0.8612,-0.8612,-0.8612,-0.8612,-0.86,-0.858,-0.858,-0.8567,-0.8506,-0.8113,-0.7983,-0.7979,-0.7959,-0.7955,-0.8049,-0.8753,-0.8968,-0.9204,-1.0576,-1.1037,-1.126,-1.1966,-1.2204,-1.2258,-1.2258,-1.2231,-1.2241,-1.246,-1.2561,-1.2622,-1.2671,-1.2749,-1.2755,-1.2602,-1.2811,-1.2892,-1.2499,-1.2738,-1.2731,-1.2047,-1.2164,-1.2138,-1.1562,-1.1897,-1.2005,-1.1487,-1.2395,-1.3294,-1.3915,-1.3968,-1.3802,-1.3467,-1.3437,-1.3271,-1.2925,-1.2905,-1.2905,-1.2905,-1.2905,-1.2905,-1.2905,-1.2905,-1.2905,-1.2905,-1.2905,-1.2905,-0.4491,-0.4546,-0.466,-0.4794,-0.4951,-0.5167,-0.5361,-0.5558,-0.5743,-0.59,-0.6012,-0.6126,-0.627,-0.6457,-0.6805,0.0,-0.7767,-0.8097,-0.8697,-0.8453,-0.8248,-0.8359,-0.7952,-0.7828,-0.826,-0.8087,-0.7983,-0.8162,-0.8174,-0.8223,-0.8329,-0.841,-0.8494,-0.8494,-0.8571,-0.8612,-0.8612,-0.8612,-0.852,-0.838,-0.838,-0.8296,-0.8212,-0.8212,-0.8252,-0.838,-0.838,-0.8472,-0.8612,-0.8612,-0.8612,-0.8612,-0.8612,-0.8612,-0.858,-0.8272,-0.8174,-0.8158,-0.8052,-0.8012,-0.8123,-0.8891,-0.9105,-0.9407,-1.102,-1.1384,-1.1449,-1.2326,-1.2438,-1.2305,-1.2305,-1.2305,-1.2342,-1.2562,-1.2599,-1.2638,-1.2804,-1.2927,-1.2906,-1.2654,-1.2809,-1.2899,-1.2543,-1.2797,-1.2848,-1.2353,-1.2397,-1.2358,-1.1897,-1.2193,-1.2458,-1.2489,-1.2928,-1.3431,-1.4051,-1.4104,-1.4036,-1.386,-1.3851,-1.3763,-1.3613,-1.3613,-1.3613,-1.3613,-1.3613,-1.3613,-1.3613,-1.3359,-1.3242,-1.3242,-1.3023,-1.2905,-0.4519,-0.4605,-0.4726,-0.4877,-0.5093,-0.5343,-0.5556,-0.5767,-0.5967,-0.6151,-0.6216,-0.6306,-0.6461,-0.6643,-0.7032,-0.7785,-0.8047,-0.8407,-0.912,-0.8732,-0.8433,-0.8628,-0.8192,-0.789,-0.7943,-0.8016,-0.8166,-0.8353,-0.8365,-0.8426,-0.8604,-0.8612,-0.8612,-0.8612,-0.852,-0.8476,-0.8476,-0.8432,-0.8296,-0.8113,-0.8113,-0.8028,-0.79,-0.79,-0.8028,-0.8201,-0.8201,-0.8336,-0.8612,-0.8612,-0.8612,-0.8612,-0.8612,-0.8612,-0.8596,-0.8418,-0.8365,-0.8349,-0.8215,-0.8166,-0.828,-0.9055,-0.9284,-0.9599,-1.1289,-1.1651,-1.1729,-1.2634,-1.2757,-1.2532,-1.2445,-1.2425,-1.2442,-1.2509,-1.2526,-1.2562,-1.2783,-1.2973,-1.3055,-1.2863,-1.2998,-1.3038,-1.2716,-1.2848,-1.2899,-1.2536,-1.2565,-1.247,-1.2054,-1.2406,-1.2983,-1.3716,-1.3763,-1.3914,-1.441,-1.4465,-1.4406,-1.4299,-1.428,-1.4231,-1.4114,-1.4104,-1.4104,-1.4104,-1.4104,-1.4104,-1.4104,-1.3802,-1.3682,-1.3646,-1.3369,-1.3232,-0.4546,-0.4605,-0.4727,-0.4855,-0.4948,-0.5129,-0.5498,-0.5763,-0.5955,-0.6144,-0.6318,-0.6469,-0.6652,-0.6865,-0.7041,-0.7188,-0.74,-0.7553,-0.7557,-0.7561,-0.7626,-0.7815,-0.7943,-0.8077,0.0,-0.828,-0.8357,-0.8588,-0.8604,-0.8604,-0.8612,-0.8612,-0.8612,-0.8612,-0.8336,-0.8201,-0.8201,-0.8028,-0.79,-0.79,-0.79,-0.79,-0.79,-0.79,-0.8028,-0.8201,-0.8201,-0.8336,-0.8612,-0.8612,-0.8612,-0.8612,-0.8612,-0.8612,-0.8612,-0.8604,-0.8604,-0.8604,-0.8596,-0.8596,-0.8694,-0.9276,-0.9503,-0.9801,-1.1341,-1.1788,-1.1982,-1.2916,-1.3186,-1.3113,-1.2851,-1.277,-1.2697,-1.2371,-1.2305,-1.2378,-1.2562,-1.2783,-1.2966,-1.3149,-1.3331,-1.3375,-1.3045,-1.3001,-1.2899,-1.2536,-1.2789,-1.276,-1.2083,-1.269,-1.3673,-1.4914,-1.505,-1.5119,-1.5342,-1.5371,-1.5195,-1.4785,-1.4766,-1.458,-1.4124,-1.4104,-1.4104,-1.4104,-1.4104,-1.4104,-1.4104,-1.4094,-1.4085,-1.4085,-1.4075,-1.4065,-0.474,-0.481,-0.4887,-0.5162,-0.543,-0.5678,-0.5949,-0.6133,-0.6262,-0.6327,-0.6465,-0.6611,-0.6684,-0.6936,-0.7155,-0.7179,-0.737,-0.7484,-0.7484,-0.7629,-0.7771,-0.7906,-0.8089,0.0,0.0,0.0,0.0,-0.8608,-0.8612,-0.8612,-0.8612,-0.8612,-0.852,-0.8336,-0.8245,-0.8157,-0.7984,-0.794,-0.7812,-0.7639,-0.7455,-0.7363,-0.7363,-0.7363,-0.7496,-0.7768,-0.794,-0.8116,-0.8336,-0.852,-0.8612,-0.8612,-0.8612,-0.8612,-0.8612,-0.8612,-0.8612,-0.8612,-0.8612,-0.8612,-0.8644,-0.8839,-0.929,-0.9957,-1.1112,-1.1774,-1.2302,-1.321,-1.336,-1.3186,-1.308,-1.3053,-1.3026,-1.2926,-1.2746,-1.2636,-1.2712,-1.2817,-1.2936,-1.2973,-1.3273,-1.3455,-1.3353,-1.3331,-1.3221,-1.2892,-1.2753,-1.2816,-1.3278,-1.3174,-1.3676,-1.5273,-1.5221,-1.5317,-1.582,-1.587,-1.5664,-1.5234,-1.5205,-1.5137,-1.4962,-1.4952,-1.4952,-1.4952,-1.4952,-1.4952,-1.4952,-1.4697,-1.4561,-1.4561,-1.4241,-1.4104,-0.4769,-0.4857,-0.4979,-0.5315,-0.563,-0.5879,-0.6129,-0.6302,-0.6387,-0.6387,-0.6505,-0.6627,-0.6796,-0.6972,-0.7171,-0.7297,-0.7673,-0.7825,-0.7522,-0.7858,-0.8105,-0.8024,-0.8117,-0.8292,0.0,0.0,0.0,-0.8612,-0.8612,-0.8612,-0.8612,-0.8612,-0.8476,-0.8201,-0.8113,-0.7984,-0.7768,-0.7676,-0.7544,-0.737,-0.7187,-0.7095,-0.7095,-0.7095,-0.7323,-0.7635,-0.7812,-0.8072,-0.8336,-0.852,-0.8612,-0.8612,-0.8612,-0.8612,-0.8612,-0.8612,-0.8612,-0.8612,-0.8612,-0.8784,-0.9087,-0.9087,-0.9689,-1.0593,-1.1542,-1.2118,-1.2618,-1.3546,-1.3667,-1.35,-1.3353,-1.3327,-1.33,-1.3233,-1.306,-1.2951,-1.2951,-1.302,-1.3024,-1.3024,-1.3271,-1.3492,-1.3492,-1.3492,-1.3426,-1.3214,-1.3135,-1.3404,-1.4336,-1.4181,-1.4501,-1.5835,-1.5798,-1.579,-1.6074,-1.6242,-1.6113,-1.5674,-1.5644,-1.5566,-1.542,-1.541,-1.541,-1.541,-1.541,-1.541,-1.541,-1.5137,-1.501,-1.5,-1.4727,-1.4562,-0.4728,-0.4834,-0.4996,-0.536,-0.5594,-0.5818,-0.6142,-0.6317,-0.6387,-0.6387,-0.6391,-0.6538,0.0,0.0,-0.7114,-0.7415,-0.8122,-0.836,-0.7595,-0.8178,-0.848,0.0,0.0,0.0,0.0,0.0,0.0,-0.8612,0.0,-0.8612,-0.8612,-0.8612,-0.8472,-0.8201,-0.7984,-0.7768,-0.7462,-0.7231,-0.7095,-0.7095,-0.7095,-0.7095,-0.7095,-0.7095,-0.7363,-0.7856,-0.7856,-0.8124,-0.8564,-0.8568,-0.8568,-0.8612,-0.8612,-0.8612,-0.8612,-0.8612,-0.8612,-0.8652,-0.8612,-0.917,-0.9903,-0.9903,-1.0549,-1.1542,-1.2448,-1.2747,-1.2966,-1.387,-1.4088,-1.4021,-1.37,-1.3626,-1.3553,-1.332,-1.324,-1.3233,-1.3233,-1.3258,-1.3293,-1.3317,-1.3407,-1.3492,-1.3492,-1.3492,-1.3492,-1.3492,-1.3846,-1.4411,-1.5189,-1.559,-1.6042,-1.6663,-1.6716,-1.6562,-1.6163,-1.6484,-1.6543,-1.6124,-1.6114,-1.5928,-1.5469,-1.5449,-1.543,-1.541,-1.541,-1.541,-1.541,-1.541,-1.541,-1.541,-1.541,-1.541,-0.5135,-0.5244,-0.5384,-0.587,-0.605,-0.6127,-0.6305,-0.6383,-0.6387,-0.6387,-0.6522,-0.6669,-0.6763,-0.6968,-0.7188,-0.7277,-0.7588,0.0,-0.7522,-0.7797,0.0,-0.7988,0.0,-0.8312,-0.8588,-0.8612,0.0,0.0,-0.8612,-0.8612,-0.8612,-0.8612,-0.8388,-0.7984,-0.794,-0.7676,-0.7187,-0.7143,-0.7095,-0.7095,-0.7095,-0.7095,-0.7095,-0.7095,-0.7183,-0.7319,-0.7499,-0.7771,-0.8076,-0.8248,-0.8428,-0.8612,-0.8612,-0.8612,-0.8612,-0.8612,-0.8999,-0.9471,-0.8828,-0.917,-0.9903,-0.9903,-1.102,-1.24,-1.2619,-1.3179,-1.3786,-1.4046,-1.4088,-1.4068,-1.3995,-1.3975,-1.3955,-1.3881,-1.3694,-1.3493,-1.3493,-1.3486,-1.3434,-1.3321,-1.3407,-1.3492,-1.3492,-1.3492,-1.3492,-1.3492,-1.4045,-1.466,-1.5095,-1.5525,-1.6186,-1.7113,-1.6892,-1.6658,-1.6572,-1.6638,-1.6543,-1.6124,-1.6377,-1.6357,-1.5948,-1.5928,-1.5772,-1.542,-1.541,-1.541,-1.541,-1.541,-1.541,-1.541,-1.541,-1.541,-0.5265,-0.5351,-0.5468,-0.6054,-0.621,-0.6247,-0.6383,-0.6387,-0.6387,-0.6387,-0.6497,-0.6587,-0.6694,-0.6851,-0.7045,0.0,0.0,0.0,-0.7548,-0.7884,-0.8163,0.0,-0.8105,0.0,-0.8588,-0.8612,-0.8612,0.0,-0.8612,-0.8612,-0.8612,-0.8476,-0.8252,-0.79,-0.7768,-0.7544,-0.7095,-0.7095,-0.7095,-0.7095,-0.7095,-0.7095,-0.7095,-0.7095,-0.7143,-0.7279,-0.7547,-0.7812,-0.8072,-0.8292,-0.8472,-0.8612,-0.8612,-0.8612,-0.8612,-0.8612,-0.8911,-0.9301,-0.9213,-0.9777,-1.0506,-1.0506,-1.18,-1.3307,-1.3307,-1.3695,-1.4088,-1.4088,-1.4088,-1.4088,-1.4088,-1.4088,-1.4088,-1.4088,-1.3961,-1.3841,-1.3841,-1.3723,-1.3658,-1.3652,-1.3697,-1.3711,-1.3711,-1.3587,-1.3492,-1.3492,-1.4122,-1.4778,-1.529,-1.5708,-1.6356,-1.7288,-1.7168,-1.7021,-1.7021,-1.7021,-1.6826,-1.6387,-1.6592,-1.6533,-1.6114,-1.6281,-1.6152,-1.5703,-1.5693,-1.5605,-1.541,-1.541,-1.541,-1.541,-1.541,-1.541,-0.5233,-0.5339,-0.5435,-0.6039,-0.6228,-0.6243,-0.6355,-0.6384,-0.6384,-0.6384,-0.6384,-0.6436,-0.6611,-0.6672,-0.6806,-0.7135,0.0,-0.805,-0.757,-0.8093,-0.8389,-0.8053,-0.8012,-0.8158,-0.8575,-0.8612,-0.8612,-0.8612,-0.8564,-0.8564,-0.8564,-0.8336,-0.8113,-0.7856,-0.7591,-0.7323,-0.7095,-0.7095,-0.7095,-0.7095,-0.7095,-0.7095,-0.7095,-0.7095,-0.7231,-0.7459,-0.768,-0.794,-0.8157,-0.8428,-0.8524,-0.8612,-0.8612,-0.8612,-0.8612,-0.8612,-0.8656,-0.8867,-0.9646,-1.0593,-1.1499,-1.1499,-1.2662,-1.4088,-1.4088,-1.4088,-1.4088,-1.4088,-1.4088,-1.4088,-1.4088,-1.4088,-1.4088,-1.4088,-1.4088,-1.4088,-1.4088,-1.402,-1.3973,-1.4094,-1.4106,-1.4033,-1.4027,-1.3748,-1.3543,-1.3506,-1.4049,-1.4752,-1.5604,-1.6039,-1.6583,-1.7395,-1.7422,-1.7383,-1.7383,-1.7383,-1.7227,-1.6814,-1.6785,-1.6621,-1.6202,-1.6523,-1.6523,-1.6105,-1.6153,-1.5997,-1.5556,-1.5527,-1.5498,-1.5498,-1.5439,-1.541,-0.5304,-0.5582,-0.5837,-0.6113,-0.6274,-0.6343,-0.6257,-0.6224,0.0,-0.6224,-0.6224,-0.6282,-0.6428,-0.6591,-0.6761,-0.7004,-0.7232,-0.743,-0.7498,-0.7633,-0.777,0.0,-0.8012,-0.8158,-0.8575,-0.8612,0.0,0.0,-0.8384,-0.8288,-0.8288,-0.8245,-0.8028,-0.7595,-0.7323,-0.7143,-0.7095,-0.7095,-0.7095,-0.7095,-0.7095,-0.7095,-0.7095,-0.7095,-0.7139,-0.7187,-0.7231,0.0,-0.794,-0.7988,-0.8256,-0.8612,-0.8612,-0.8612,-0.8612,-0.8612,-0.9043,-0.9685,-0.9859,-1.1025,-1.2448,-1.2448,-1.3179,-1.4088,-1.4088,-1.4088,-1.4088,-1.4088,-1.4088,-1.4088,-1.4088,-1.4088,-1.4088,-1.4088,-1.4088,-1.4088,-1.4088,-1.4179,-1.4224,-1.4256,-1.436,-1.4335,-1.4064,-1.3931,-1.3806,-1.3536,-1.3601,-1.4194,-1.5534,-1.6314,-1.708,-1.7833,-1.7588,-1.7383,-1.7383,-1.7383,-1.7353,-1.7275,-1.7275,-1.707,-1.6599,-1.6658,-1.6523,-1.6105,-1.6426,-1.6551,-1.6473,-1.6133,-1.5977,-1.5968,-1.5576,-1.541,-0.5362,-0.5569,-0.5718,-0.599,-0.6079,-0.612,-0.6061,0.0,0.0,-0.6191,-0.6207,-0.6233,-0.6384,-0.6489,-0.6607,-0.6816,-0.7,-0.7147,-0.7326,-0.7427,-0.7614,-0.7971,-0.8012,-0.8158,-0.8575,-0.8612,-0.8612,-0.8612,-0.8336,-0.8201,-0.8201,-0.7984,-0.7676,-0.7323,-0.7187,-0.7095,-0.7095,-0.7095,-0.7095,-0.7095,-0.7095,-0.7095,-0.7095,-0.7095,-0.7095,-0.7095,-0.7234,-0.7455,-0.7724,-0.794,-0.8204,-0.8428,-0.8564,-0.8612,-0.8612,-0.8612,-0.8872,-0.9345,-1.0289,-1.1235,-1.2143,-1.3094,-1.3737,-1.4088,-1.4088,-1.4088,-1.4088,-1.4088,-1.4088,-1.4088,-1.4088,-1.4088,-1.4088,-1.4088,-1.4088,-1.4088,-1.4088,-1.4212,-1.4393,-1.4475,-1.4522,-1.4543,-1.4469,-1.4201,-1.3968,-1.377,-1.3601,-1.4021,-1.5498,-1.6026,-1.6724,-1.7872,-1.7832,-1.7705,-1.7705,-1.751,-1.7383,-1.7383,-1.7383,-1.7285,-1.708,-1.707,-1.6865,-1.6416,-1.6396,-1.6387,-1.6387,-1.6202,-1.6212,-1.6406,-1.6161,-1.5967,-0.5405,-0.5502,-0.5507,-0.5765,-0.586,-0.5876,-0.5835,-0.5827,-0.5906,-0.6086,-0.6122,-0.6188,-0.6379,-0.6387,-0.6473,0.0,-0.6837,-0.7012,-0.7159,-0.7342,-0.7557,-0.7914,-0.7992,0.0,-0.8518,-0.8588,0.0,-0.852,-0.8204,-0.8069,-0.8069,-0.7632,-0.7323,-0.7095,-0.7095,-0.7095,-0.7095,-0.7095,-0.7095,-0.7095,-0.7095,-0.7095,-0.7095,-0.7095,-0.7095,-0.7095,-0.7323,-0.7459,-0.7551,-0.7896,-0.8113,-0.8201,-0.8428,-0.8564,-0.8612,-0.8612,-0.8612,-0.8872,-1.0679,-1.1284,-1.1628,-1.3483,-1.4088,-1.4088,-1.4088,-1.4088,-1.4088,-1.4088,-1.4088,-1.4088,-1.4088,-1.4088,-1.4088,-1.4088,-1.4088,-1.4088,-1.4088,-1.4237,-1.4482,-1.465,-1.471,-1.4736,-1.4874,-1.4523,-1.4165,-1.4137,-1.3806,-1.4099,-1.5402,-1.5505,-1.6062,-1.7588,-1.7906,-1.8008,-1.8008,-1.7705,-1.7519,-1.7519,-1.7432,-1.7383,-1.7383,-1.7383,-1.7227,-1.6853,-1.6555,-1.6378,-1.6378,-1.6183,-1.6271,-1.656,-1.6463,-1.6309,-0.529,-0.5466,-0.5587,-0.5632,-0.5762,-0.5843,-0.5677,0.0,-0.5689,-0.5872,-0.5943,-0.6014,-0.6355,-0.6387,-0.6473,-0.6682,0.0,-0.6838,-0.7139,-0.7203,-0.7382,-0.778,0.0,0.0,-0.8296,-0.8514,-0.852,-0.8245,-0.7808,-0.7547,-0.7547,-0.7275,-0.7139,-0.7095,-0.7095,-0.7095,-0.7095,-0.7095,-0.7095,-0.7095,-0.7095,-0.7095,-0.7095,-0.7095,-0.7095,-0.7095,-0.7139,-0.7279,0.0,-0.7551,-0.7808,-0.8201,-0.8245,-0.8384,-0.8612,-0.8612,-0.8612,-0.8872,-1.0679,-1.1284,-1.1628,-1.3483,-1.4088,-1.4088,-1.4088,-1.4088,-1.4088,-1.4088,-1.4088,-1.4088,-1.4088,-1.4088,-1.4088,-1.4088,-1.4088,-1.4088,-1.4088,-1.4237,-1.4482,-1.465,-1.4887,-1.5036,-1.4911,-1.4856,-1.4718,-1.4504,-1.4181,-1.4224,-1.5049,-1.4872,-1.5278,-1.6828,-1.7613,-1.8008,-1.8008,-1.7978,-1.7949,-1.7949,-1.7598,-1.7383,-1.7383,-1.7383,-1.7363,-1.7324,-1.7285,-1.7298,-1.7298,-1.6486,-1.6114,-1.6144,-1.5713,-1.5723,-0.527,-0.5349,-0.543,-0.543,-0.5482,-0.5519,-0.5446,0.0,-0.551,-0.5827,-0.5888,-0.5998,-0.6351,-0.6387,-0.644,-0.6509,0.0,0.0,-0.7029,-0.7155,-0.7358,-0.7755,-0.791,0.0,0.0,0.0,-0.8432,-0.8028,-0.768,-0.7415,-0.7279,-0.7143,-0.7095,-0.7095,-0.7095,-0.7095,-0.7095,-0.7095,-0.7095,-0.7095,-0.7095,-0.7095,-0.7095,-0.7095,-0.7095,-0.7095,-0.7095,-0.7143,0.0,-0.7415,-0.7724,-0.8028,-0.8157,-0.838,-0.8612,-0.8612,-0.8612,-0.8872,-1.0679,-1.1284,-1.1628,-1.3483,-1.4088,-1.4088,-1.4088,-1.4088,-1.4088,-1.4088,-1.4088,-1.4088,-1.4088,-1.4088,-1.4088,-1.4088,-1.4088,-1.4088,-1.4088,-1.4166,-1.4286,-1.4482,-1.4608,-1.474,-1.4966,-1.4861,-1.4735,-1.4732,-1.4479,-1.45,-1.5009,-1.497,-1.5238,-1.6088,-1.6872,-1.751,-1.7974,-1.8008,-1.8008,-1.8008,-1.7852,-1.7764,-1.7764,-1.7519,-1.7383,-1.7383,-1.7119,-1.7119,-1.7383,-1.6768,-1.6602,-1.6877,-1.6406,-1.6152,-0.527,-0.5297,-0.5297,-0.5297,-0.5297,-0.5297,-0.5297,0.0,-0.5402,-0.5815,-0.5888,-0.5998,-0.6351,-0.6387,-0.6387,0.0,0.0,-0.6692,-0.6955,-0.7066,-0.7297,-0.7751,0.0,-0.8085,-0.8272,-0.8372,-0.8212,-0.7812,-0.7547,-0.7279,-0.7095,-0.7095,-0.7095,-0.7095,-0.7095,-0.7095,-0.7095,-0.7095,-0.7095,-0.7095,-0.7095,-0.7095,-0.7095,-0.7095,-0.7095,-0.7095,-0.7095,-0.7095,0.0,-0.7323,-0.7591,-0.79,-0.8072,-0.8296,-0.8612,-0.8612,-0.8784,-0.9218,-1.0766,-1.1499,-1.1972,-1.3568,-1.4088,-1.4088,-1.4088,-1.4088,-1.4088,-1.4088,-1.4088,-1.4088,-1.4088,-1.4088,-1.4088,-1.4088,-1.4088,-1.4088,-1.4088,-1.4088,-1.4166,-1.4356,-1.4398,-1.4566,-1.4999,-1.4903,-1.4835,-1.5005,-1.4816,-1.4712,-1.4996,-1.4893,-1.4972,-1.5469,-1.5947,-1.662,-1.7579,-1.7872,-1.8008,-1.8008,-1.8008,-1.8008,-1.8008,-1.7725,-1.7568,-1.7568,-1.7148,-1.708,-1.7383,-1.6943,-1.6863,-1.7187,-1.6843,-1.6631,-0.5297,-0.5297,-0.5297,-0.5297,-0.5297,-0.5297,-0.5297,-0.5297,-0.5402,-0.5815,-0.5888,-0.5998,-0.6351,-0.6387,-0.6387,-0.6387,-0.6387,0.0,-0.6939,-0.6992,-0.7192,0.0,0.0,-0.8085,-0.8272,-0.8064,-0.7812,-0.7507,-0.7279,0.0,-0.7095,-0.7095,-0.7095,-0.7095,-0.7095,-0.7095,-0.7095,-0.7095,-0.7095,-0.7095,-0.7095,-0.7095,-0.7095,-0.7095,-0.7095,-0.7095,-0.7095,-0.7095,0.0,-0.7095,-0.7408,-0.79,-0.79,-0.8212,-0.8612,-0.8612,-0.9126,-1.0033,-1.0977,-1.1929,-1.2833,-1.3786,-1.4088,-1.4088,-1.4088,-1.4088,-1.4088,-1.4088,-1.4088,-1.4088,-1.4088,-1.4088,-1.4088,-1.4088,-1.4088,-1.4088,-1.4088,-1.4088,-1.4166,-1.4356,-1.4398,-1.4566,-1.4999,-1.5082,-1.5166,-1.534,-1.5104,-1.4893,-1.4893,-1.4377,-1.4306,-1.5022,-1.4816,-1.5234,-1.6793,-1.7579,-1.8008,-1.8008,-1.8008,-1.8008,-1.8008,-1.8008,-1.8008,-1.8008,-1.7588,-1.7416,-1.7383,-1.6943,-1.6697,-1.6707,-1.6697,-1.6963,-0.5297,-0.5297,-0.5297,-0.5297,-0.5297,-0.5297,-0.5297,-0.5297,-0.5402,-0.5815,-0.5888,-0.5998,-0.6351,-0.6387,-0.6387,-0.6387,-0.6387,0.0,0.0,0.0,0.0,-0.7559,-0.7717,-0.7929,0.0,0.0,-0.7595,-0.7507,-0.7234,-0.7095,-0.7095,-0.7095,-0.7095,-0.7095,-0.7095,-0.7095,-0.7095,-0.7095,-0.7095,-0.7095,-0.7095,-0.7095,-0.7095,-0.7095,-0.7095,-0.7095,-0.7095,-0.7095,-0.7095,-0.7095,-0.7323,-0.7635,-0.7812,-0.8072,-0.8336,-0.852,-0.917,-1.0028,-1.0977,-1.1929,-1.2833,-1.3786,-1.4088,-1.4088,-1.4088,-1.4088,-1.4088,-1.4088,-1.4088,-1.4088,-1.4088,-1.4088,-1.4088,-1.4088,-1.4088,-1.4088,-1.4088,-1.4088,-1.413,-1.4159,-1.4208,-1.4328,-1.4741,-1.4824,-1.4957,-1.5347,-1.5301,-1.5155,-1.4929,-1.4725,-1.4543,-1.4351,-1.4714,-1.548,-1.6786,-1.7113,-1.7467,-1.7974,-1.8008,-1.8008,-1.8008,-1.8008,-1.8008,-1.8008,-1.7881,-1.7812,-1.7812,-1.7383,-1.7021,-1.6697,-1.6697,-1.6775,-0.5297,-0.5297,-0.5297,-0.5297,-0.5297,0.0,-0.5297,-0.5297,-0.5402,-0.5815,-0.5888,-0.5998,-0.6351,-0.6387,-0.6387,-0.6387,-0.641,-0.6517,0.0,0.0,0.0,-0.7517,0.0,0.0,0.0,-0.768,-0.7459,-0.737,-0.7187,-0.7095,-0.7095,-0.7095,-0.7095,-0.7095,-0.7095,-0.7095,-0.7095,-0.7095,-0.7095,-0.7095,-0.7095,-0.7095,-0.7095,-0.7095,-0.7095,-0.7095,-0.7095,-0.7095,0.0,-0.7095,-0.7279,-0.7507,-0.768,-0.794,-0.8201,-0.8384,-0.9297,-1.0506,-1.1111,-1.2143,-1.3307,-1.3913,-1.4088,-1.4088,-1.4088,-1.4088,-1.4088,-1.4088,-1.4088,-1.4088,-1.4088,-1.4088,-1.4088,-1.4088,-1.4088,-1.4088,-1.4088,-1.4088,-1.4088,-1.4088,-1.4088,-1.4208,-1.4524,-1.465,-1.4824,-1.5215,-1.5347,-1.5316,-1.5112,-1.498,-1.4703,-1.4223,-1.4494,-1.5064,-1.5947,-1.6585,-1.7113,-1.7545,-1.7872,-1.8008,-1.8008,-1.8008,-1.8008,-1.8008,-1.8008,-1.8008,-1.8008,-1.7744,-1.748,-1.7184,-1.7184,-1.7184,0.0,-0.5297,-0.5297,-0.5297,-0.5297,-0.5297,-0.5297,-0.5297,0.0,-0.5815,-0.5888,-0.5998,-0.6351,-0.6387,-0.6387,-0.6387,-0.6398,-0.6433,0.0,-0.6786,0.0,0.0,-0.7793,0.0,-0.7533,-0.7462,-0.737,-0.7139,-0.7095,-0.7095,-0.7095,-0.7095,-0.7095,-0.7095,-0.7095,-0.7095,-0.7095,-0.7095,-0.7095,-0.7095,-0.7095,-0.7095,-0.7095,-0.7095,-0.7095,0.0,-0.7095,-0.7095,-0.7095,-0.7095,-0.7234,-0.7462,-0.7507,-0.7764,-0.8201,-0.8201,-0.9501,-1.1284,-1.1284,-1.2534,-1.4088,-1.4088,-1.4088,-1.4088,-1.4088,-1.4088,-1.4088,-1.4088,-1.4088,-1.4088,-1.4088,-1.4088,-1.4088,-1.4088,-1.4088,-1.4088,-1.4088,-1.4088,-1.4088,-1.4088,-1.4088,-1.4166,-1.4356,-1.4566,-1.4783,-1.5048,-1.5257,-1.5389,-1.5389,-1.5126,-1.4812,-1.4577,-1.4216,-1.4171,-1.4537,-1.593,-1.6828,-1.6897,-1.7579,-1.8008,-1.8008,-1.8008,-1.8008,-1.8008,-1.8008,-1.8008,-1.8008,-1.8008,-1.8008,-1.8008,-1.8008,-1.8008,-0.5183,0.0,-0.5297,-0.5297,-0.5297,-0.5297,0.0,-0.5297,-0.5402,-0.5815,-0.5888,-0.5998,-0.6351,-0.6387,-0.6387,-0.6387,-0.6398,-0.6433,-0.6576,-0.6779,0.0,-0.7405,-0.7311,-0.7278,-0.7478,-0.7323,-0.7187,-0.7095,-0.7095,-0.7095,-0.7095,-0.7095,-0.7095,-0.7095,-0.7095,-0.7095,-0.7095,-0.7095,-0.7095,-0.7095,-0.7095,-0.7095,-0.7095,-0.7095,-0.7095,-0.7095,-0.7095,-0.7095,-0.7095,-0.7095,-0.7143,-0.7231,-0.7415,-0.768,-0.7984,-0.8157,-0.9501,-1.1284,-1.1284,-1.2534,-1.4088,-1.4088,-1.4088,-1.4088,-1.4088,-1.4088,-1.4088,-1.4088,-1.4088,-1.4088,-1.4088,-1.4088,-1.4088,-1.4088,-1.4088,-1.4088,-1.4088,-1.4088,-1.4088,-1.4088,-1.4088,-1.4166,-1.4356,-1.4566,-1.4783,-1.5048,-1.5257,-1.5389,-1.5389,-1.5316,-1.5148,-1.4827,-1.4545,-1.4331,-1.4141,-1.5273,-1.6237,-1.6862,-1.7579,-1.8008,-1.8008,-1.8008,-1.8008,-1.8008,-1.8008,-1.8008,-1.8008,-1.8008,-1.8008,-1.8008,-1.8008,-1.8008,-0.5128,-0.5156,-0.5215,-0.5215,-0.5215,-0.5215,-0.5297,-0.5297,-0.5398,-0.5688,-0.5824,-0.5994,-0.6253,-0.6317,-0.6317,-0.6383,-0.6329,0.0,0.0,0.0,-0.6958,-0.7207,-0.7132,-0.7144,0.0,-0.7187,-0.7095,-0.7095,-0.7095,-0.7095,-0.7095,-0.7095,-0.7095,-0.7095,-0.7095,-0.7095,-0.7095,-0.7095,-0.7095,-0.7095,-0.7095,-0.7095,-0.7095,-0.7095,-0.7095,-0.7095,-0.7095,-0.7095,-0.7095,-0.7095,-0.7095,-0.7095,-0.7279,-0.7503,-0.7724,-0.7984,-0.9371,-1.1187,-1.1278,-1.2534,-1.4088,-1.4088,-1.4088,-1.4088,-1.4088,-1.4088,-1.4088,-1.4088,-1.4088,-1.4088,-1.4088,-1.4088,-1.4088,-1.4088,-1.4088,-1.4088,-1.4088,-1.4088,-1.4088,-1.4088,-1.4088,-1.4124,-1.4243,-1.4447,-1.4608,-1.4741,-1.5041,-1.5264,-1.5264,-1.5347,-1.5265,-1.4936,-1.4655,-1.4372,-1.4049,-1.4715,-1.5384,-1.5807,-1.655,-1.7123,-1.7476,-1.751,-1.7647,-1.7974,-1.8008,-1.8008,-1.8008,-1.8008,-1.8008,-1.8008,-1.8008,-1.8008,-0.5097,-0.5042,-0.5042,-0.5069,-0.5097,-0.5128,-0.5215,-0.529,-0.5373,-0.5542,-0.5722,0.0,0.0,-0.6148,0.0,0.0,0.0,0.0,-0.6524,-0.6663,-0.6815,-0.6926,-0.708,0.0,-0.7082,-0.7095,-0.7095,-0.7095,-0.7095,-0.7095,-0.7095,-0.7095,-0.7095,-0.7095,-0.7095,-0.7095,-0.7095,-0.7095,-0.7095,-0.7095,-0.7095,-0.7095,-0.7095,-0.7095,-0.7095,-0.7095,-0.7095,0.0,-0.7095,-0.7095,-0.7095,-0.7095,-0.7095,-0.7279,-0.7551,-0.7812,-0.9109,-1.0875,-1.1322,-1.2662,-1.4088,-1.4088,-1.4088,-1.4088,-1.4088,-1.4088,-1.4088,-1.4088,-1.4088,-1.4088,-1.4088,-1.4088,-1.4088,-1.4088,-1.4088,-1.4088,-1.4088,-1.4088,-1.4088,-1.4088,-1.4088,-1.4088,-1.4088,-1.4286,-1.4398,-1.4398,-1.4741,-1.5048,-1.5048,-1.5215,-1.5238,-1.4961,-1.4688,-1.4414,-1.4084,-1.4361,-1.4485,-1.4438,-1.5251,-1.6026,-1.6689,-1.6724,-1.7079,-1.7828,-1.7828,-1.7906,-1.8008,-1.7906,-1.7828,-1.7828,-1.7828,-1.7828,-0.4956,-0.4849,-0.4798,-0.4901,-0.5014,-0.5069,-0.4983,-0.5185,-0.5409,0.0,0.0,0.0,0.0,-0.5954,-0.6003,0.0,0.0,-0.6275,0.0,0.0,-0.661,-0.6723,0.0,-0.6983,-0.7082,-0.7095,-0.7095,-0.7095,-0.7095,-0.7095,-0.7095,-0.7095,-0.7095,-0.7095,-0.7095,-0.7095,-0.7095,-0.7095,-0.7095,-0.7095,-0.7095,-0.7095,-0.7095,-0.7095,-0.7095,-0.7095,0.0,-0.7095,-0.7095,-0.7095,-0.7095,-0.7095,-0.7095,-0.7279,-0.7551,-0.7812,-0.8719,-1.0053,-1.188,-1.3179,-1.4088,-1.4088,-1.4088,-1.4088,-1.4088,-1.4088,-1.4088,-1.4088,-1.4088,-1.4088,-1.4088,-1.4088,-1.4088,-1.4088,-1.4088,-1.4088,-1.4088,-1.4088,-1.4088,-1.4088,-1.4088,-1.4088,-1.4088,-1.4286,-1.4398,-1.4398,-1.4608,-1.4776,-1.4776,-1.4999,-1.5117,-1.506,-1.4935,-1.4743,-1.446,-1.4206,-1.3963,-1.3688,-1.4939,-1.5745,-1.5886,-1.5886,-1.6271,-1.7044,-1.7079,-1.7364,-1.8008,-1.7364,-1.7079,-1.7079,-1.7079,-1.7079,-0.4928,-0.4794,-0.4688,-0.468,-0.4794,-0.4877,-0.4901,-0.5088,-0.5232,-0.5242,0.0,0.0,0.0,0.0,-0.5899,-0.604,0.0,-0.6303,-0.6314,-0.6494,-0.662,0.0,0.0,-0.7024,-0.7088,-0.7095,-0.7095,-0.7095,-0.7095,-0.7095,-0.7095,-0.7095,-0.7095,-0.7095,-0.7095,-0.7095,-0.7095,-0.7095,-0.7095,-0.7095,-0.7095,-0.7095,-0.7095,-0.7095,-0.7095,-0.7095,0.0,-0.7095,-0.7095,-0.7095,-0.7095,-0.7095,-0.7095,-0.7187,-0.7408,-0.8281,-0.9366,-1.0572,-1.2137,-1.3307,-1.4088,-1.4088,-1.4088,-1.4088,-1.4088,-1.4088,-1.4088,-1.4088,-1.4088,-1.4088,-1.4088,-1.4088,-1.4088,-1.4088,-1.4088,-1.4088,-1.4088,-1.4088,-1.4088,-1.4088,-1.4088,-1.4088,-1.4088,-1.4166,-1.4243,-1.4243,-1.4405,-1.4524,-1.4524,-1.4741,-1.4866,-1.4866,-1.4714,-1.4488,-1.4291,-1.3966,-1.3686,-1.3514,-1.451,-1.51,-1.51,-1.5498,-1.5877,-1.6237,-1.6263,-1.6411,-1.6768,-1.6411,-1.6263,-1.6263,-1.6263,-1.6263,-0.4928,-0.4767,-0.4632,-0.4519,-0.4605,-0.4715,-0.4791,-0.4972,-0.5096,-0.5069,0.0,0.0,0.0,-0.5731,0.0,-0.5993,-0.617,-0.6311,-0.6282,-0.6515,-0.6702,-0.6702,-0.6916,-0.7095,-0.7095,-0.7095,-0.7095,-0.7095,-0.7095,-0.7095,-0.7095,-0.7095,-0.7095,-0.7095,-0.7095,-0.7095,-0.7095,-0.7095,-0.7095,-0.7095,-0.7095,-0.7095,-0.7095,-0.7095,-0.7095,-0.7095,-0.7095,-0.7095,-0.7095,-0.7095,-0.7095,-0.7095,-0.7095,-0.7143,-0.7319,-0.8408,-0.9579,-1.0788,-1.166,-1.2613,-1.344,-1.344,-1.361,-1.3779,-1.3779,-1.3913,-1.4088,-1.4088,-1.4088,-1.4088,-1.4088,-1.4088,-1.4088,-1.4088,-1.4088,-1.4088,-1.4088,-1.4088,-1.4088,-1.4088,-1.4088,-1.4088,-1.4088,-1.4088,-1.4088,-1.4088,-1.4243,-1.4321,-1.4321,-1.4524,-1.465,-1.465,-1.4489,-1.4318,-1.4127,-1.3806,-1.3566,-1.3514,-1.4013,-1.4322,-1.4322,-1.4895,-1.5286,-1.5428,-1.5428,-1.5534,-1.571,-1.5534,-1.5428,-1.5428,-1.5428,-1.5428,-0.4873,-0.4708,-0.4519,-0.4491,-0.4605,-0.466,-0.4546,-0.4829,-0.5079,-0.4945,-0.5177,0.0,0.0,-0.5806,-0.6003,-0.599,-0.6187,-0.6286,-0.6296,0.0,-0.6702,-0.6702,-0.6916,-0.7095,-0.7095,-0.7095,-0.7095,-0.7095,-0.7095,-0.7095,-0.7095,-0.7095,-0.7095,-0.7095,-0.7095,-0.7095,-0.7095,-0.7095,-0.7095,-0.7095,-0.7095,-0.7095,-0.7095,-0.7095,-0.7095,-0.7095,-0.7095,-0.7095,-0.7095,-0.7095,-0.7095,-0.7095,-0.7095,-0.7234,-0.7462,-0.7591,-0.85,-0.971,-0.9797,-1.0582,-1.1494,-1.1494,-1.21,-1.279,-1.279,-1.3398,-1.4088,-1.4088,-1.4088,-1.4088,-1.4088,-1.4088,-1.4088,-1.4088,-1.4088,-1.4088,-1.4088,-1.4088,-1.4088,-1.4088,-1.4088,-1.4088,-1.4088,-1.4088,-1.4088,-1.4088,-1.413,-1.413,-1.413,-1.4279,-1.4433,-1.4433,-1.4587,-1.4509,-1.4148,-1.3806,-1.3566,-1.3514,-1.3564,-1.3564,-1.3564,-1.3637,-1.3985,-1.4673,-1.4673,-1.5029,-1.571,-1.4994,-1.4673,-1.4673,-1.4673,-1.4673,-0.477,-0.4629,-0.4491,-0.4491,-0.4546,-0.4574,-0.4519,-0.4755,-0.4945,-0.4918,-0.523,-0.5579,0.0,0.0,-0.6023,-0.6159,-0.6259,-0.63,-0.63,-0.6515,-0.6702,-0.6702,-0.6916,-0.7095,-0.7095,-0.7095,-0.7095,-0.7095,-0.7095,-0.7095,-0.7095,-0.7095,-0.7095,-0.7095,-0.7095,-0.7095,-0.7095,-0.7095,-0.7095,-0.7095,-0.7095,-0.7095,-0.7095,-0.7095,-0.7095,-0.7095,-0.7095,-0.7095,-0.7095,-0.7095,-0.7095,-0.7095,-0.7095,-0.7143,-0.7279,-0.7459,-0.8285,-0.9366,-0.9536,-1.0366,-1.1408,-1.1972,-1.24,-1.2705,-1.2705,-1.296,-1.3222,-1.3222,-1.3222,-1.3349,-1.3955,-1.4088,-1.4088,-1.4088,-1.4088,-1.4088,-1.4088,-1.4088,-1.4088,-1.4088,-1.4088,-1.4088,-1.4088,-1.4088,-1.4088,-1.4088,-1.4088,-1.4088,-1.4088,-1.4166,-1.4201,-1.4201,-1.4206,-1.413,-1.3937,-1.3729,-1.3566,-1.3514,-1.3492,-1.3492,-1.3492,-1.3492,-1.3637,-1.3912,-1.3912,-1.4057,-1.4338,-1.4057,-1.3912,-1.3912,-1.3912,-1.3912,-0.4688,-0.4605,-0.4491,-0.4491,-0.4491,-0.4501,-0.4552,-0.4735,-0.4901,-0.4945,-0.5345,-0.5732,-0.5946,0.0,0.0,0.0,-0.63,-0.63,-0.63,-0.6515,-0.6702,-0.6702,-0.6916,-0.7095,-0.7095,-0.7095,-0.7095,-0.7095,-0.7095,-0.7095,-0.7095,-0.7095,-0.7095,-0.7095,-0.7095,-0.7095,-0.7095,-0.7095,-0.7095,-0.7095,-0.7095,-0.7095,-0.7095,-0.7095,-0.7095,-0.7095,-0.7095,-0.7095,-0.7095,-0.7095,-0.7095,-0.7095,-0.7095,-0.7095,-0.7139,-0.7323,-0.7933,-0.8715,-0.8978,-0.9628,-1.0458,-1.1154,-1.1585,-1.1843,-1.1843,-1.2229,-1.2705,-1.2705,-1.2705,-1.2833,-1.3483,-1.387,-1.4088,-1.4088,-1.4088,-1.4088,-1.4088,-1.4088,-1.4088,-1.4088,-1.4088,-1.4088,-1.4088,-1.4088,-1.4088,-1.4088,-1.4088,-1.4088,-1.4088,-1.4088,-1.4088,-1.4088,-1.4033,-1.3947,-1.3952,-1.38,-1.3679,-1.3667,-1.355,-1.3492,-1.3492,-1.3492,-1.3492,-1.3492,-1.3492,-1.3492,-1.3492,-1.3455,-1.3419,-1.3419,-1.3419,-1.3382,-0.466,-0.4605,-0.4491,-0.4491,-0.4491,-0.4532,-0.4657,-0.4813,-0.4931,-0.5076,-0.546,-0.5814,-0.5966,-0.6156,0.0,-0.63,-0.63,-0.63,-0.63,-0.6515,-0.6698,-0.6702,-0.6916,-0.7095,-0.7095,-0.7095,-0.7095,-0.7095,-0.7095,-0.7095,-0.7095,-0.7095,-0.7095,-0.7095,-0.7095,-0.7095,-0.7095,-0.7095,-0.7095,-0.7095,-0.7095,-0.7095,-0.7095,-0.7095,-0.7095,-0.7095,-0.7095,-0.7095,-0.7095,-0.7095,-0.7095,-0.7095,-0.7095,-0.7095,-0.7095,-0.7095,-0.7279,-0.7551,-0.7812,-0.8028,-0.8245,-0.852,-0.9213,-0.9903,-0.9903,-1.1198,-1.2662,-1.2662,-1.2662,-1.2662,-1.2662,-1.3398,-1.4088,-1.4088,-1.4088,-1.4088,-1.4088,-1.4088,-1.4088,-1.4088,-1.4088,-1.4088,-1.4088,-1.4088,-1.4088,-1.4088,-1.4088,-1.4088,-1.4088,-1.4088,-1.4088,-1.4088,-1.4088,-1.417,-1.4266,-1.3999,-1.3846,-1.4004,-1.3682,-1.3499,-1.3492,-1.3492,-1.3492,-1.3492,-1.3492,-1.3492,-1.3492,-1.3309,-1.32,-1.32,-1.32,-1.3083,-0.4546,-0.4519,-0.4405,-0.3959,-0.3876,-0.3795,-0.3565,-0.4313,-0.5006,0.0,-0.4512,-0.4398,-0.5158,-0.533,0.0,-0.6183,-0.63,-0.63,-0.63,-0.6463,-0.658,-0.6688,-0.6871,-0.6987,-0.7088,-0.7095,-0.7095,-0.7095,-0.7095,-0.7095,-0.7095,-0.7095,-0.7095,-0.7095,-0.7095,-0.7095,-0.7095,-0.7095,-0.7095,-0.7095,-0.7095,-0.7095,-0.7095,-0.7095,-0.7095,-0.7095,-0.7095,-0.7095,-0.7095,-0.7095,-0.7095,-0.7095,-0.7095,-0.7095,-0.7095,-0.7095,-0.7279,-0.7551,-0.7812,-0.8028,-0.8332,-0.9209,-0.9685,-0.9903,-0.9903,-1.0289,-1.0722,-1.0722,-1.0722,-1.0895,-1.1542,-1.1929,-1.2143,-1.2143,-1.2143,-1.2143,-1.2143,-1.2143,-1.2143,-1.2143,-1.2143,-1.2143,-1.2143,-1.2143,-1.2357,-1.3009,-1.3137,-1.3349,-1.3997,-1.4088,-1.4088,-1.4088,-1.4088,-1.4094,-1.4035,-1.3926,-1.386,-1.386,-1.3754,-1.3658,-1.3514,-1.3492,-1.3492,-1.3492,-1.3346,-1.3309,-1.3309,-1.3083,-1.2973,-1.2973,-1.2973,-1.2973,-0.4491,-0.4491,-0.4349,-0.3766,-0.3607,-0.3527,-0.3181,-0.3773,0.0,0.0,-0.3847,-0.3726,-0.4397,-0.4533,0.0,-0.5631,-0.5789,-0.5789,-0.5789,-0.6182,-0.6384,-0.6147,-0.6586,-0.692,-0.7004,-0.7061,-0.7095,-0.7095,-0.7095,-0.7095,-0.7095,-0.7095,-0.7095,-0.7095,-0.7095,-0.7095,-0.7095,-0.7095,-0.7095,-0.7095,-0.7095,-0.7095,-0.7095,-0.7095,-0.7095,-0.7095,-0.7095,-0.7095,-0.7095,-0.7095,-0.7095,-0.7095,-0.7095,-0.7095,-0.7095,-0.7095,-0.7187,-0.7367,-0.7635,-0.79,-0.8201,-0.8986,-0.9297,-0.9388,-0.9388,-0.9641,-0.9903,-0.9903,-0.9903,-1.0028,-1.0593,-1.0506,-1.0419,-1.1111,-1.1284,-1.1284,-1.1284,-1.1284,-1.1284,-1.1284,-1.1284,-1.1284,-1.1284,-1.1628,-1.2057,-1.2613,-1.3009,-1.3483,-1.4046,-1.4088,-1.4088,-1.4088,-1.4088,-1.4099,-1.4117,-1.3995,-1.3933,-1.3973,-1.3887,-1.3772,-1.3624,-1.3488,-1.3365,-1.3273,-1.3119,-1.3083,-1.3083,-1.2863,-1.2783,-1.2783,-1.2783,-1.2746,-0.4491,-0.4491,-0.4349,-0.3683,-0.3439,-0.3313,-0.3135,-0.3114,-0.3167,-0.3375,0.0,-0.3394,-0.3622,-0.3677,-0.3947,-0.4768,-0.4885,-0.4885,-0.4885,-0.5692,-0.5974,-0.5267,-0.6133,-0.6764,-0.6866,-0.698,-0.7055,-0.7055,-0.7055,-0.7055,-0.7055,-0.7055,-0.7055,-0.7055,-0.7055,-0.7061,-0.7078,-0.7078,-0.7085,-0.7095,-0.7095,-0.7095,-0.7095,-0.7095,-0.7095,-0.7095,-0.7095,-0.7095,-0.7095,-0.7095,-0.7095,-0.7095,-0.7095,-0.7095,-0.7095,-0.7095,-0.7095,-0.7143,-0.7415,-0.768,-0.79,-0.8113,-0.838,-0.8564,-0.8612,-0.917,-0.9772,-0.9772,-0.9772,-0.9772,-0.9772,-0.9213,-0.8999,-1.0679,-1.1063,-1.1063,-1.1063,-1.1063,-1.1063,-1.1063,-1.1063,-1.1063,-1.1063,-1.1757,-1.2357,-1.2528,-1.344,-1.4088,-1.4088,-1.4088,-1.4088,-1.4088,-1.4088,-1.4166,-1.4356,-1.4076,-1.4008,-1.4287,-1.4022,-1.3808,-1.378,-1.3481,-1.3226,-1.2984,-1.294,-1.2947,-1.2947,-1.2755,-1.2651,-1.2644,-1.2617,-1.253,-0.4491,-0.4491,-0.4239,-0.3153,-0.2221,-0.1566,-0.1578,-0.1601,-0.1869,-0.2581,-0.2218,-0.1988,-0.2663,-0.2784,-0.3056,-0.391,-0.4066,-0.4066,-0.4066,-0.424,-0.4599,-0.5133,-0.5436,-0.5879,-0.6652,-0.6776,-0.6797,-0.6797,-0.6797,-0.6797,-0.6797,-0.6797,-0.6797,-0.6797,-0.6797,-0.6854,-0.693,-0.693,-0.6987,-0.7095,-0.7095,-0.7095,-0.7095,-0.7095,-0.7095,-0.7095,-0.7095,-0.7095,-0.7095,-0.7095,-0.7095,-0.7095,-0.7095,-0.7095,-0.7095,-0.7095,-0.7095,-0.7143,-0.7415,-0.7551,-0.7635,-0.8069,-0.8245,-0.8336,-0.852,-0.874,-0.8867,-0.8867,-0.8867,-0.8867,-0.8867,-0.874,-0.8696,-0.9087,-0.9174,-0.9174,-0.9174,-0.9174,-0.9174,-0.9174,-0.9174,-0.9174,-0.9174,-0.9345,-0.9951,-1.137,-1.3052,-1.4088,-1.4088,-1.4088,-1.4088,-1.4088,-1.4088,-1.413,-1.4166,-1.4112,-1.4079,-1.4156,-1.4095,-1.3912,-1.3635,-1.3689,-1.3684,-1.3621,-1.3466,-1.3381,-1.3381,-1.3162,-1.3052,-1.3084,-1.2842,-1.2728,-0.4156,-0.4073,-0.3794,-0.2615,0.0,-0.1033,-0.1123,-0.1191,-0.1331,-0.1827,-0.161,-0.1414,-0.1845,-0.1923,-0.2196,-0.3054,-0.3171,-0.3171,-0.3171,-0.3521,-0.381,-0.3901,-0.4348,-0.4844,-0.535,-0.5455,-0.5488,-0.5488,-0.5904,-0.6111,-0.6111,-0.6491,-0.6702,-0.6702,-0.6702,-0.6739,-0.6817,-0.682,-0.6858,-0.6929,-0.6929,-0.6929,-0.6936,-0.7031,-0.7095,-0.7095,-0.7095,-0.7095,-0.7095,-0.7095,-0.7095,-0.7095,-0.7095,-0.7095,-0.7095,-0.7095,-0.7095,-0.7139,-0.7279,-0.7415,-0.7551,-0.7768,-0.8025,-0.8245,-0.838,-0.852,-0.8612,-0.8612,-0.8612,-0.8612,-0.8612,-0.8612,-0.8612,-0.8612,-0.8612,-0.8612,-0.8612,-0.8612,-0.8612,-0.8612,-0.8612,-0.8612,-0.8612,-0.8955,-0.9689,-1.1111,-1.2143,-1.2918,-1.3355,-1.344,-1.361,-1.4039,-1.4088,-1.4088,-1.4088,-1.4088,-1.4088,-1.4088,-1.4088,-1.4015,-1.3861,-1.3906,-1.381,-1.3523,-1.3397,-1.3358,-1.3358,-1.3246,-1.3213,-1.3206,-1.3046,-1.2924,-0.3904,-0.3613,-0.3204,-0.217,-0.1458,0.0,-0.114,-0.1199,-0.1219,-0.1277,-0.1293,-0.1296,-0.1296,-0.1296,-0.1532,-0.2198,-0.2276,-0.2276,-0.2276,-0.2898,-0.3171,-0.2588,-0.3228,-0.3786,-0.3947,-0.4059,-0.4144,-0.4144,-0.4927,-0.5421,-0.5421,-0.6207,-0.6624,-0.6624,-0.6624,-0.6637,-0.6661,-0.6661,-0.6675,-0.6702,-0.6702,-0.6702,-0.6709,-0.691,-0.7034,-0.7061,-0.7085,-0.7095,-0.7095,-0.7095,-0.7095,-0.7095,-0.7095,-0.7095,-0.7095,-0.7095,-0.7095,-0.7095,-0.7095,-0.7234,-0.7459,-0.7507,-0.7764,-0.8113,-0.8157,-0.8336,-0.852,-0.8568,-0.8612,-0.8612,-0.8612,-0.8612,-0.8612,-0.8612,-0.8612,-0.8612,-0.8612,-0.8612,-0.8612,-0.8612,-0.8612,-0.8612,-0.8612,-0.9345,-1.0159,-1.0933,-1.1198,-1.1585,-1.2357,-1.2448,-1.2747,-1.3525,-1.3743,-1.387,-1.387,-1.4004,-1.4088,-1.4088,-1.4088,-1.4088,-1.4088,-1.4088,-1.3861,-1.3373,-1.336,-1.336,-1.336,-1.336,-1.336,-1.336,-1.3307,-1.3146,-0.4405,0.0,-0.2665,0.0,-0.1447,-0.1017,0.0,0.0,-0.1213,0.0,-0.1277,-0.1296,-0.1296,-0.1296,-0.1335,-0.1453,-0.1453,-0.1453,-0.1453,-0.157,-0.1845,-0.2431,-0.2636,-0.2992,-0.3771,-0.3862,-0.3868,-0.3868,-0.4616,-0.505,-0.505,-0.5882,-0.6358,-0.6358,-0.6358,-0.6419,-0.6542,-0.6542,-0.6569,-0.6702,-0.6702,-0.6702,-0.6702,-0.6742,-0.6831,-0.692,-0.7045,-0.7095,-0.7095,-0.7095,-0.7095,-0.7095,-0.7095,-0.7095,-0.7095,-0.7095,-0.7095,-0.7095,-0.7095,-0.7139,-0.7187,-0.7415,-0.7551,-0.768,-0.8069,-0.8245,-0.8292,-0.852,-0.8612,-0.8612,-0.8612,-0.8612,-0.8612,-0.8612,-0.8612,-0.8612,-0.8612,-0.8612,-0.8612,-0.8612,-0.8612,-0.8612,-0.8612,-0.9345,-0.9946,-1.0072,-1.0766,-1.137,-1.1451,-1.1499,-1.1537,-1.1671,-1.2406,-1.2875,-1.2875,-1.361,-1.4088,-1.4088,-1.4088,-1.4088,-1.4088,-1.4088,-1.4048,-1.3968,-1.3968,-1.3968,-1.3968,-1.3968,-1.3968,-1.3961,-1.366,-1.3527,-0.3682,-0.2947,-0.2209,0.0,-0.1241,-0.1068,-0.1076,-0.1144,-0.1212,-0.1205,-0.1236,-0.1296,-0.1296,-0.1296,-0.1296,-0.1296,-0.1296,-0.1296,-0.1296,-0.1296,-0.1414,-0.1766,-0.1846,-0.1961,-0.2352,-0.2391,-0.2391,-0.2391,-0.3134,-0.3602,-0.3602,-0.4849,-0.5553,-0.5553,-0.6064,-0.633,-0.6392,-0.6395,-0.6426,-0.6494,-0.6494,-0.6494,-0.6497,-0.6536,-0.6658,-0.6803,-0.6868,-0.6895,-0.6902,-0.6943,-0.6977,-0.6987,-0.7065,-0.7095,-0.7095,-0.7095,-0.7095,-0.7095,-0.7095,-0.7095,-0.7139,-0.7231,-0.7499,-0.7768,-0.7984,-0.8204,-0.8428,-0.8564,-0.8612,-0.8612,-0.8612,-0.8612,-0.8612,-0.8612,-0.8612,-0.8612,-0.8612,-0.8612,-0.8612,-0.8612,-0.8612,-0.8612,-0.8612,-0.8911,-0.917,-0.917,-0.9515,-0.9946,-1.0463,-1.0506,-1.0722,-1.1241,-1.1666,-1.1929,-1.1929,-1.2272,-1.2747,-1.3264,-1.3307,-1.3568,-1.4088,-1.4088,-1.4088,-1.4088,-1.4088,-1.4088,-1.4088,-1.4088,-1.4088,-1.4082,-1.3955,-1.3714,-0.3001,0.0,-0.1868,-0.1204,-0.106,-0.1116,0.0,0.0,-0.1164,0.0,-0.1224,-0.1287,-0.1295,-0.1296,-0.1296,-0.1296,-0.1296,-0.1296,-0.1296,-0.1296,-0.1296,-0.1296,-0.1296,-0.1296,-0.1296,-0.1296,-0.1296,-0.1296,-0.2041,-0.2511,-0.2511,-0.4107,-0.5004,-0.5004,-0.5828,-0.63,-0.63,-0.63,-0.63,-0.63,-0.63,-0.63,-0.6303,-0.6409,-0.6521,-0.6593,-0.6668,-0.6702,-0.6709,-0.6824,-0.6829,-0.6839,-0.6943,-0.7007,-0.7045,-0.7045,-0.7065,-0.7095,-0.7095,-0.7095,-0.7095,-0.7187,-0.7455,-0.7812,-0.794,-0.8208,-0.852,-0.8568,-0.8612,-0.8612,-0.8612,-0.8612,-0.8612,-0.8612,-0.8612,-0.8612,-0.8612,-0.8612,-0.8612,-0.8612,-0.8612,-0.8612,-0.8612,-0.8612,-0.8612,-0.8612,-0.8612,-0.8828,-0.9471,-0.9559,-0.982,-1.0549,-1.0809,-1.0933,-1.0933,-1.1154,-1.158,-1.2314,-1.2357,-1.2662,-1.3349,-1.3392,-1.3392,-1.3392,-1.361,-1.387,-1.4088,-1.4088,-1.4088,-1.4088,-1.4088,-1.3814,0.0,-0.2357,0.0,-0.1233,-0.1108,-0.1109,0.0,0.0,-0.1132,-0.1199,-0.1193,-0.1223,-0.1291,-0.1296,-0.1296,-0.1296,-0.1296,-0.1296,-0.1296,-0.1296,-0.1296,-0.1296,-0.1296,-0.1296,-0.1296,-0.1296,-0.1296,-0.1296,-0.2041,-0.2511,-0.2511,-0.4107,-0.5004,-0.5004,-0.5828,-0.63,-0.63,-0.63,-0.63,-0.63,-0.63,-0.63,-0.63,-0.6306,-0.6317,-0.6337,-0.658,-0.6702,-0.6702,-0.6709,-0.6712,-0.6712,-0.6719,-0.681,-0.6896,-0.6896,-0.698,-0.7095,-0.7095,-0.7095,-0.7143,-0.7415,-0.7507,-0.7591,-0.8069,-0.8201,-0.8288,-0.852,-0.8612,-0.8612,-0.8612,-0.8612,-0.8612,-0.8612,-0.8612,-0.8612,-0.8612,-0.8612,-0.8612,-0.8612,-0.8612,-0.8612,-0.8612,-0.8612,-0.8612,-0.8612,-0.8612,-0.8608,-0.8652,-0.8656,-0.8696,-0.874,-0.9471,-0.999,-0.999,-1.0809,-1.1322,-1.137,-1.137,-1.1408,-1.1456,-1.1456,-1.1456,-1.1456,-1.2314,-1.3222,-1.4088,-1.4088,-1.4088,-1.4088,-1.4088,-1.3921,0.0,0.0,0.0,-0.124,-0.1109,-0.1109,-0.1109,-0.1099,-0.1124,-0.1135,-0.1161,-0.1192,-0.1222,-0.1283,-0.1296,-0.1296,-0.1296,-0.1296,-0.1296,-0.1296,-0.1296,-0.1296,-0.1296,-0.1296,-0.1296,-0.1296,-0.1296,-0.1296,-0.1571,-0.1727,-0.1727,-0.2784,-0.364,-0.4222,-0.5043,-0.5747,-0.63,-0.63,-0.63,-0.63,-0.63,-0.63,-0.63,-0.63,-0.63,-0.6306,-0.6412,-0.646,-0.6467,-0.6515,-0.6556,-0.6563,-0.6661,-0.6732,-0.6783,-0.6783,-0.6875,-0.696,-0.696,-0.7021,-0.7095,-0.7231,-0.737,-0.7547,-0.7896,-0.8113,-0.8245,-0.852,-0.8612,-0.8612,-0.8612,-0.8612,-0.8612,-0.8612,-0.8612,-0.8612,-0.8612,-0.8612,-0.8612,-0.8612,-0.8612,-0.8612,-0.8612,-0.8612,-0.8612,-0.8612,-0.8612,-0.8612,-0.8612,-0.8612,-0.8612,-0.8612,-0.8867,-0.9087,-0.9087,-0.9388,-0.982,-1.0376,-1.0419,-1.0679,-1.1284,-1.1284,-1.1284,-1.1284,-1.1628,-1.2272,-1.3179,-1.3828,-1.4088,-1.4082,-1.3895,-1.3606,-0.2029,0.0,0.0,-0.121,-0.1109,-0.1109,-0.1109,-0.1091,-0.1109,-0.1084,-0.1137,-0.116,-0.1191,-0.1251,-0.1272,-0.1293,-0.1296,-0.1296,-0.1296,-0.1296,-0.1296,-0.1296,-0.1296,-0.1296,-0.1296,-0.1296,-0.1296,-0.1296,-0.1296,0.0,-0.1296,-0.208,-0.3017,-0.4183,-0.5004,-0.5712,-0.63,-0.63,-0.63,-0.63,-0.63,-0.63,-0.63,-0.63,-0.63,-0.63,-0.63,-0.63,-0.6306,-0.6402,-0.6443,-0.645,-0.6512,-0.6583,-0.6624,-0.6624,-0.6722,-0.6851,-0.6851,-0.6906,-0.7068,-0.7155,-0.7325,-0.7551,-0.7812,-0.8028,-0.8245,-0.8428,-0.852,-0.8612,-0.8612,-0.8612,-0.8612,-0.8612,-0.8612,-0.8612,-0.8612,-0.8612,-0.8612,-0.8612,-0.8612,-0.8612,-0.8612,-0.8612,-0.8612,-0.8612,-0.8612,-0.8612,-0.8612,-0.8612,-0.8612,-0.8612,-0.8612,-0.8612,-0.8612,-0.8612,-0.8823,-0.9432,-0.9471,-0.9728,-1.0381,-1.0381,-1.0381,-1.0381,-1.0679,-1.1154,-1.1757,-1.2705,-1.3262,-1.351,-1.3274,-1.3145,0.0,0.0,0.0,-0.1109,-0.1109,-0.1109,-0.1109,-0.1109,-0.1084,-0.1114,-0.1084,-0.1129,-0.1196,-0.1201,-0.1222,-0.1284,-0.1294,-0.1295,-0.1296,-0.1296,-0.1296,-0.1296,-0.1296,-0.1296,-0.1296,-0.1296,-0.1296,-0.1296,-0.1296,-0.1296,-0.1296,-0.208,-0.3251,-0.4924,-0.5828,-0.6261,-0.63,-0.63,-0.63,-0.63,-0.63,-0.63,-0.63,-0.63,-0.63,-0.63,-0.63,-0.63,-0.63,-0.63,-0.63,-0.63,-0.63,-0.6385,-0.6504,-0.6504,-0.6563,-0.6695,-0.6695,-0.6793,-0.6922,-0.7218,-0.7368,-0.7544,-0.7804,-0.8025,-0.8201,-0.8201,-0.8384,-0.8612,-0.8612,-0.8612,-0.8612,-0.8612,-0.8612,-0.8612,-0.8612,-0.8612,-0.8612,-0.8612,-0.8612,-0.8612,-0.8612,-0.8612,-0.8612,-0.8612,-0.8612,-0.8612,-0.8612,-0.8612,-0.8612,-0.8612,-0.8612,-0.8612,-0.8612,-0.8612,-0.8612,-0.8612,-0.8612,-0.8612,-0.8612,-0.8612,-0.8612,-0.8612,-0.9428,-0.9854,-0.985,-1.0842,-1.1623,-1.2271,-1.2253,-1.2407,-0.1329,0.0,0.0,0.0,0.0,0.0,-0.1109,-0.1109,-0.1112,-0.1087,-0.1088,-0.1097,-0.1128,-0.1134,-0.1146,-0.1222,-0.121,-0.1232,-0.1293,-0.1296,-0.1296,-0.1296,-0.1296,-0.1296,-0.1296,-0.1296,-0.1296,0.0,-0.1296,-0.1296,-0.1296,-0.208,-0.3017,-0.4105,-0.4927,-0.567,-0.63,-0.63,-0.63,-0.63,-0.63,-0.63,-0.63,-0.63,-0.63,-0.63,-0.63,-0.63,-0.63,-0.63,-0.63,-0.63,-0.63,-0.6323,-0.6358,-0.6358,-0.645,-0.6536,-0.6536,-0.6634,-0.6763,-0.6846,-0.6949,-0.712,-0.7375,-0.7585,-0.7724,-0.794,-0.816,-0.8336,-0.8564,-0.8612,-0.8612,-0.8612,-0.8612,-0.8612,-0.8612,-0.8612,-0.8612,-0.8612,-0.8612,-0.8612,-0.8612,-0.8612,-0.8612,-0.8612,-0.8612,-0.8612,-0.8612,-0.8612,-0.8612,-0.8612,-0.8612,-0.8612,-0.8612,-0.8612,-0.8612,-0.8612,-0.8612,-0.8612,-0.8612,-0.8612,-0.8612,-0.8612,-0.8828,-0.8887,-0.8747,-1.0304,-1.1193,-1.133,-1.1008,-1.079,0.0,0.0,0.0,-0.1109,0.0,0.0,-0.1109,-0.1109,-0.1109,-0.1109,-0.1109,-0.1115,-0.1099,-0.1102,-0.1112,-0.1142,-0.1162,-0.1185,-0.1253,-0.1258,-0.1258,-0.1258,-0.1258,-0.1258,-0.1258,-0.1258,-0.1258,-0.1258,-0.1258,-0.1263,-0.1277,-0.203,-0.2899,-0.3791,-0.4572,-0.5434,-0.63,-0.63,-0.63,-0.63,-0.618,-0.6146,-0.6166,-0.615,-0.6146,-0.6169,-0.6272,-0.63,-0.63,-0.63,-0.63,-0.63,-0.63,-0.63,-0.63,-0.63,-0.6354,-0.6422,-0.6422,-0.6521,-0.6607,-0.6607,-0.6709,-0.6844,-0.7076,-0.7246,-0.7465,-0.7661,-0.7896,-0.8116,-0.8384,-0.8428,-0.8472,-0.8568,-0.8612,-0.8612,-0.8612,-0.8612,-0.8612,-0.8612,-0.8612,-0.8612,-0.8612,-0.8612,-0.8612,-0.8612,-0.8612,-0.8612,-0.8612,-0.8612,-0.8612,-0.8612,-0.8612,-0.8612,-0.8612,-0.8612,-0.8612,-0.8612,-0.8612,-0.8612,-0.8612,-0.8612,-0.8612,-0.8612,-0.8535,-0.8367,-0.811,-0.9294,-0.9988,-1.0167,-1.0154,-1.0062,0.0,0.0,0.0,-0.1109,-0.1109,0.0,-0.1109,-0.1109,-0.1109,-0.1109,-0.1109,-0.1109,-0.1109,-0.1109,-0.1084,-0.1112,-0.1116,-0.1127,-0.1198,-0.1203,-0.1203,-0.1203,-0.1203,-0.1203,-0.1203,-0.1203,-0.1203,-0.1203,-0.1203,-0.1215,-0.1205,-0.1923,-0.2764,-0.3622,-0.4361,-0.5187,-0.6141,-0.6141,-0.618,-0.6261,-0.5983,-0.5915,-0.5945,-0.5905,-0.5934,-0.5986,-0.6183,-0.6282,-0.63,-0.63,-0.63,-0.63,-0.63,-0.63,-0.63,-0.63,-0.63,-0.63,-0.63,-0.6381,-0.6491,-0.6491,-0.6552,-0.6705,-0.6858,-0.704,-0.73,-0.746,-0.768,-0.79,-0.8113,-0.8157,-0.8245,-0.8476,-0.852,-0.852,-0.852,-0.8524,-0.8564,-0.8564,-0.8568,-0.8612,-0.8612,-0.8612,-0.8612,-0.8612,-0.8612,-0.8612,-0.8612,-0.8612,-0.8612,-0.8612,-0.8612,-0.8612,-0.8612,-0.8612,-0.8612,-0.8612,-0.8612,-0.8612,-0.8612,-0.8612,-0.86,-0.858,-0.8337,-0.8118,-0.78,-0.8118,-0.8461,-0.8846,-0.9382,-0.9631,0.0,0.0,0.0,0.0,-0.1109,0.0,-0.1109,-0.1109,-0.1109,-0.1109,-0.1109,-0.1109,-0.1109,-0.1109,-0.1111,-0.1084,-0.1084,-0.1138,-0.1195,-0.1203,-0.1203,-0.1203,-0.1203,-0.1203,-0.1203,-0.1203,-0.1203,-0.1203,-0.1203,-0.1206,-0.1211,-0.1365,-0.1865,-0.2738,-0.2892,-0.3723,-0.5237,-0.5079,-0.5354,-0.598,-0.575,-0.5661,-0.5671,-0.5733,-0.5812,-0.5934,-0.6036,-0.6146,-0.63,-0.63,-0.63,-0.63,-0.63,-0.63,-0.63,-0.63,-0.63,-0.63,-0.63,-0.6317,-0.634,-0.634,-0.6439,-0.6546,-0.6698,-0.6873,-0.7046,-0.7416,-0.7551,-0.7639,-0.79,-0.794,-0.7984,-0.8032,-0.8032,-0.8032,-0.8032,-0.816,-0.8288,-0.8288,-0.8472,-0.8612,-0.8612,-0.8612,-0.8612,-0.8612,-0.8612,-0.8612,-0.8612,-0.8612,-0.8612,-0.8612,-0.8612,-0.8612,-0.8612,-0.8612,-0.8612,-0.8612,-0.8612,-0.8612,-0.8612,-0.8612,-0.8539,-0.8349,-0.8069,-0.7869,-0.78,-0.7869,-0.7867,-0.7799,-0.7915,-0.7974,0.0,0.0,0.0,-0.1109,-0.1109,0.0,0.0,-0.1109,-0.1109,-0.1109,-0.1109,-0.1109,-0.1109,-0.1109,-0.1109,-0.1109,-0.1109,-0.112,-0.1151,-0.1156,-0.1156,-0.1156,-0.1156,-0.1156,-0.1156,-0.1156,-0.1156,-0.1156,-0.1136,-0.1144,-0.1144,-0.1194,-0.1576,-0.241,-0.2366,-0.2923,-0.4182,-0.4426,-0.4763,-0.5154,-0.5356,-0.552,-0.5644,-0.5644,-0.572,-0.5844,-0.6074,-0.6146,-0.6152,-0.6269,-0.63,-0.63,-0.63,-0.63,-0.63,-0.63,-0.63,-0.63,-0.63,-0.63,-0.63,-0.63,-0.6347,-0.645,-0.663,-0.6858,-0.7048,-0.7258,-0.7323,-0.7367,-0.7635,-0.768,-0.7724,-0.7856,-0.79,-0.7764,-0.7268,-0.7217,-0.7173,-0.6684,-0.6908,-0.7445,-0.8432,-0.8612,-0.8612,-0.8612,-0.8612,-0.8612,-0.8612,-0.8612,-0.8612,-0.8612,-0.8612,-0.8612,-0.8612,-0.8612,-0.8612,-0.8612,-0.8612,-0.8612,-0.8612,-0.8522,-0.8343,-0.8073,-0.789,-0.7755,-0.7661,-0.7661,-0.7612,-0.7484,-0.7484,-0.7484,0.0,0.0,0.0,0.0,0.0,-0.1109,0.0,0.0,0.0,-0.1109,-0.1109,-0.1109,-0.1109,0.0,0.0,-0.1068,0.0,0.0,0.0,-0.1106,0.0,-0.1109,-0.1109,-0.1109,-0.1109,-0.1109,-0.1109,-0.1109,-0.1098,-0.1112,-0.1112,-0.1136,-0.1475,-0.2132,-0.1954,-0.2275,-0.3142,-0.3641,-0.4033,-0.4344,-0.4797,-0.5224,-0.5582,-0.5519,-0.5588,-0.5748,-0.604,-0.6081,-0.6,-0.6166,-0.6272,-0.63,-0.63,-0.63,-0.63,-0.63,-0.63,-0.63,-0.63,-0.63,-0.63,-0.63,-0.6317,-0.6388,-0.662,-0.6888,-0.7061,-0.7088,-0.7095,-0.7143,-0.737,-0.7415,-0.7415,-0.7455,-0.7499,-0.7183,-0.6195,-0.6015,-0.5841,-0.5087,-0.5265,-0.6107,-0.776,-0.812,-0.8164,-0.8164,-0.8164,-0.8164,-0.8164,-0.83,-0.8388,-0.8388,-0.852,-0.8612,-0.8612,-0.8612,-0.8612,-0.8612,-0.8612,-0.8612,-0.8612,-0.8353,-0.8085,-0.7808,-0.7767,-0.7669,-0.7484,-0.7484,-0.7484,-0.7484,-0.7484,-0.7484,0.0,0.0,0.0,0.0,-0.1109,0.0,-0.1109,0.0,-0.1109,-0.1109,0.0,-0.1109,-0.1109,0.0,0.0,0.0,0.0,0.0,-0.101,-0.106,-0.1109,-0.1109,-0.1109,-0.1109,-0.1109,-0.1109,-0.1109,-0.1109,-0.1113,-0.1115,-0.1115,-0.1118,-0.1167,-0.123,-0.1094,-0.1429,-0.2227,-0.2021,-0.2651,-0.4129,-0.4024,-0.4375,-0.5071,-0.5121,-0.5248,-0.5442,-0.5536,-0.5742,-0.5993,-0.6013,-0.6135,-0.63,-0.63,-0.63,-0.63,-0.63,-0.63,-0.63,-0.63,-0.63,-0.63,-0.63,-0.6385,-0.6518,-0.6651,-0.6817,-0.6933,-0.7061,-0.7095,-0.7095,-0.7143,-0.7143,-0.6962,-0.6118,-0.5941,-0.5672,-0.4732,-0.469,-0.4781,-0.4648,-0.4865,-0.5262,-0.593,-0.6381,-0.6653,-0.6653,-0.6653,-0.6653,-0.6653,-0.7224,-0.7621,-0.7621,-0.8208,-0.8612,-0.8612,-0.8612,-0.8612,-0.8612,-0.8612,-0.8612,-0.8612,-0.8231,-0.7955,-0.7804,-0.7637,-0.7504,-0.7484,-0.7484,-0.7484,-0.7484,-0.7484,-0.7484,0.0,0.0,0.0,0.0,0.0,0.0,-0.1109,0.0,-0.1109,0.0,0.0,0.0,0.0,0.0,0.0,0.0,-0.1068,-0.1105,0.0,0.0,-0.1109,-0.1109,0.0,0.0,-0.1109,-0.1109,-0.1109,-0.1109,-0.1109,-0.1109,-0.1109,-0.0976,-0.0914,-0.0925,-0.0695,-0.0704,-0.1067,-0.1315,-0.201,-0.3167,-0.3585,-0.4286,-0.5165,-0.5186,-0.5275,-0.5392,-0.5553,-0.571,-0.5837,-0.5952,-0.6122,-0.63,-0.63,-0.63,-0.63,-0.63,-0.63,-0.63,-0.63,-0.63,-0.63,-0.63,-0.6395,-0.6542,-0.6654,-0.6807,-0.6916,-0.7055,-0.7095,-0.7095,-0.7095,-0.6697,-0.6207,-0.5808,-0.5272,-0.4648,-0.3712,-0.3535,-0.3446,-0.2865,-0.3089,-0.3444,-0.3623,-0.4734,-0.5578,-0.5578,-0.58,-0.5977,-0.5977,-0.6514,-0.6871,-0.6871,-0.6912,-0.7044,-0.7319,-0.7088,-0.7221,-0.7937,-0.8245,-0.8357,-0.8251,-0.8,-0.7824,-0.7641,-0.7563,-0.7484,-0.7484,-0.7484,-0.7484,-0.7484,-0.7484,-0.7484,-0.1109,0.0,0.0,0.0,0.0,0.0,0.0,0.0,0.0,0.0,0.0,0.0,0.0,0.0,0.0,0.0,0.0,-0.1106,0.0,-0.1064,0.0,-0.1108,0.0,0.0,0.0,-0.1109,-0.1109,-0.1109,-0.1109,-0.1076,-0.1009,-0.0876,-0.0776,-0.0708,-0.0446,-0.0312,-0.0312,-0.0712,-0.1346,-0.2182,-0.3038,-0.3962,-0.4884,-0.5112,-0.5251,-0.5317,-0.5464,-0.5591,-0.567,-0.5824,-0.6019,-0.6242,-0.6282,-0.63,-0.63,-0.63,-0.63,-0.63,-0.63,-0.63,-0.63,-0.63,-0.6371,-0.6491,-0.6644,-0.6776,-0.6862,-0.7045,-0.7095,-0.7051,-0.6786,-0.6207,-0.5586,-0.505,-0.4425,-0.3667,-0.2688,-0.251,-0.2285,-0.1524,-0.1705,-0.1974,-0.1974,-0.3355,-0.4421,-0.4421,-0.4732,-0.4954,-0.4954,-0.5403,-0.5716,-0.5716,-0.5578,-0.5664,-0.5983,-0.5841,-0.6136,-0.7119,-0.7537,-0.7632,-0.7416,-0.75,-0.7434,-0.7257,-0.7407,-0.7484,-0.7484,-0.7484,-0.7484,-0.7484,-0.7484,-0.7484,0.0,0.0,0.0,-0.1109,0.0,0.0,0.0,0.0,-0.1109,0.0,0.0,0.0,0.0,0.0,0.0,0.0,0.0,0.0,0.0,-0.1002,-0.1012,-0.1106,-0.1109,0.0,0.0,-0.1109,-0.1109,-0.1109,-0.1109,-0.1009,-0.0809,-0.0809,-0.0708,-0.0506,-0.0371,-0.0304,-0.0304,-0.0139,-0.0492,-0.1335,-0.2139,-0.2982,-0.3862,-0.4653,-0.5062,-0.5127,-0.5127,-0.5279,-0.5502,-0.567,-0.584,-0.6016,-0.6242,-0.63,-0.63,-0.63,-0.63,-0.63,-0.63,-0.63,-0.63,-0.63,-0.6303,-0.6361,-0.6614,-0.6705,-0.677,-0.7014,-0.7095,-0.6874,-0.5985,-0.5719,-0.523,-0.3401,-0.2956,-0.2688,-0.1659,-0.1436,-0.1436,-0.1391,-0.1436,-0.1436,-0.1436,-0.2285,-0.2956,-0.2956,-0.3001,-0.3001,-0.3001,-0.3582,-0.3981,-0.3981,-0.4601,-0.5043,-0.5043,-0.544,-0.5879,-0.6325,-0.6359,-0.6234,-0.5969,-0.6508,-0.6756,-0.6644,-0.7215,-0.7484,-0.7484,-0.7484,-0.7484,-0.7484,-0.7484,-0.7484,0.0,0.0,-0.1109,-0.1109,0.0,0.0,0.0,0.0,0.0,0.0,0.0,0.0,0.0,0.0,0.0,0.0,0.0,0.0,0.0,-0.1013,-0.0998,-0.1019,-0.1049,-0.1049,0.0,0.0,-0.1048,-0.1048,-0.1065,-0.1009,-0.0809,-0.0674,-0.0539,-0.0371,-0.0202,-0.0101,-0.0101,-0.0034,-0.0448,-0.1296,-0.1569,-0.2157,-0.298,-0.3808,-0.4222,-0.4282,-0.4857,-0.5266,-0.5572,-0.567,-0.5896,-0.6186,-0.6279,-0.63,-0.63,-0.63,-0.63,-0.63,-0.63,-0.63,-0.63,-0.63,-0.63,-0.6337,-0.6532,-0.662,-0.6742,-0.69,-0.6583,-0.6118,-0.5764,-0.4783,-0.3671,-0.3045,-0.2374,-0.1793,-0.148,-0.1391,-0.1391,-0.1391,-0.1391,-0.1391,-0.1391,-0.1704,-0.1928,-0.1928,-0.2198,-0.2422,-0.2422,-0.2913,-0.3224,-0.3224,-0.3179,-0.3267,-0.3578,-0.4467,-0.5,-0.5112,-0.5721,-0.606,-0.5919,-0.5975,-0.598,-0.5935,-0.6128,-0.6475,-0.6907,-0.6907,-0.7099,-0.7484,-0.7484,-0.7484,-0.1009,-0.101,0.0,-0.0909,-0.0875,0.0,-0.0976,0.0,-0.101,0.0,0.0,0.0,0.0,0.0,0.0,0.0,0.0,0.0,0.0,-0.1029,-0.1002,-0.0961,-0.0975,-0.0992,-0.1003,-0.1012,-0.1026,-0.1047,-0.1056,-0.0966,-0.0707,-0.0573,-0.0404,-0.0202,-0.0067,0.0,0.0,0.0,-0.0272,-0.083,-0.1151,-0.1718,-0.2533,-0.3385,-0.3942,-0.4261,-0.4811,-0.522,-0.5443,-0.5594,-0.5828,-0.6106,-0.6237,-0.63,-0.63,-0.63,-0.63,-0.63,-0.63,-0.63,-0.63,-0.63,-0.63,-0.6327,-0.647,-0.658,-0.6677,-0.6476,-0.6074,-0.5534,-0.4828,-0.3781,-0.2823,-0.2464,-0.1883,-0.1391,-0.1391,-0.1391,-0.1391,-0.1391,-0.1391,-0.1391,-0.1391,-0.1391,-0.1391,-0.1391,-0.1705,-0.193,-0.193,-0.2196,-0.2376,-0.2376,-0.2108,-0.2108,-0.2599,-0.3425,-0.3902,-0.3861,-0.474,-0.5167,-0.493,-0.5162,-0.5296,-0.53,-0.5491,-0.5844,-0.6329,-0.6274,-0.6556,-0.7176,-0.7176,-0.7292]}]]